<?xml version='1.0' encoding='UTF-8'?><gpx version="1.1" creator="JPX - https://github.com/jenetics/jpx" xmlns="http://www.topografix.com/GPX/1/1"><trk><trkseg><trkpt lat="45.6130833" lon="10.48162"><ele>224.00000000000003</ele><time>2026-03-22T10:04:04.186Z</time></trkpt><trkpt lat="45.6130117" lon="10.4815933"><ele>224.0</ele><time>2026-03-22T10:04:09.186Z</time></trkpt><trkpt lat="45.6129467" lon="10.4815733"><ele>224.0</ele><time>2026-03-22T10:04:14.187Z</time></trkpt><trkpt lat="45.6128533" lon="10.4815567"><ele>224.0</ele><time>2026-03-22T10:04:23.185Z</time></trkpt><trkpt lat="45.6127583" lon="10.481525"><ele>224.00000000000003</ele><time>2026-03-22T10:04:24.186Z</time></trkpt><trkpt lat="45.612655" lon="10.48148"><ele>224.0</ele><time>2026-03-22T10:04:25.185Z</time></trkpt><trkpt lat="45.612555" lon="10.48142"><ele>224.39999999999998</ele><time>2026-03-22T10:04:26.185Z</time></trkpt><trkpt lat="45.6124617" lon="10.481335"><ele>224.79999999999998</ele><time>2026-03-22T10:04:27.185Z</time></trkpt><trkpt lat="45.612375" lon="10.48125"><ele>225.20000000000002</ele><time>2026-03-22T10:04:28.185Z</time></trkpt><trkpt lat="45.6122967" lon="10.4811717"><ele>225.60000000000002</ele><time>2026-03-22T10:04:29.185Z</time></trkpt><trkpt lat="45.6122267" lon="10.4811"><ele>226.0</ele><time>2026-03-22T10:04:30.185Z</time></trkpt><trkpt lat="45.612165" lon="10.4810467"><ele>225.49999999999997</ele><time>2026-03-22T10:04:31.185Z</time></trkpt><trkpt lat="45.6121133" lon="10.4809883"><ele>225.0</ele><time>2026-03-22T10:04:32.185Z</time></trkpt><trkpt lat="45.6120417" lon="10.4808917"><ele>224.5</ele><time>2026-03-22T10:04:34.186Z</time></trkpt><trkpt lat="45.6119983" lon="10.4808017"><ele>224.0</ele><time>2026-03-22T10:04:37.185Z</time></trkpt><trkpt lat="45.611935" lon="10.4806867"><ele>223.49999999999997</ele><time>2026-03-22T10:04:39.186Z</time></trkpt><trkpt lat="45.6118867" lon="10.480625"><ele>223.0</ele><time>2026-03-22T10:04:40.186Z</time></trkpt><trkpt lat="45.6118183" lon="10.48056"><ele>223.0</ele><time>2026-03-22T10:04:41.185Z</time></trkpt><trkpt lat="45.6117283" lon="10.4804833"><ele>223.0</ele><time>2026-03-22T10:04:42.185Z</time></trkpt><trkpt lat="45.61163" lon="10.4803783"><ele>223.0</ele><time>2026-03-22T10:04:43.186Z</time></trkpt><trkpt lat="45.6115233" lon="10.4802467"><ele>223.0</ele><time>2026-03-22T10:04:44.185Z</time></trkpt><trkpt lat="45.6114167" lon="10.4800917"><ele>222.66666666666666</ele><time>2026-03-22T10:04:45.186Z</time></trkpt><trkpt lat="45.6113067" lon="10.4799267"><ele>222.33333333333331</ele><time>2026-03-22T10:04:46.186Z</time></trkpt><trkpt lat="45.6111983" lon="10.479765"><ele>222.0</ele><time>2026-03-22T10:04:47.187Z</time></trkpt><trkpt lat="45.6110967" lon="10.4796067"><ele>222.5</ele><time>2026-03-22T10:04:48.187Z</time></trkpt><trkpt lat="45.6110017" lon="10.47945"><ele>223.0</ele><time>2026-03-22T10:04:49.187Z</time></trkpt><trkpt lat="45.610905" lon="10.4792933"><ele>223.5</ele><time>2026-03-22T10:04:50.187Z</time></trkpt><trkpt lat="45.610805" lon="10.4791317"><ele>224.0</ele><time>2026-03-22T10:04:51.188Z</time></trkpt><trkpt lat="45.6107067" lon="10.4789683"><ele>224.0</ele><time>2026-03-22T10:04:52.186Z</time></trkpt><trkpt lat="45.6106067" lon="10.4788033"><ele>224.0</ele><time>2026-03-22T10:04:53.186Z</time></trkpt><trkpt lat="45.610505" lon="10.4786383"><ele>224.0</ele><time>2026-03-22T10:04:54.187Z</time></trkpt><trkpt lat="45.6104017" lon="10.4784783"><ele>225.66666666666669</ele><time>2026-03-22T10:04:55.186Z</time></trkpt><trkpt lat="45.6102983" lon="10.4783183"><ele>227.33333333333331</ele><time>2026-03-22T10:04:56.186Z</time></trkpt><trkpt lat="45.61019" lon="10.4781633"><ele>229.0</ele><time>2026-03-22T10:04:57.186Z</time></trkpt><trkpt lat="45.6100733" lon="10.4780167"><ele>226.33333333333331</ele><time>2026-03-22T10:04:58.186Z</time></trkpt><trkpt lat="45.6099517" lon="10.477885"><ele>223.66666666666669</ele><time>2026-03-22T10:04:59.185Z</time></trkpt><trkpt lat="45.6098283" lon="10.47776"><ele>221.0</ele><time>2026-03-22T10:05:00.186Z</time></trkpt><trkpt lat="45.6097067" lon="10.477635"><ele>221.0</ele><time>2026-03-22T10:05:01.186Z</time></trkpt><trkpt lat="45.609585" lon="10.4775167"><ele>221.0</ele><time>2026-03-22T10:05:02.186Z</time></trkpt><trkpt lat="45.60947" lon="10.4774017"><ele>221.0</ele><time>2026-03-22T10:05:03.185Z</time></trkpt><trkpt lat="45.6093617" lon="10.4772817"><ele>221.0</ele><time>2026-03-22T10:05:04.186Z</time></trkpt><trkpt lat="45.60926" lon="10.4771517"><ele>221.25</ele><time>2026-03-22T10:05:05.185Z</time></trkpt><trkpt lat="45.6091667" lon="10.4770133"><ele>221.5</ele><time>2026-03-22T10:05:06.185Z</time></trkpt><trkpt lat="45.609075" lon="10.4768617"><ele>221.75</ele><time>2026-03-22T10:05:07.186Z</time></trkpt><trkpt lat="45.6089767" lon="10.4766983"><ele>222.0</ele><time>2026-03-22T10:05:08.185Z</time></trkpt><trkpt lat="45.608875" lon="10.4765283"><ele>222.0</ele><time>2026-03-22T10:05:09.186Z</time></trkpt><trkpt lat="45.6087717" lon="10.4763517"><ele>222.0</ele><time>2026-03-22T10:05:10.185Z</time></trkpt><trkpt lat="45.60867" lon="10.4761767"><ele>222.0</ele><time>2026-03-22T10:05:11.185Z</time></trkpt><trkpt lat="45.6085717" lon="10.4760017"><ele>222.0</ele><time>2026-03-22T10:05:12.185Z</time></trkpt><trkpt lat="45.6084767" lon="10.4758183"><ele>222.0</ele><time>2026-03-22T10:05:13.185Z</time></trkpt><trkpt lat="45.6083883" lon="10.4756283"><ele>222.0</ele><time>2026-03-22T10:05:14.185Z</time></trkpt><trkpt lat="45.6083133" lon="10.4754283"><ele>221.66666666666669</ele><time>2026-03-22T10:05:15.184Z</time></trkpt><trkpt lat="45.6082467" lon="10.4752217"><ele>221.33333333333334</ele><time>2026-03-22T10:05:16.184Z</time></trkpt><trkpt lat="45.60819" lon="10.4750133"><ele>221.0</ele><time>2026-03-22T10:05:17.186Z</time></trkpt><trkpt lat="45.6081383" lon="10.474805"><ele>220.33333333333334</ele><time>2026-03-22T10:05:18.187Z</time></trkpt><trkpt lat="45.6080867" lon="10.474595"><ele>219.66666666666669</ele><time>2026-03-22T10:05:19.186Z</time></trkpt><trkpt lat="45.6080333" lon="10.474385"><ele>219.0</ele><time>2026-03-22T10:05:20.187Z</time></trkpt><trkpt lat="45.6079833" lon="10.474175"><ele>219.0</ele><time>2026-03-22T10:05:21.187Z</time></trkpt><trkpt lat="45.6079283" lon="10.4739533"><ele>219.0</ele><time>2026-03-22T10:05:22.187Z</time></trkpt><trkpt lat="45.60787" lon="10.47372"><ele>219.0</ele><time>2026-03-22T10:05:23.187Z</time></trkpt><trkpt lat="45.60781" lon="10.4734833"><ele>220.66666666666669</ele><time>2026-03-22T10:05:24.185Z</time></trkpt><trkpt lat="45.607745" lon="10.47324"><ele>222.33333333333334</ele><time>2026-03-22T10:05:25.185Z</time></trkpt><trkpt lat="45.607685" lon="10.472995"><ele>224.0</ele><time>2026-03-22T10:05:26.185Z</time></trkpt><trkpt lat="45.607625" lon="10.4727467"><ele>224.0</ele><time>2026-03-22T10:05:27.185Z</time></trkpt><trkpt lat="45.6075617" lon="10.4724967"><ele>224.0</ele><time>2026-03-22T10:05:28.185Z</time></trkpt><trkpt lat="45.6074967" lon="10.4722433"><ele>224.0</ele><time>2026-03-22T10:05:29.189Z</time></trkpt><trkpt lat="45.6074283" lon="10.4719933"><ele>223.0</ele><time>2026-03-22T10:05:30.188Z</time></trkpt><trkpt lat="45.60736" lon="10.4717433"><ele>222.0</ele><time>2026-03-22T10:05:31.187Z</time></trkpt><trkpt lat="45.6072883" lon="10.4714983"><ele>221.0</ele><time>2026-03-22T10:05:32.187Z</time></trkpt><trkpt lat="45.6072233" lon="10.4712633"><ele>220.66666666666669</ele><time>2026-03-22T10:05:33.187Z</time></trkpt><trkpt lat="45.6071567" lon="10.4710367"><ele>220.33333333333331</ele><time>2026-03-22T10:05:34.188Z</time></trkpt><trkpt lat="45.6070883" lon="10.470815"><ele>220.0</ele><time>2026-03-22T10:05:35.186Z</time></trkpt><trkpt lat="45.6070233" lon="10.4705883"><ele>221.33333333333331</ele><time>2026-03-22T10:05:36.188Z</time></trkpt><trkpt lat="45.6069567" lon="10.4703617"><ele>222.66666666666669</ele><time>2026-03-22T10:05:37.187Z</time></trkpt><trkpt lat="45.60689" lon="10.470135"><ele>224.0</ele><time>2026-03-22T10:05:38.185Z</time></trkpt><trkpt lat="45.60682" lon="10.4699017"><ele>224.0</ele><time>2026-03-22T10:05:39.184Z</time></trkpt><trkpt lat="45.6067517" lon="10.469665"><ele>224.0</ele><time>2026-03-22T10:05:40.185Z</time></trkpt><trkpt lat="45.6066867" lon="10.4694267"><ele>224.0</ele><time>2026-03-22T10:05:41.185Z</time></trkpt><trkpt lat="45.60662" lon="10.46919"><ele>223.0</ele><time>2026-03-22T10:05:42.185Z</time></trkpt><trkpt lat="45.6065533" lon="10.46895"><ele>222.0</ele><time>2026-03-22T10:05:43.186Z</time></trkpt><trkpt lat="45.6064833" lon="10.4687183"><ele>221.0</ele><time>2026-03-22T10:05:44.186Z</time></trkpt><trkpt lat="45.606415" lon="10.46849"><ele>219.33333333333334</ele><time>2026-03-22T10:05:45.186Z</time></trkpt><trkpt lat="45.6063433" lon="10.4682633"><ele>217.66666666666669</ele><time>2026-03-22T10:05:46.184Z</time></trkpt><trkpt lat="45.6062733" lon="10.468035"><ele>216.0</ele><time>2026-03-22T10:05:47.185Z</time></trkpt><trkpt lat="45.6062067" lon="10.4678117"><ele>217.0</ele><time>2026-03-22T10:05:48.185Z</time></trkpt><trkpt lat="45.60614" lon="10.46759"><ele>218.0</ele><time>2026-03-22T10:05:49.185Z</time></trkpt><trkpt lat="45.6060733" lon="10.4673667"><ele>219.0</ele><time>2026-03-22T10:05:50.186Z</time></trkpt><trkpt lat="45.606005" lon="10.4671417"><ele>219.33333333333331</ele><time>2026-03-22T10:05:51.187Z</time></trkpt><trkpt lat="45.6059367" lon="10.46692"><ele>219.66666666666666</ele><time>2026-03-22T10:05:52.186Z</time></trkpt><trkpt lat="45.6058717" lon="10.4667033"><ele>220.0</ele><time>2026-03-22T10:05:53.187Z</time></trkpt><trkpt lat="45.60581" lon="10.4664917"><ele>220.0</ele><time>2026-03-22T10:05:54.186Z</time></trkpt><trkpt lat="45.6057483" lon="10.466285"><ele>220.0</ele><time>2026-03-22T10:05:55.184Z</time></trkpt><trkpt lat="45.6056933" lon="10.4660967"><ele>220.0</ele><time>2026-03-22T10:05:56.185Z</time></trkpt><trkpt lat="45.6056417" lon="10.4659217"><ele>220.0</ele><time>2026-03-22T10:05:57.185Z</time></trkpt><trkpt lat="45.60559" lon="10.4657567"><ele>219.4</ele><time>2026-03-22T10:05:58.186Z</time></trkpt><trkpt lat="45.6055417" lon="10.465605"><ele>218.8</ele><time>2026-03-22T10:05:59.186Z</time></trkpt><trkpt lat="45.6054983" lon="10.4654767"><ele>218.2</ele><time>2026-03-22T10:06:00.185Z</time></trkpt><trkpt lat="45.605465" lon="10.4653767"><ele>217.6</ele><time>2026-03-22T10:06:01.184Z</time></trkpt><trkpt lat="45.60542" lon="10.465235"><ele>217.0</ele><time>2026-03-22T10:06:03.184Z</time></trkpt><trkpt lat="45.6053883" lon="10.465155"><ele>217.0</ele><time>2026-03-22T10:06:05.185Z</time></trkpt><trkpt lat="45.6053433" lon="10.46503"><ele>217.0</ele><time>2026-03-22T10:06:09.185Z</time></trkpt><trkpt lat="45.6052917" lon="10.46487"><ele>217.0</ele><time>2026-03-22T10:06:11.185Z</time></trkpt><trkpt lat="45.6052633" lon="10.4647667"><ele>217.0</ele><time>2026-03-22T10:06:12.186Z</time></trkpt><trkpt lat="45.605235" lon="10.464665"><ele>217.0</ele><time>2026-03-22T10:06:13.184Z</time></trkpt><trkpt lat="45.6052017" lon="10.4645433"><ele>217.0</ele><time>2026-03-22T10:06:14.185Z</time></trkpt><trkpt lat="45.605165" lon="10.4644033"><ele>217.0</ele><time>2026-03-22T10:06:15.184Z</time></trkpt><trkpt lat="45.6051233" lon="10.464245"><ele>217.0</ele><time>2026-03-22T10:06:16.185Z</time></trkpt><trkpt lat="45.6050733" lon="10.464075"><ele>217.0</ele><time>2026-03-22T10:06:17.186Z</time></trkpt><trkpt lat="45.6050183" lon="10.463895"><ele>216.75</ele><time>2026-03-22T10:06:18.185Z</time></trkpt><trkpt lat="45.6049633" lon="10.46371"><ele>216.5</ele><time>2026-03-22T10:06:19.185Z</time></trkpt><trkpt lat="45.6049067" lon="10.46352"><ele>216.25</ele><time>2026-03-22T10:06:20.185Z</time></trkpt><trkpt lat="45.6048467" lon="10.46333"><ele>216.0</ele><time>2026-03-22T10:06:21.185Z</time></trkpt><trkpt lat="45.6047883" lon="10.4631383"><ele>216.33333333333331</ele><time>2026-03-22T10:06:22.185Z</time></trkpt><trkpt lat="45.6047283" lon="10.4629417"><ele>216.66666666666666</ele><time>2026-03-22T10:06:23.185Z</time></trkpt><trkpt lat="45.6046717" lon="10.4627433"><ele>217.0</ele><time>2026-03-22T10:06:24.184Z</time></trkpt><trkpt lat="45.604615" lon="10.4625433"><ele>217.0</ele><time>2026-03-22T10:06:25.184Z</time></trkpt><trkpt lat="45.6045517" lon="10.4623367"><ele>217.0</ele><time>2026-03-22T10:06:26.185Z</time></trkpt><trkpt lat="45.6044867" lon="10.4621283"><ele>217.0</ele><time>2026-03-22T10:06:27.184Z</time></trkpt><trkpt lat="45.6044217" lon="10.461915"><ele>217.0</ele><time>2026-03-22T10:06:28.184Z</time></trkpt><trkpt lat="45.6043583" lon="10.4617"><ele>217.0</ele><time>2026-03-22T10:06:29.185Z</time></trkpt><trkpt lat="45.604295" lon="10.4614817"><ele>217.0</ele><time>2026-03-22T10:06:30.185Z</time></trkpt><trkpt lat="45.60423" lon="10.4612667"><ele>216.75</ele><time>2026-03-22T10:06:31.185Z</time></trkpt><trkpt lat="45.6041717" lon="10.461065"><ele>216.5</ele><time>2026-03-22T10:06:32.185Z</time></trkpt><trkpt lat="45.6041133" lon="10.4608717"><ele>216.25</ele><time>2026-03-22T10:06:33.186Z</time></trkpt><trkpt lat="45.604055" lon="10.4606817"><ele>216.0</ele><time>2026-03-22T10:06:34.186Z</time></trkpt><trkpt lat="45.6039983" lon="10.46049"><ele>216.25</ele><time>2026-03-22T10:06:35.186Z</time></trkpt><trkpt lat="45.60394" lon="10.4603017"><ele>216.5</ele><time>2026-03-22T10:06:36.187Z</time></trkpt><trkpt lat="45.603885" lon="10.46012"><ele>216.75</ele><time>2026-03-22T10:06:37.187Z</time></trkpt><trkpt lat="45.6038333" lon="10.4599483"><ele>217.0</ele><time>2026-03-22T10:06:38.187Z</time></trkpt><trkpt lat="45.6037833" lon="10.45979"><ele>217.0</ele><time>2026-03-22T10:06:39.186Z</time></trkpt><trkpt lat="45.603735" lon="10.4596417"><ele>217.0</ele><time>2026-03-22T10:06:40.186Z</time></trkpt><trkpt lat="45.60369" lon="10.4595"><ele>217.0</ele><time>2026-03-22T10:06:41.184Z</time></trkpt><trkpt lat="45.603645" lon="10.45936"><ele>217.0</ele><time>2026-03-22T10:06:42.185Z</time></trkpt><trkpt lat="45.6036017" lon="10.4592183"><ele>217.0</ele><time>2026-03-22T10:06:43.185Z</time></trkpt><trkpt lat="45.6035583" lon="10.4590817"><ele>216.6</ele><time>2026-03-22T10:06:44.185Z</time></trkpt><trkpt lat="45.6035217" lon="10.45895"><ele>216.2</ele><time>2026-03-22T10:06:45.185Z</time></trkpt><trkpt lat="45.6034833" lon="10.4588283"><ele>215.8</ele><time>2026-03-22T10:06:46.184Z</time></trkpt><trkpt lat="45.6034467" lon="10.4587117"><ele>215.4</ele><time>2026-03-22T10:06:47.185Z</time></trkpt><trkpt lat="45.60341" lon="10.458595"><ele>215.0</ele><time>2026-03-22T10:06:48.185Z</time></trkpt><trkpt lat="45.603375" lon="10.4584867"><ele>214.83333333333334</ele><time>2026-03-22T10:06:49.184Z</time></trkpt><trkpt lat="45.6033467" lon="10.458395"><ele>214.66666666666669</ele><time>2026-03-22T10:06:50.186Z</time></trkpt><trkpt lat="45.603315" lon="10.45825"><ele>214.5</ele><time>2026-03-22T10:06:52.184Z</time></trkpt><trkpt lat="45.6033167" lon="10.458145"><ele>214.33333333333331</ele><time>2026-03-22T10:06:55.188Z</time></trkpt><trkpt lat="45.603335" lon="10.4580333"><ele>214.16666666666666</ele><time>2026-03-22T10:06:57.185Z</time></trkpt><trkpt lat="45.6033283" lon="10.4578917"><ele>214.0</ele><time>2026-03-22T10:06:59.185Z</time></trkpt><trkpt lat="45.6032317" lon="10.4577517"><ele>214.0</ele><time>2026-03-22T10:07:01.184Z</time></trkpt><trkpt lat="45.60316" lon="10.457655"><ele>213.99999999999997</ele><time>2026-03-22T10:07:02.185Z</time></trkpt><trkpt lat="45.6031033" lon="10.45753"><ele>213.99999999999997</ele><time>2026-03-22T10:07:03.186Z</time></trkpt><trkpt lat="45.6030617" lon="10.4573933"><ele>214.0</ele><time>2026-03-22T10:07:04.186Z</time></trkpt><trkpt lat="45.6030217" lon="10.457265"><ele>214.0</ele><time>2026-03-22T10:07:05.185Z</time></trkpt><trkpt lat="45.6029833" lon="10.457135"><ele>214.39999999999998</ele><time>2026-03-22T10:07:06.185Z</time></trkpt><trkpt lat="45.6029417" lon="10.4570017"><ele>214.79999999999998</ele><time>2026-03-22T10:07:07.185Z</time></trkpt><trkpt lat="45.6029033" lon="10.4568567"><ele>215.20000000000002</ele><time>2026-03-22T10:07:08.185Z</time></trkpt><trkpt lat="45.6028633" lon="10.4567117"><ele>215.60000000000002</ele><time>2026-03-22T10:07:09.185Z</time></trkpt><trkpt lat="45.6028267" lon="10.4565617"><ele>216.0</ele><time>2026-03-22T10:07:10.185Z</time></trkpt><trkpt lat="45.6027867" lon="10.456415"><ele>216.0</ele><time>2026-03-22T10:07:11.185Z</time></trkpt><trkpt lat="45.6027467" lon="10.4562683"><ele>216.00000000000003</ele><time>2026-03-22T10:07:12.186Z</time></trkpt><trkpt lat="45.6027033" lon="10.4561367"><ele>216.00000000000003</ele><time>2026-03-22T10:07:13.186Z</time></trkpt><trkpt lat="45.6026617" lon="10.4560117"><ele>216.0</ele><time>2026-03-22T10:07:14.186Z</time></trkpt><trkpt lat="45.60262" lon="10.4558933"><ele>216.0</ele><time>2026-03-22T10:07:15.186Z</time></trkpt><trkpt lat="45.60258" lon="10.4557833"><ele>216.0</ele><time>2026-03-22T10:07:16.185Z</time></trkpt><trkpt lat="45.6025417" lon="10.455665"><ele>216.0</ele><time>2026-03-22T10:07:17.185Z</time></trkpt><trkpt lat="45.60251" lon="10.4555483"><ele>216.0</ele><time>2026-03-22T10:07:18.186Z</time></trkpt><trkpt lat="45.60247" lon="10.4554383"><ele>216.0</ele><time>2026-03-22T10:07:19.185Z</time></trkpt><trkpt lat="45.6024217" lon="10.4553367"><ele>216.0</ele><time>2026-03-22T10:07:20.185Z</time></trkpt><trkpt lat="45.602375" lon="10.455235"><ele>216.0</ele><time>2026-03-22T10:07:21.184Z</time></trkpt><trkpt lat="45.6023233" lon="10.45514"><ele>215.83333333333334</ele><time>2026-03-22T10:07:22.185Z</time></trkpt><trkpt lat="45.60227" lon="10.4550317"><ele>215.66666666666669</ele><time>2026-03-22T10:07:23.185Z</time></trkpt><trkpt lat="45.602215" lon="10.4549317"><ele>215.5</ele><time>2026-03-22T10:07:24.184Z</time></trkpt><trkpt lat="45.6021583" lon="10.454835"><ele>215.33333333333334</ele><time>2026-03-22T10:07:25.185Z</time></trkpt><trkpt lat="45.6021017" lon="10.4547383"><ele>215.16666666666669</ele><time>2026-03-22T10:07:26.185Z</time></trkpt><trkpt lat="45.602045" lon="10.4546467"><ele>215.0</ele><time>2026-03-22T10:07:27.186Z</time></trkpt><trkpt lat="45.60199" lon="10.454555"><ele>214.6</ele><time>2026-03-22T10:07:28.186Z</time></trkpt><trkpt lat="45.6019317" lon="10.4544583"><ele>214.2</ele><time>2026-03-22T10:07:29.184Z</time></trkpt><trkpt lat="45.60187" lon="10.4543617"><ele>213.8</ele><time>2026-03-22T10:07:30.185Z</time></trkpt><trkpt lat="45.60181" lon="10.4542633"><ele>213.4</ele><time>2026-03-22T10:07:31.185Z</time></trkpt><trkpt lat="45.6017483" lon="10.4541683"><ele>213.0</ele><time>2026-03-22T10:07:32.186Z</time></trkpt><trkpt lat="45.601685" lon="10.45407"><ele>213.0</ele><time>2026-03-22T10:07:33.186Z</time></trkpt><trkpt lat="45.60162" lon="10.453975"><ele>213.0</ele><time>2026-03-22T10:07:34.185Z</time></trkpt><trkpt lat="45.6015567" lon="10.4538733"><ele>213.0</ele><time>2026-03-22T10:07:35.185Z</time></trkpt><trkpt lat="45.6014967" lon="10.4537667"><ele>213.0</ele><time>2026-03-22T10:07:36.186Z</time></trkpt><trkpt lat="45.601435" lon="10.4536683"><ele>213.0</ele><time>2026-03-22T10:07:37.185Z</time></trkpt><trkpt lat="45.60137" lon="10.4535667"><ele>213.0</ele><time>2026-03-22T10:07:38.185Z</time></trkpt><trkpt lat="45.6013017" lon="10.4534633"><ele>213.0</ele><time>2026-03-22T10:07:39.185Z</time></trkpt><trkpt lat="45.6012367" lon="10.4533617"><ele>213.0</ele><time>2026-03-22T10:07:40.184Z</time></trkpt><trkpt lat="45.6011733" lon="10.4532583"><ele>213.0</ele><time>2026-03-22T10:07:41.185Z</time></trkpt><trkpt lat="45.6011083" lon="10.4531517"><ele>213.0</ele><time>2026-03-22T10:07:42.186Z</time></trkpt><trkpt lat="45.6010417" lon="10.4530483"><ele>213.0</ele><time>2026-03-22T10:07:43.185Z</time></trkpt><trkpt lat="45.6009717" lon="10.45294"><ele>213.0</ele><time>2026-03-22T10:07:44.185Z</time></trkpt><trkpt lat="45.6009017" lon="10.452835"><ele>213.0</ele><time>2026-03-22T10:07:45.185Z</time></trkpt><trkpt lat="45.6008367" lon="10.452725"><ele>213.0</ele><time>2026-03-22T10:07:46.185Z</time></trkpt><trkpt lat="45.60077" lon="10.45262"><ele>213.0</ele><time>2026-03-22T10:07:47.184Z</time></trkpt><trkpt lat="45.6007" lon="10.4525133"><ele>213.0</ele><time>2026-03-22T10:07:48.184Z</time></trkpt><trkpt lat="45.60063" lon="10.452405"><ele>213.0</ele><time>2026-03-22T10:07:49.185Z</time></trkpt><trkpt lat="45.60056" lon="10.4522967"><ele>213.0</ele><time>2026-03-22T10:07:50.185Z</time></trkpt><trkpt lat="45.60049" lon="10.4521867"><ele>213.0</ele><time>2026-03-22T10:07:51.187Z</time></trkpt><trkpt lat="45.60042" lon="10.4520683"><ele>213.0</ele><time>2026-03-22T10:07:52.187Z</time></trkpt><trkpt lat="45.6003517" lon="10.4519483"><ele>212.8</ele><time>2026-03-22T10:07:53.185Z</time></trkpt><trkpt lat="45.6002833" lon="10.4518283"><ele>212.60000000000002</ele><time>2026-03-22T10:07:54.186Z</time></trkpt><trkpt lat="45.6002117" lon="10.4517117"><ele>212.39999999999998</ele><time>2026-03-22T10:07:55.187Z</time></trkpt><trkpt lat="45.6001367" lon="10.4515917"><ele>212.2</ele><time>2026-03-22T10:07:56.188Z</time></trkpt><trkpt lat="45.6000567" lon="10.4514683"><ele>212.0</ele><time>2026-03-22T10:07:57.187Z</time></trkpt><trkpt lat="45.59998" lon="10.45134"><ele>211.8</ele><time>2026-03-22T10:07:58.186Z</time></trkpt><trkpt lat="45.5999067" lon="10.4512183"><ele>211.6</ele><time>2026-03-22T10:07:59.184Z</time></trkpt><trkpt lat="45.5998333" lon="10.4511017"><ele>211.4</ele><time>2026-03-22T10:08:00.184Z</time></trkpt><trkpt lat="45.59976" lon="10.4509867"><ele>211.20000000000002</ele><time>2026-03-22T10:08:01.184Z</time></trkpt><trkpt lat="45.599685" lon="10.450875"><ele>211.0</ele><time>2026-03-22T10:08:02.187Z</time></trkpt><trkpt lat="45.5996183" lon="10.4507667"><ele>211.0</ele><time>2026-03-22T10:08:03.185Z</time></trkpt><trkpt lat="45.5995533" lon="10.4506583"><ele>211.0</ele><time>2026-03-22T10:08:04.184Z</time></trkpt><trkpt lat="45.59949" lon="10.4505533"><ele>211.0</ele><time>2026-03-22T10:08:05.184Z</time></trkpt><trkpt lat="45.59943" lon="10.4504583"><ele>211.0</ele><time>2026-03-22T10:08:06.186Z</time></trkpt><trkpt lat="45.5993667" lon="10.450355"><ele>211.0</ele><time>2026-03-22T10:08:07.184Z</time></trkpt><trkpt lat="45.5993" lon="10.4502567"><ele>210.83333333333331</ele><time>2026-03-22T10:08:08.184Z</time></trkpt><trkpt lat="45.599235" lon="10.4501533"><ele>210.66666666666666</ele><time>2026-03-22T10:08:09.185Z</time></trkpt><trkpt lat="45.5991717" lon="10.45006"><ele>210.5</ele><time>2026-03-22T10:08:10.184Z</time></trkpt><trkpt lat="45.5991167" lon="10.44997"><ele>210.33333333333331</ele><time>2026-03-22T10:08:11.185Z</time></trkpt><trkpt lat="45.599065" lon="10.4498867"><ele>210.16666666666666</ele><time>2026-03-22T10:08:12.185Z</time></trkpt><trkpt lat="45.5990233" lon="10.4498033"><ele>210.0</ele><time>2026-03-22T10:08:13.184Z</time></trkpt><trkpt lat="45.5989883" lon="10.4497283"><ele>209.8</ele><time>2026-03-22T10:08:14.186Z</time></trkpt><trkpt lat="45.5989667" lon="10.4495783"><ele>209.6</ele><time>2026-03-22T10:08:16.185Z</time></trkpt><trkpt lat="45.5989333" lon="10.449455"><ele>209.39999999999998</ele><time>2026-03-22T10:08:18.184Z</time></trkpt><trkpt lat="45.5988617" lon="10.4494117"><ele>209.2</ele><time>2026-03-22T10:08:20.185Z</time></trkpt><trkpt lat="45.5987533" lon="10.4493833"><ele>209.0</ele><time>2026-03-22T10:08:22.184Z</time></trkpt><trkpt lat="45.598695" lon="10.4493383"><ele>209.0</ele><time>2026-03-22T10:08:23.186Z</time></trkpt><trkpt lat="45.5986333" lon="10.4492667"><ele>209.0</ele><time>2026-03-22T10:08:24.185Z</time></trkpt><trkpt lat="45.5985533" lon="10.44914"><ele>209.0</ele><time>2026-03-22T10:08:25.184Z</time></trkpt><trkpt lat="45.598455" lon="10.4489717"><ele>209.0</ele><time>2026-03-22T10:08:26.185Z</time></trkpt><trkpt lat="45.598345" lon="10.4487933"><ele>209.0</ele><time>2026-03-22T10:08:27.184Z</time></trkpt><trkpt lat="45.598235" lon="10.44862"><ele>209.0</ele><time>2026-03-22T10:08:28.187Z</time></trkpt><trkpt lat="45.598125" lon="10.4484417"><ele>209.0</ele><time>2026-03-22T10:08:29.184Z</time></trkpt><trkpt lat="45.5980117" lon="10.44826"><ele>209.0</ele><time>2026-03-22T10:08:30.184Z</time></trkpt><trkpt lat="45.5979" lon="10.448065"><ele>209.0</ele><time>2026-03-22T10:08:31.185Z</time></trkpt><trkpt lat="45.5977833" lon="10.4478683"><ele>209.0</ele><time>2026-03-22T10:08:32.185Z</time></trkpt><trkpt lat="45.5976633" lon="10.44767"><ele>209.0</ele><time>2026-03-22T10:08:33.189Z</time></trkpt><trkpt lat="45.5975417" lon="10.4474783"><ele>209.0</ele><time>2026-03-22T10:08:34.185Z</time></trkpt><trkpt lat="45.597425" lon="10.4472867"><ele>209.0</ele><time>2026-03-22T10:08:35.184Z</time></trkpt><trkpt lat="45.59731" lon="10.447095"><ele>209.0</ele><time>2026-03-22T10:08:36.185Z</time></trkpt><trkpt lat="45.5971967" lon="10.4469083"><ele>209.0</ele><time>2026-03-22T10:08:37.186Z</time></trkpt><trkpt lat="45.597085" lon="10.446725"><ele>209.0</ele><time>2026-03-22T10:08:38.185Z</time></trkpt><trkpt lat="45.5969767" lon="10.4465583"><ele>208.75</ele><time>2026-03-22T10:08:39.185Z</time></trkpt><trkpt lat="45.5968733" lon="10.4464"><ele>208.5</ele><time>2026-03-22T10:08:40.186Z</time></trkpt><trkpt lat="45.5967733" lon="10.4462433"><ele>208.25</ele><time>2026-03-22T10:08:41.185Z</time></trkpt><trkpt lat="45.59668" lon="10.4460933"><ele>208.0</ele><time>2026-03-22T10:08:42.184Z</time></trkpt><trkpt lat="45.59659" lon="10.4459467"><ele>208.0</ele><time>2026-03-22T10:08:43.184Z</time></trkpt><trkpt lat="45.5965017" lon="10.4458033"><ele>208.0</ele><time>2026-03-22T10:08:44.185Z</time></trkpt><trkpt lat="45.596415" lon="10.4456617"><ele>208.0</ele><time>2026-03-22T10:08:45.186Z</time></trkpt><trkpt lat="45.5963283" lon="10.4455217"><ele>208.0</ele><time>2026-03-22T10:08:46.185Z</time></trkpt><trkpt lat="45.596245" lon="10.4453833"><ele>207.75</ele><time>2026-03-22T10:08:47.185Z</time></trkpt><trkpt lat="45.5961633" lon="10.4452483"><ele>207.5</ele><time>2026-03-22T10:08:48.185Z</time></trkpt><trkpt lat="45.59608" lon="10.445115"><ele>207.25</ele><time>2026-03-22T10:08:49.184Z</time></trkpt><trkpt lat="45.5959967" lon="10.4449817"><ele>207.0</ele><time>2026-03-22T10:08:50.185Z</time></trkpt><trkpt lat="45.5959117" lon="10.44485"><ele>207.0</ele><time>2026-03-22T10:08:51.184Z</time></trkpt><trkpt lat="45.5958267" lon="10.4447167"><ele>207.0</ele><time>2026-03-22T10:08:52.186Z</time></trkpt><trkpt lat="45.595745" lon="10.4445833"><ele>207.0</ele><time>2026-03-22T10:08:53.185Z</time></trkpt><trkpt lat="45.59567" lon="10.4444633"><ele>207.0</ele><time>2026-03-22T10:08:54.185Z</time></trkpt><trkpt lat="45.5956067" lon="10.4443617"><ele>207.0</ele><time>2026-03-22T10:08:55.185Z</time></trkpt><trkpt lat="45.5955483" lon="10.44427"><ele>207.0</ele><time>2026-03-22T10:08:56.186Z</time></trkpt><trkpt lat="45.5954933" lon="10.4441833"><ele>207.0</ele><time>2026-03-22T10:08:57.186Z</time></trkpt><trkpt lat="45.5954417" lon="10.4441033"><ele>207.0</ele><time>2026-03-22T10:08:58.184Z</time></trkpt><trkpt lat="45.5954017" lon="10.4440317"><ele>207.0</ele><time>2026-03-22T10:08:59.187Z</time></trkpt><trkpt lat="45.5953467" lon="10.443955"><ele>207.0</ele><time>2026-03-22T10:09:01.185Z</time></trkpt><trkpt lat="45.5953083" lon="10.443845"><ele>206.66666666666666</ele><time>2026-03-22T10:09:04.186Z</time></trkpt><trkpt lat="45.5953017" lon="10.4437283"><ele>206.33333333333331</ele><time>2026-03-22T10:09:06.185Z</time></trkpt><trkpt lat="45.59528" lon="10.4436317"><ele>206.0</ele><time>2026-03-22T10:09:08.185Z</time></trkpt><trkpt lat="45.595205" lon="10.4435733"><ele>205.66666666666666</ele><time>2026-03-22T10:09:10.185Z</time></trkpt><trkpt lat="45.5950933" lon="10.4435017"><ele>205.33333333333331</ele><time>2026-03-22T10:09:12.186Z</time></trkpt><trkpt lat="45.5950383" lon="10.4434317"><ele>205.0</ele><time>2026-03-22T10:09:13.184Z</time></trkpt><trkpt lat="45.5949833" lon="10.443355"><ele>204.99999999999997</ele><time>2026-03-22T10:09:14.185Z</time></trkpt><trkpt lat="45.5949317" lon="10.4432767"><ele>205.0</ele><time>2026-03-22T10:09:15.184Z</time></trkpt><trkpt lat="45.5948783" lon="10.4431983"><ele>205.0</ele><time>2026-03-22T10:09:16.186Z</time></trkpt><trkpt lat="45.5948217" lon="10.4431167"><ele>205.0</ele><time>2026-03-22T10:09:17.184Z</time></trkpt><trkpt lat="45.5947683" lon="10.4430417"><ele>204.99999999999997</ele><time>2026-03-22T10:09:18.184Z</time></trkpt><trkpt lat="45.5947083" lon="10.44297"><ele>205.0</ele><time>2026-03-22T10:09:19.185Z</time></trkpt><trkpt lat="45.594635" lon="10.4428933"><ele>205.0</ele><time>2026-03-22T10:09:20.185Z</time></trkpt><trkpt lat="45.5945533" lon="10.4428217"><ele>205.0</ele><time>2026-03-22T10:09:21.184Z</time></trkpt><trkpt lat="45.59447" lon="10.4427567"><ele>205.0</ele><time>2026-03-22T10:09:22.184Z</time></trkpt><trkpt lat="45.5943867" lon="10.4426933"><ele>205.0</ele><time>2026-03-22T10:09:23.184Z</time></trkpt><trkpt lat="45.5943" lon="10.4426317"><ele>205.0</ele><time>2026-03-22T10:09:24.186Z</time></trkpt><trkpt lat="45.59421" lon="10.44257"><ele>205.0</ele><time>2026-03-22T10:09:25.187Z</time></trkpt><trkpt lat="45.5941183" lon="10.44251"><ele>205.0</ele><time>2026-03-22T10:09:26.186Z</time></trkpt><trkpt lat="45.5940283" lon="10.4424483"><ele>205.0</ele><time>2026-03-22T10:09:27.185Z</time></trkpt><trkpt lat="45.59394" lon="10.4423867"><ele>205.0</ele><time>2026-03-22T10:09:28.185Z</time></trkpt><trkpt lat="45.593855" lon="10.442325"><ele>205.0</ele><time>2026-03-22T10:09:29.185Z</time></trkpt><trkpt lat="45.5937667" lon="10.442265"><ele>205.0</ele><time>2026-03-22T10:09:30.186Z</time></trkpt><trkpt lat="45.5936783" lon="10.442205"><ele>205.0</ele><time>2026-03-22T10:09:31.185Z</time></trkpt><trkpt lat="45.5935883" lon="10.4421417"><ele>205.0</ele><time>2026-03-22T10:09:32.186Z</time></trkpt><trkpt lat="45.5934967" lon="10.4420783"><ele>205.0</ele><time>2026-03-22T10:09:33.185Z</time></trkpt><trkpt lat="45.59341" lon="10.4420167"><ele>205.0</ele><time>2026-03-22T10:09:34.185Z</time></trkpt><trkpt lat="45.59333" lon="10.44196"><ele>204.66666666666666</ele><time>2026-03-22T10:09:35.185Z</time></trkpt><trkpt lat="45.5932583" lon="10.4419083"><ele>204.33333333333331</ele><time>2026-03-22T10:09:36.185Z</time></trkpt><trkpt lat="45.59319" lon="10.4418633"><ele>204.0</ele><time>2026-03-22T10:09:37.185Z</time></trkpt><trkpt lat="45.5931233" lon="10.4418217"><ele>203.66666666666669</ele><time>2026-03-22T10:09:38.185Z</time></trkpt><trkpt lat="45.5930483" lon="10.4417767"><ele>203.33333333333334</ele><time>2026-03-22T10:09:39.185Z</time></trkpt><trkpt lat="45.5929633" lon="10.4417217"><ele>203.0</ele><time>2026-03-22T10:09:40.184Z</time></trkpt><trkpt lat="45.5928433" lon="10.4416417"><ele>203.33333333333334</ele><time>2026-03-22T10:09:41.184Z</time></trkpt><trkpt lat="45.59269" lon="10.4415333"><ele>203.66666666666669</ele><time>2026-03-22T10:09:42.185Z</time></trkpt><trkpt lat="45.5925317" lon="10.44142"><ele>204.0</ele><time>2026-03-22T10:09:43.193Z</time></trkpt><trkpt lat="45.5923833" lon="10.4413167"><ele>203.33333333333331</ele><time>2026-03-22T10:09:44.186Z</time></trkpt><trkpt lat="45.5922433" lon="10.4412183"><ele>202.66666666666666</ele><time>2026-03-22T10:09:45.184Z</time></trkpt><trkpt lat="45.5921067" lon="10.441125"><ele>202.0</ele><time>2026-03-22T10:09:46.184Z</time></trkpt><trkpt lat="45.5919633" lon="10.44103"><ele>202.0</ele><time>2026-03-22T10:09:47.185Z</time></trkpt><trkpt lat="45.5918233" lon="10.4409417"><ele>202.0</ele><time>2026-03-22T10:09:48.184Z</time></trkpt><trkpt lat="45.5916917" lon="10.4408583"><ele>202.0</ele><time>2026-03-22T10:09:49.185Z</time></trkpt><trkpt lat="45.5915767" lon="10.4407833"><ele>202.0</ele><time>2026-03-22T10:09:50.187Z</time></trkpt><trkpt lat="45.591475" lon="10.440715"><ele>202.0</ele><time>2026-03-22T10:09:51.185Z</time></trkpt><trkpt lat="45.5913867" lon="10.44064"><ele>202.0</ele><time>2026-03-22T10:09:52.186Z</time></trkpt><trkpt lat="45.591315" lon="10.440555"><ele>202.0</ele><time>2026-03-22T10:09:53.184Z</time></trkpt><trkpt lat="45.59125" lon="10.44047"><ele>202.0</ele><time>2026-03-22T10:09:54.184Z</time></trkpt><trkpt lat="45.5911783" lon="10.440405"><ele>202.0</ele><time>2026-03-22T10:09:55.184Z</time></trkpt><trkpt lat="45.5910883" lon="10.4403483"><ele>201.66666666666666</ele><time>2026-03-22T10:09:56.186Z</time></trkpt><trkpt lat="45.5909517" lon="10.4402917"><ele>201.33333333333331</ele><time>2026-03-22T10:09:57.185Z</time></trkpt><trkpt lat="45.5908017" lon="10.4402083"><ele>201.0</ele><time>2026-03-22T10:09:58.184Z</time></trkpt><trkpt lat="45.59064" lon="10.4401067"><ele>201.0</ele><time>2026-03-22T10:09:59.184Z</time></trkpt><trkpt lat="45.59048" lon="10.4400067"><ele>201.0</ele><time>2026-03-22T10:10:00.185Z</time></trkpt><trkpt lat="45.590335" lon="10.4399133"><ele>201.0</ele><time>2026-03-22T10:10:01.184Z</time></trkpt><trkpt lat="45.5901983" lon="10.439825"><ele>201.0</ele><time>2026-03-22T10:10:02.186Z</time></trkpt><trkpt lat="45.59007" lon="10.4397383"><ele>201.0</ele><time>2026-03-22T10:10:03.185Z</time></trkpt><trkpt lat="45.58994" lon="10.439655"><ele>201.0</ele><time>2026-03-22T10:10:04.184Z</time></trkpt><trkpt lat="45.5898083" lon="10.439565"><ele>201.0</ele><time>2026-03-22T10:10:05.188Z</time></trkpt><trkpt lat="45.5896833" lon="10.4394683"><ele>201.0</ele><time>2026-03-22T10:10:06.186Z</time></trkpt><trkpt lat="45.5895617" lon="10.4393817"><ele>201.0</ele><time>2026-03-22T10:10:07.184Z</time></trkpt><trkpt lat="45.5894417" lon="10.4392933"><ele>201.0</ele><time>2026-03-22T10:10:08.185Z</time></trkpt><trkpt lat="45.58932" lon="10.43921"><ele>201.0</ele><time>2026-03-22T10:10:09.186Z</time></trkpt><trkpt lat="45.5891967" lon="10.439125"><ele>201.25</ele><time>2026-03-22T10:10:10.184Z</time></trkpt><trkpt lat="45.5890733" lon="10.4390433"><ele>201.5</ele><time>2026-03-22T10:10:11.185Z</time></trkpt><trkpt lat="45.5889467" lon="10.4389583"><ele>201.75</ele><time>2026-03-22T10:10:12.185Z</time></trkpt><trkpt lat="45.58882" lon="10.4388733"><ele>202.0</ele><time>2026-03-22T10:10:13.185Z</time></trkpt><trkpt lat="45.5886967" lon="10.43879"><ele>202.0</ele><time>2026-03-22T10:10:14.186Z</time></trkpt><trkpt lat="45.58858" lon="10.438715"><ele>202.0</ele><time>2026-03-22T10:10:15.184Z</time></trkpt><trkpt lat="45.588465" lon="10.43864"><ele>202.0</ele><time>2026-03-22T10:10:16.184Z</time></trkpt><trkpt lat="45.58835" lon="10.4385633"><ele>202.0</ele><time>2026-03-22T10:10:17.184Z</time></trkpt><trkpt lat="45.588235" lon="10.438485"><ele>202.0</ele><time>2026-03-22T10:10:18.185Z</time></trkpt><trkpt lat="45.58812" lon="10.43841"><ele>202.0</ele><time>2026-03-22T10:10:19.184Z</time></trkpt><trkpt lat="45.5880067" lon="10.4383333"><ele>202.0</ele><time>2026-03-22T10:10:20.186Z</time></trkpt><trkpt lat="45.5878933" lon="10.438255"><ele>202.0</ele><time>2026-03-22T10:10:21.185Z</time></trkpt><trkpt lat="45.58778" lon="10.4381767"><ele>201.75</ele><time>2026-03-22T10:10:22.184Z</time></trkpt><trkpt lat="45.5876633" lon="10.4380983"><ele>201.5</ele><time>2026-03-22T10:10:23.184Z</time></trkpt><trkpt lat="45.5875483" lon="10.438025"><ele>201.25</ele><time>2026-03-22T10:10:24.185Z</time></trkpt><trkpt lat="45.58743" lon="10.4379633"><ele>201.0</ele><time>2026-03-22T10:10:25.184Z</time></trkpt><trkpt lat="45.587305" lon="10.4379133"><ele>201.0</ele><time>2026-03-22T10:10:26.184Z</time></trkpt><trkpt lat="45.587175" lon="10.437875"><ele>201.0</ele><time>2026-03-22T10:10:27.185Z</time></trkpt><trkpt lat="45.5870483" lon="10.4378417"><ele>201.0</ele><time>2026-03-22T10:10:28.185Z</time></trkpt><trkpt lat="45.586925" lon="10.4378133"><ele>201.0</ele><time>2026-03-22T10:10:29.185Z</time></trkpt><trkpt lat="45.5868067" lon="10.4377867"><ele>201.0</ele><time>2026-03-22T10:10:30.184Z</time></trkpt><trkpt lat="45.586695" lon="10.4377667"><ele>201.0</ele><time>2026-03-22T10:10:31.187Z</time></trkpt><trkpt lat="45.58659" lon="10.4377467"><ele>201.0</ele><time>2026-03-22T10:10:32.186Z</time></trkpt><trkpt lat="45.5864883" lon="10.43773"><ele>201.0</ele><time>2026-03-22T10:10:33.184Z</time></trkpt><trkpt lat="45.5864" lon="10.437715"><ele>201.0</ele><time>2026-03-22T10:10:34.184Z</time></trkpt><trkpt lat="45.5863317" lon="10.4377033"><ele>201.0</ele><time>2026-03-22T10:10:35.185Z</time></trkpt><trkpt lat="45.5862533" lon="10.4377067"><ele>201.0</ele><time>2026-03-22T10:10:40.185Z</time></trkpt><trkpt lat="45.5861033" lon="10.4376933"><ele>201.0</ele><time>2026-03-22T10:10:42.186Z</time></trkpt><trkpt lat="45.5859883" lon="10.4376767"><ele>201.0</ele><time>2026-03-22T10:10:43.186Z</time></trkpt><trkpt lat="45.5858667" lon="10.437665"><ele>201.0</ele><time>2026-03-22T10:10:44.186Z</time></trkpt><trkpt lat="45.585745" lon="10.43765"><ele>201.0</ele><time>2026-03-22T10:10:45.184Z</time></trkpt><trkpt lat="45.585625" lon="10.43764"><ele>201.0</ele><time>2026-03-22T10:10:46.186Z</time></trkpt><trkpt lat="45.5855083" lon="10.4376217"><ele>201.0</ele><time>2026-03-22T10:10:47.185Z</time></trkpt><trkpt lat="45.5853917" lon="10.4375967"><ele>201.0</ele><time>2026-03-22T10:10:48.185Z</time></trkpt><trkpt lat="45.5852917" lon="10.4375583"><ele>201.0</ele><time>2026-03-22T10:10:49.184Z</time></trkpt><trkpt lat="45.58521" lon="10.437505"><ele>201.0</ele><time>2026-03-22T10:10:50.185Z</time></trkpt><trkpt lat="45.5851383" lon="10.4374317"><ele>201.0</ele><time>2026-03-22T10:10:51.184Z</time></trkpt><trkpt lat="45.5850733" lon="10.4373567"><ele>201.0</ele><time>2026-03-22T10:10:52.184Z</time></trkpt><trkpt lat="45.5850317" lon="10.4372317"><ele>201.0</ele><time>2026-03-22T10:10:53.185Z</time></trkpt><trkpt lat="45.5849917" lon="10.4370983"><ele>201.0</ele><time>2026-03-22T10:10:54.185Z</time></trkpt><trkpt lat="45.5849533" lon="10.436965"><ele>201.0</ele><time>2026-03-22T10:10:55.184Z</time></trkpt><trkpt lat="45.584915" lon="10.4368433"><ele>201.0</ele><time>2026-03-22T10:10:56.186Z</time></trkpt><trkpt lat="45.5848817" lon="10.4367233"><ele>201.0</ele><time>2026-03-22T10:10:57.185Z</time></trkpt><trkpt lat="45.5848333" lon="10.4366183"><ele>201.0</ele><time>2026-03-22T10:10:58.187Z</time></trkpt><trkpt lat="45.5847717" lon="10.4365317"><ele>201.0</ele><time>2026-03-22T10:10:59.184Z</time></trkpt><trkpt lat="45.5847133" lon="10.4364567"><ele>201.0</ele><time>2026-03-22T10:11:00.186Z</time></trkpt><trkpt lat="45.5846483" lon="10.4364083"><ele>201.0</ele><time>2026-03-22T10:11:01.185Z</time></trkpt><trkpt lat="45.5845783" lon="10.43638"><ele>201.0</ele><time>2026-03-22T10:11:02.185Z</time></trkpt><trkpt lat="45.5845017" lon="10.4363733"><ele>201.0</ele><time>2026-03-22T10:11:03.184Z</time></trkpt><trkpt lat="45.5844283" lon="10.436385"><ele>201.66666666666666</ele><time>2026-03-22T10:11:04.184Z</time></trkpt><trkpt lat="45.58436" lon="10.4364117"><ele>202.33333333333331</ele><time>2026-03-22T10:11:05.185Z</time></trkpt><trkpt lat="45.5842883" lon="10.4364483"><ele>203.0</ele><time>2026-03-22T10:11:06.185Z</time></trkpt><trkpt lat="45.5842117" lon="10.4364783"><ele>203.66666666666666</ele><time>2026-03-22T10:11:07.188Z</time></trkpt><trkpt lat="45.58413" lon="10.4365167"><ele>204.33333333333331</ele><time>2026-03-22T10:11:08.185Z</time></trkpt><trkpt lat="45.58404" lon="10.436555"><ele>205.0</ele><time>2026-03-22T10:11:09.186Z</time></trkpt><trkpt lat="45.58395" lon="10.43661"><ele>205.0</ele><time>2026-03-22T10:11:10.184Z</time></trkpt><trkpt lat="45.5838517" lon="10.4366617"><ele>205.0</ele><time>2026-03-22T10:11:11.185Z</time></trkpt><trkpt lat="45.5837533" lon="10.43671"><ele>205.0</ele><time>2026-03-22T10:11:12.187Z</time></trkpt><trkpt lat="45.583655" lon="10.4367517"><ele>205.0</ele><time>2026-03-22T10:11:13.187Z</time></trkpt><trkpt lat="45.5835583" lon="10.4368017"><ele>205.0</ele><time>2026-03-22T10:11:14.187Z</time></trkpt><trkpt lat="45.5834617" lon="10.43686"><ele>205.4</ele><time>2026-03-22T10:11:15.187Z</time></trkpt><trkpt lat="45.58336" lon="10.4369167"><ele>205.8</ele><time>2026-03-22T10:11:16.185Z</time></trkpt><trkpt lat="45.583255" lon="10.4369783"><ele>206.2</ele><time>2026-03-22T10:11:17.186Z</time></trkpt><trkpt lat="45.5831483" lon="10.4370367"><ele>206.6</ele><time>2026-03-22T10:11:18.187Z</time></trkpt><trkpt lat="45.5830433" lon="10.4370833"><ele>207.0</ele><time>2026-03-22T10:11:19.187Z</time></trkpt><trkpt lat="45.5829383" lon="10.437135"><ele>206.2</ele><time>2026-03-22T10:11:20.187Z</time></trkpt><trkpt lat="45.582845" lon="10.4371567"><ele>205.39999999999998</ele><time>2026-03-22T10:11:21.185Z</time></trkpt><trkpt lat="45.5827517" lon="10.437185"><ele>204.60000000000002</ele><time>2026-03-22T10:11:22.186Z</time></trkpt><trkpt lat="45.5826517" lon="10.43721"><ele>203.8</ele><time>2026-03-22T10:11:23.186Z</time></trkpt><trkpt lat="45.5825583" lon="10.4372333"><ele>203.0</ele><time>2026-03-22T10:11:24.187Z</time></trkpt><trkpt lat="45.5823633" lon="10.4372683"><ele>203.0</ele><time>2026-03-22T10:11:26.186Z</time></trkpt><trkpt lat="45.58226" lon="10.4372683"><ele>203.0</ele><time>2026-03-22T10:11:27.186Z</time></trkpt><trkpt lat="45.582155" lon="10.4372733"><ele>203.0</ele><time>2026-03-22T10:11:28.186Z</time></trkpt><trkpt lat="45.5820467" lon="10.4372883"><ele>203.0</ele><time>2026-03-22T10:11:29.189Z</time></trkpt><trkpt lat="45.581935" lon="10.4373033"><ele>203.0</ele><time>2026-03-22T10:11:30.187Z</time></trkpt><trkpt lat="45.581825" lon="10.4373183"><ele>202.4</ele><time>2026-03-22T10:11:31.186Z</time></trkpt><trkpt lat="45.581715" lon="10.4373317"><ele>201.8</ele><time>2026-03-22T10:11:32.187Z</time></trkpt><trkpt lat="45.5816083" lon="10.437345"><ele>201.2</ele><time>2026-03-22T10:11:33.187Z</time></trkpt><trkpt lat="45.5815033" lon="10.43735"><ele>200.6</ele><time>2026-03-22T10:11:34.187Z</time></trkpt><trkpt lat="45.5813967" lon="10.437355"><ele>200.0</ele><time>2026-03-22T10:11:35.192Z</time></trkpt><trkpt lat="45.58129" lon="10.437365"><ele>200.0</ele><time>2026-03-22T10:11:36.186Z</time></trkpt><trkpt lat="45.5811833" lon="10.4373683"><ele>200.0</ele><time>2026-03-22T10:11:37.185Z</time></trkpt><trkpt lat="45.58108" lon="10.4373567"><ele>200.0</ele><time>2026-03-22T10:11:38.19Z</time></trkpt><trkpt lat="45.5809833" lon="10.437345"><ele>200.0</ele><time>2026-03-22T10:11:39.185Z</time></trkpt><trkpt lat="45.5808967" lon="10.43734"><ele>200.0</ele><time>2026-03-22T10:11:40.187Z</time></trkpt><trkpt lat="45.5808283" lon="10.43733"><ele>200.0</ele><time>2026-03-22T10:11:41.187Z</time></trkpt><trkpt lat="45.5807667" lon="10.4373"><ele>200.0</ele><time>2026-03-22T10:11:42.186Z</time></trkpt><trkpt lat="45.58069" lon="10.4371567"><ele>200.0</ele><time>2026-03-22T10:11:44.186Z</time></trkpt><trkpt lat="45.580675" lon="10.4370283"><ele>200.0</ele><time>2026-03-22T10:11:45.186Z</time></trkpt><trkpt lat="45.5806467" lon="10.4369017"><ele>200.0</ele><time>2026-03-22T10:11:46.185Z</time></trkpt><trkpt lat="45.5806233" lon="10.436735"><ele>200.5</ele><time>2026-03-22T10:11:47.187Z</time></trkpt><trkpt lat="45.5805983" lon="10.4365583"><ele>201.0</ele><time>2026-03-22T10:11:48.187Z</time></trkpt><trkpt lat="45.580575" lon="10.436365"><ele>201.5</ele><time>2026-03-22T10:11:49.186Z</time></trkpt><trkpt lat="45.5805517" lon="10.43618"><ele>202.0</ele><time>2026-03-22T10:11:50.189Z</time></trkpt><trkpt lat="45.58052" lon="10.436005"><ele>202.25</ele><time>2026-03-22T10:11:51.187Z</time></trkpt><trkpt lat="45.5804717" lon="10.43585"><ele>202.5</ele><time>2026-03-22T10:11:52.185Z</time></trkpt><trkpt lat="45.58041" lon="10.4356967"><ele>202.75</ele><time>2026-03-22T10:11:53.185Z</time></trkpt><trkpt lat="45.580335" lon="10.435545"><ele>203.0</ele><time>2026-03-22T10:11:54.185Z</time></trkpt><trkpt lat="45.5802417" lon="10.4353983"><ele>203.75</ele><time>2026-03-22T10:11:55.186Z</time></trkpt><trkpt lat="45.580145" lon="10.43525"><ele>204.5</ele><time>2026-03-22T10:11:56.185Z</time></trkpt><trkpt lat="45.580055" lon="10.4351017"><ele>205.25</ele><time>2026-03-22T10:11:57.185Z</time></trkpt><trkpt lat="45.5799717" lon="10.43495"><ele>206.0</ele><time>2026-03-22T10:11:58.187Z</time></trkpt><trkpt lat="45.579895" lon="10.434795"><ele>206.0</ele><time>2026-03-22T10:11:59.186Z</time></trkpt><trkpt lat="45.5798233" lon="10.4346383"><ele>206.0</ele><time>2026-03-22T10:12:00.188Z</time></trkpt><trkpt lat="45.5797533" lon="10.4344867"><ele>206.0</ele><time>2026-03-22T10:12:01.19Z</time></trkpt><trkpt lat="45.5796867" lon="10.4343417"><ele>206.0</ele><time>2026-03-22T10:12:02.186Z</time></trkpt><trkpt lat="45.5796283" lon="10.4342117"><ele>206.8</ele><time>2026-03-22T10:12:03.186Z</time></trkpt><trkpt lat="45.57958" lon="10.4340933"><ele>207.60000000000002</ele><time>2026-03-22T10:12:04.186Z</time></trkpt><trkpt lat="45.579545" lon="10.4339917"><ele>208.4</ele><time>2026-03-22T10:12:05.186Z</time></trkpt><trkpt lat="45.57954" lon="10.4338367"><ele>209.2</ele><time>2026-03-22T10:12:07.186Z</time></trkpt><trkpt lat="45.579595" lon="10.4337183"><ele>210.0</ele><time>2026-03-22T10:12:09.186Z</time></trkpt><trkpt lat="45.5796567" lon="10.4336433"><ele>210.4</ele><time>2026-03-22T10:12:10.186Z</time></trkpt><trkpt lat="45.5797267" lon="10.4335583"><ele>210.8</ele><time>2026-03-22T10:12:11.186Z</time></trkpt><trkpt lat="45.57983" lon="10.433465"><ele>211.2</ele><time>2026-03-22T10:12:12.186Z</time></trkpt><trkpt lat="45.5799217" lon="10.4333817"><ele>211.6</ele><time>2026-03-22T10:12:13.185Z</time></trkpt><trkpt lat="45.58001" lon="10.433305"><ele>212.0</ele><time>2026-03-22T10:12:14.185Z</time></trkpt><trkpt lat="45.5801" lon="10.4332267"><ele>212.0</ele><time>2026-03-22T10:12:15.186Z</time></trkpt><trkpt lat="45.5802" lon="10.4331517"><ele>212.0</ele><time>2026-03-22T10:12:16.187Z</time></trkpt><trkpt lat="45.5803017" lon="10.4330833"><ele>212.0</ele><time>2026-03-22T10:12:17.185Z</time></trkpt><trkpt lat="45.580405" lon="10.4330267"><ele>212.0</ele><time>2026-03-22T10:12:18.187Z</time></trkpt><trkpt lat="45.5805117" lon="10.4329833"><ele>212.0</ele><time>2026-03-22T10:12:19.185Z</time></trkpt><trkpt lat="45.5806217" lon="10.4329467"><ele>213.8</ele><time>2026-03-22T10:12:20.187Z</time></trkpt><trkpt lat="45.58072" lon="10.4329033"><ele>215.6</ele><time>2026-03-22T10:12:21.186Z</time></trkpt><trkpt lat="45.5808083" lon="10.4328283"><ele>217.40000000000003</ele><time>2026-03-22T10:12:22.187Z</time></trkpt><trkpt lat="45.58089" lon="10.4327283"><ele>219.20000000000002</ele><time>2026-03-22T10:12:23.187Z</time></trkpt><trkpt lat="45.5809733" lon="10.4326133"><ele>221.0</ele><time>2026-03-22T10:12:24.187Z</time></trkpt><trkpt lat="45.5810583" lon="10.432495"><ele>221.0</ele><time>2026-03-22T10:12:25.185Z</time></trkpt><trkpt lat="45.58115" lon="10.4323767"><ele>221.0</ele><time>2026-03-22T10:12:26.185Z</time></trkpt><trkpt lat="45.58124" lon="10.4322633"><ele>221.0</ele><time>2026-03-22T10:12:27.185Z</time></trkpt><trkpt lat="45.5813383" lon="10.4321617"><ele>221.0</ele><time>2026-03-22T10:12:28.186Z</time></trkpt><trkpt lat="45.5814367" lon="10.43206"><ele>224.25</ele><time>2026-03-22T10:12:29.186Z</time></trkpt><trkpt lat="45.581535" lon="10.4319733"><ele>227.5</ele><time>2026-03-22T10:12:30.185Z</time></trkpt><trkpt lat="45.5816433" lon="10.4319033"><ele>230.75</ele><time>2026-03-22T10:12:31.185Z</time></trkpt><trkpt lat="45.5817583" lon="10.4318367"><ele>234.0</ele><time>2026-03-22T10:12:32.19Z</time></trkpt><trkpt lat="45.5818883" lon="10.4317817"><ele>238.75</ele><time>2026-03-22T10:12:33.185Z</time></trkpt><trkpt lat="45.58203" lon="10.43174"><ele>243.5</ele><time>2026-03-22T10:12:34.187Z</time></trkpt><trkpt lat="45.5821667" lon="10.4316917"><ele>248.25</ele><time>2026-03-22T10:12:35.189Z</time></trkpt><trkpt lat="45.5822917" lon="10.4316433"><ele>253.0</ele><time>2026-03-22T10:12:36.185Z</time></trkpt><trkpt lat="45.5823983" lon="10.4316017"><ele>253.0</ele><time>2026-03-22T10:12:37.186Z</time></trkpt><trkpt lat="45.5824783" lon="10.4315783"><ele>253.0</ele><time>2026-03-22T10:12:38.187Z</time></trkpt><trkpt lat="45.582545" lon="10.4315733"><ele>253.0</ele><time>2026-03-22T10:12:39.186Z</time></trkpt><trkpt lat="45.5826083" lon="10.4316633"><ele>253.0</ele><time>2026-03-22T10:12:41.185Z</time></trkpt><trkpt lat="45.582545" lon="10.4318533"><ele>253.0</ele><time>2026-03-22T10:12:43.185Z</time></trkpt><trkpt lat="45.5825" lon="10.431995"><ele>253.0</ele><time>2026-03-22T10:12:44.185Z</time></trkpt><trkpt lat="45.582455" lon="10.4321267"><ele>253.0</ele><time>2026-03-22T10:12:45.185Z</time></trkpt><trkpt lat="45.5824283" lon="10.43224"><ele>253.0</ele><time>2026-03-22T10:12:46.186Z</time></trkpt><trkpt lat="45.582405" lon="10.4323417"><ele>253.0</ele><time>2026-03-22T10:12:47.186Z</time></trkpt><trkpt lat="45.5824683" lon="10.432445"><ele>253.0</ele><time>2026-03-22T10:12:49.185Z</time></trkpt><trkpt lat="45.5826" lon="10.432455"><ele>255.25</ele><time>2026-03-22T10:12:51.185Z</time></trkpt><trkpt lat="45.5826683" lon="10.4324583"><ele>257.5</ele><time>2026-03-22T10:12:52.187Z</time></trkpt><trkpt lat="45.58281" lon="10.4324033"><ele>259.75</ele><time>2026-03-22T10:12:53.187Z</time></trkpt><trkpt lat="45.5829717" lon="10.4323267"><ele>262.0</ele><time>2026-03-22T10:12:54.187Z</time></trkpt><trkpt lat="45.5831067" lon="10.4322867"><ele>264.2</ele><time>2026-03-22T10:12:55.186Z</time></trkpt><trkpt lat="45.5832267" lon="10.4322567"><ele>266.4</ele><time>2026-03-22T10:12:56.187Z</time></trkpt><trkpt lat="45.5833317" lon="10.4322233"><ele>268.6</ele><time>2026-03-22T10:12:57.187Z</time></trkpt><trkpt lat="45.583415" lon="10.432185"><ele>270.8</ele><time>2026-03-22T10:12:58.186Z</time></trkpt><trkpt lat="45.5834833" lon="10.4321483"><ele>273.0</ele><time>2026-03-22T10:12:59.185Z</time></trkpt><trkpt lat="45.5835517" lon="10.4320217"><ele>273.42857142857144</ele><time>2026-03-22T10:13:01.185Z</time></trkpt><trkpt lat="45.58357" lon="10.43193"><ele>273.8571428571429</ele><time>2026-03-22T10:13:02.186Z</time></trkpt><trkpt lat="45.5835983" lon="10.4318283"><ele>274.2857142857143</ele><time>2026-03-22T10:13:03.186Z</time></trkpt><trkpt lat="45.583635" lon="10.43172"><ele>274.7142857142857</ele><time>2026-03-22T10:13:04.186Z</time></trkpt><trkpt lat="45.5836783" lon="10.4316233"><ele>275.14285714285717</ele><time>2026-03-22T10:13:05.187Z</time></trkpt><trkpt lat="45.5837267" lon="10.4315517"><ele>275.57142857142856</ele><time>2026-03-22T10:13:06.186Z</time></trkpt><trkpt lat="45.5837833" lon="10.4314933"><ele>276.0</ele><time>2026-03-22T10:13:07.187Z</time></trkpt><trkpt lat="45.58386" lon="10.4314767"><ele>278.2</ele><time>2026-03-22T10:13:08.186Z</time></trkpt><trkpt lat="45.583945" lon="10.431505"><ele>280.40000000000003</ele><time>2026-03-22T10:13:09.187Z</time></trkpt><trkpt lat="45.5840367" lon="10.431525"><ele>282.6</ele><time>2026-03-22T10:13:10.185Z</time></trkpt><trkpt lat="45.5841183" lon="10.431515"><ele>284.8</ele><time>2026-03-22T10:13:11.185Z</time></trkpt><trkpt lat="45.5841967" lon="10.43146"><ele>287.0</ele><time>2026-03-22T10:13:12.186Z</time></trkpt><trkpt lat="45.584285" lon="10.43138"><ele>288.5</ele><time>2026-03-22T10:13:13.185Z</time></trkpt><trkpt lat="45.5843517" lon="10.4313017"><ele>290.0</ele><time>2026-03-22T10:13:14.186Z</time></trkpt><trkpt lat="45.584395" lon="10.4312267"><ele>291.5</ele><time>2026-03-22T10:13:15.185Z</time></trkpt><trkpt lat="45.5844" lon="10.4311233"><ele>293.0</ele><time>2026-03-22T10:13:16.187Z</time></trkpt><trkpt lat="45.58439" lon="10.4310017"><ele>294.5</ele><time>2026-03-22T10:13:17.189Z</time></trkpt><trkpt lat="45.58436" lon="10.430855"><ele>296.0</ele><time>2026-03-22T10:13:18.187Z</time></trkpt><trkpt lat="45.5843333" lon="10.4306917"><ele>296.0</ele><time>2026-03-22T10:13:19.187Z</time></trkpt><trkpt lat="45.5843183" lon="10.4305083"><ele>296.0</ele><time>2026-03-22T10:13:20.187Z</time></trkpt><trkpt lat="45.5843183" lon="10.4302967"><ele>296.0</ele><time>2026-03-22T10:13:21.186Z</time></trkpt><trkpt lat="45.58432" lon="10.4300683"><ele>296.0</ele><time>2026-03-22T10:13:22.186Z</time></trkpt><trkpt lat="45.5843167" lon="10.42984"><ele>302.0</ele><time>2026-03-22T10:13:23.186Z</time></trkpt><trkpt lat="45.584315" lon="10.4296133"><ele>308.0</ele><time>2026-03-22T10:13:24.185Z</time></trkpt><trkpt lat="45.5843117" lon="10.4294"><ele>314.0</ele><time>2026-03-22T10:13:25.185Z</time></trkpt><trkpt lat="45.5843" lon="10.4292067"><ele>320.0</ele><time>2026-03-22T10:13:26.185Z</time></trkpt><trkpt lat="45.5842767" lon="10.42903"><ele>320.0</ele><time>2026-03-22T10:13:27.185Z</time></trkpt><trkpt lat="45.5842317" lon="10.428875"><ele>320.0</ele><time>2026-03-22T10:13:28.185Z</time></trkpt><trkpt lat="45.584195" lon="10.428755"><ele>320.0</ele><time>2026-03-22T10:13:29.186Z</time></trkpt><trkpt lat="45.5841733" lon="10.4286533"><ele>320.0</ele><time>2026-03-22T10:13:30.187Z</time></trkpt><trkpt lat="45.5841917" lon="10.4285033"><ele>320.0</ele><time>2026-03-22T10:13:32.187Z</time></trkpt><trkpt lat="45.5843217" lon="10.4284883"><ele>322.8</ele><time>2026-03-22T10:13:34.186Z</time></trkpt><trkpt lat="45.5844167" lon="10.42852"><ele>325.6</ele><time>2026-03-22T10:13:35.185Z</time></trkpt><trkpt lat="45.584535" lon="10.428565"><ele>328.4</ele><time>2026-03-22T10:13:36.186Z</time></trkpt><trkpt lat="45.5846433" lon="10.4286117"><ele>331.2</ele><time>2026-03-22T10:13:37.185Z</time></trkpt><trkpt lat="45.584745" lon="10.4286433"><ele>334.0</ele><time>2026-03-22T10:13:38.187Z</time></trkpt><trkpt lat="45.5848317" lon="10.4286467"><ele>336.0</ele><time>2026-03-22T10:13:39.185Z</time></trkpt><trkpt lat="45.5849233" lon="10.4286233"><ele>338.0</ele><time>2026-03-22T10:13:40.186Z</time></trkpt><trkpt lat="45.58502" lon="10.4285283"><ele>340.0</ele><time>2026-03-22T10:13:41.185Z</time></trkpt><trkpt lat="45.58512" lon="10.4284183"><ele>342.0</ele><time>2026-03-22T10:13:42.186Z</time></trkpt><trkpt lat="45.5852133" lon="10.4283017"><ele>342.0</ele><time>2026-03-22T10:13:43.185Z</time></trkpt><trkpt lat="45.5852967" lon="10.4281733"><ele>342.0</ele><time>2026-03-22T10:13:44.186Z</time></trkpt><trkpt lat="45.5853617" lon="10.428075"><ele>342.0</ele><time>2026-03-22T10:13:45.187Z</time></trkpt><trkpt lat="45.58541" lon="10.4279733"><ele>342.0</ele><time>2026-03-22T10:13:46.186Z</time></trkpt><trkpt lat="45.5854433" lon="10.427865"><ele>342.0</ele><time>2026-03-22T10:13:47.186Z</time></trkpt><trkpt lat="45.585455" lon="10.4277467"><ele>341.0</ele><time>2026-03-22T10:13:48.185Z</time></trkpt><trkpt lat="45.5854517" lon="10.42762"><ele>340.0</ele><time>2026-03-22T10:13:49.185Z</time></trkpt><trkpt lat="45.5854433" lon="10.4274683"><ele>339.0</ele><time>2026-03-22T10:13:50.187Z</time></trkpt><trkpt lat="45.585435" lon="10.427305"><ele>338.0</ele><time>2026-03-22T10:13:51.187Z</time></trkpt><trkpt lat="45.585425" lon="10.4271467"><ele>337.0</ele><time>2026-03-22T10:13:52.186Z</time></trkpt><trkpt lat="45.5854133" lon="10.4270117"><ele>338.66666666666663</ele><time>2026-03-22T10:13:53.185Z</time></trkpt><trkpt lat="45.5853983" lon="10.42691"><ele>340.3333333333333</ele><time>2026-03-22T10:13:54.186Z</time></trkpt><trkpt lat="45.5853267" lon="10.4268033"><ele>342.0</ele><time>2026-03-22T10:13:56.188Z</time></trkpt><trkpt lat="45.58526" lon="10.4267983"><ele>343.6666666666667</ele><time>2026-03-22T10:13:57.185Z</time></trkpt><trkpt lat="45.5851867" lon="10.426805"><ele>345.33333333333337</ele><time>2026-03-22T10:13:58.186Z</time></trkpt><trkpt lat="45.5850983" lon="10.4268167"><ele>347.0</ele><time>2026-03-22T10:13:59.186Z</time></trkpt><trkpt lat="45.58501" lon="10.4267983"><ele>351.0</ele><time>2026-03-22T10:14:00.185Z</time></trkpt><trkpt lat="45.584915" lon="10.4267517"><ele>355.0</ele><time>2026-03-22T10:14:01.189Z</time></trkpt><trkpt lat="45.5847967" lon="10.4266633"><ele>359.0</ele><time>2026-03-22T10:14:02.189Z</time></trkpt><trkpt lat="45.5846717" lon="10.4265583"><ele>363.0</ele><time>2026-03-22T10:14:03.185Z</time></trkpt><trkpt lat="45.584545" lon="10.4264367"><ele>370.33333333333337</ele><time>2026-03-22T10:14:04.185Z</time></trkpt><trkpt lat="45.5844233" lon="10.4263067"><ele>377.6666666666667</ele><time>2026-03-22T10:14:05.185Z</time></trkpt><trkpt lat="45.5843033" lon="10.4261717"><ele>385.0</ele><time>2026-03-22T10:14:06.185Z</time></trkpt><trkpt lat="45.584185" lon="10.4260367"><ele>385.0</ele><time>2026-03-22T10:14:07.186Z</time></trkpt><trkpt lat="45.5840767" lon="10.4258983"><ele>385.0</ele><time>2026-03-22T10:14:08.186Z</time></trkpt><trkpt lat="45.58398" lon="10.4257583"><ele>385.0</ele><time>2026-03-22T10:14:09.187Z</time></trkpt><trkpt lat="45.5838833" lon="10.4256167"><ele>385.0</ele><time>2026-03-22T10:14:10.186Z</time></trkpt><trkpt lat="45.5837783" lon="10.4254667"><ele>389.33333333333337</ele><time>2026-03-22T10:14:11.186Z</time></trkpt><trkpt lat="45.5836683" lon="10.4253"><ele>393.66666666666663</ele><time>2026-03-22T10:14:12.185Z</time></trkpt><trkpt lat="45.58354" lon="10.4251233"><ele>398.0</ele><time>2026-03-22T10:14:13.185Z</time></trkpt><trkpt lat="45.5834033" lon="10.424915"><ele>398.0</ele><time>2026-03-22T10:14:14.186Z</time></trkpt><trkpt lat="45.58327" lon="10.4247283"><ele>398.0</ele><time>2026-03-22T10:14:15.186Z</time></trkpt><trkpt lat="45.5831517" lon="10.424545"><ele>398.0</ele><time>2026-03-22T10:14:16.186Z</time></trkpt><trkpt lat="45.5830367" lon="10.4243667"><ele>400.75</ele><time>2026-03-22T10:14:17.186Z</time></trkpt><trkpt lat="45.5829283" lon="10.4242017"><ele>403.5</ele><time>2026-03-22T10:14:18.187Z</time></trkpt><trkpt lat="45.5828267" lon="10.42405"><ele>406.25</ele><time>2026-03-22T10:14:19.187Z</time></trkpt><trkpt lat="45.5827267" lon="10.4239083"><ele>409.0</ele><time>2026-03-22T10:14:20.188Z</time></trkpt><trkpt lat="45.5826283" lon="10.42376"><ele>412.1666666666667</ele><time>2026-03-22T10:14:21.187Z</time></trkpt><trkpt lat="45.5825467" lon="10.4236633"><ele>415.33333333333337</ele><time>2026-03-22T10:14:22.186Z</time></trkpt><trkpt lat="45.5824733" lon="10.4235883"><ele>418.5</ele><time>2026-03-22T10:14:23.187Z</time></trkpt><trkpt lat="45.582405" lon="10.42353"><ele>421.66666666666663</ele><time>2026-03-22T10:14:24.186Z</time></trkpt><trkpt lat="45.5823433" lon="10.4234783"><ele>424.8333333333333</ele><time>2026-03-22T10:14:25.185Z</time></trkpt><trkpt lat="45.582295" lon="10.42336"><ele>428.0</ele><time>2026-03-22T10:14:27.185Z</time></trkpt><trkpt lat="45.5823183" lon="10.4232517"><ele>428.0</ele><time>2026-03-22T10:14:29.186Z</time></trkpt><trkpt lat="45.58246" lon="10.4231983"><ele>428.0</ele><time>2026-03-22T10:14:31.187Z</time></trkpt><trkpt lat="45.5826067" lon="10.4231967"><ele>428.0</ele><time>2026-03-22T10:14:32.187Z</time></trkpt><trkpt lat="45.5827533" lon="10.4231817"><ele>428.0</ele><time>2026-03-22T10:14:33.185Z</time></trkpt><trkpt lat="45.5828933" lon="10.423145"><ele>429.25</ele><time>2026-03-22T10:14:34.186Z</time></trkpt><trkpt lat="45.5830333" lon="10.4230917"><ele>430.5</ele><time>2026-03-22T10:14:35.185Z</time></trkpt><trkpt lat="45.58316" lon="10.42302"><ele>431.75</ele><time>2026-03-22T10:14:36.185Z</time></trkpt><trkpt lat="45.5832683" lon="10.4229283"><ele>433.0</ele><time>2026-03-22T10:14:37.186Z</time></trkpt><trkpt lat="45.5833533" lon="10.42281"><ele>436.25</ele><time>2026-03-22T10:14:38.186Z</time></trkpt><trkpt lat="45.5834333" lon="10.4226783"><ele>439.5</ele><time>2026-03-22T10:14:39.186Z</time></trkpt><trkpt lat="45.583515" lon="10.422535"><ele>442.75</ele><time>2026-03-22T10:14:40.186Z</time></trkpt><trkpt lat="45.5836067" lon="10.4223933"><ele>446.0</ele><time>2026-03-22T10:14:41.185Z</time></trkpt><trkpt lat="45.5836933" lon="10.4222583"><ele>446.3333333333333</ele><time>2026-03-22T10:14:42.185Z</time></trkpt><trkpt lat="45.5837683" lon="10.4221283"><ele>446.66666666666663</ele><time>2026-03-22T10:14:43.186Z</time></trkpt><trkpt lat="45.5838317" lon="10.4220217"><ele>447.0</ele><time>2026-03-22T10:14:44.188Z</time></trkpt><trkpt lat="45.5838967" lon="10.4219483"><ele>447.33333333333337</ele><time>2026-03-22T10:14:45.186Z</time></trkpt><trkpt lat="45.5839617" lon="10.4219267"><ele>447.6666666666667</ele><time>2026-03-22T10:14:46.186Z</time></trkpt><trkpt lat="45.5840417" lon="10.42192"><ele>448.0</ele><time>2026-03-22T10:14:47.186Z</time></trkpt><trkpt lat="45.584165" lon="10.4219783"><ele>448.0</ele><time>2026-03-22T10:14:48.186Z</time></trkpt><trkpt lat="45.5842983" lon="10.42202"><ele>448.0</ele><time>2026-03-22T10:14:49.186Z</time></trkpt><trkpt lat="45.58443" lon="10.4220383"><ele>448.0</ele><time>2026-03-22T10:14:50.185Z</time></trkpt><trkpt lat="45.5845517" lon="10.4220233"><ele>448.0</ele><time>2026-03-22T10:14:51.185Z</time></trkpt><trkpt lat="45.5846417" lon="10.4219817"><ele>449.5</ele><time>2026-03-22T10:14:52.186Z</time></trkpt><trkpt lat="45.58472" lon="10.4219117"><ele>451.0</ele><time>2026-03-22T10:14:53.185Z</time></trkpt><trkpt lat="45.5847967" lon="10.4218017"><ele>452.5</ele><time>2026-03-22T10:14:54.185Z</time></trkpt><trkpt lat="45.58489" lon="10.4216767"><ele>454.0</ele><time>2026-03-22T10:14:55.189Z</time></trkpt><trkpt lat="45.5850033" lon="10.4215567"><ele>454.0</ele><time>2026-03-22T10:14:56.188Z</time></trkpt><trkpt lat="45.5851417" lon="10.4214233"><ele>454.0</ele><time>2026-03-22T10:14:57.187Z</time></trkpt><trkpt lat="45.585285" lon="10.421295"><ele>454.0</ele><time>2026-03-22T10:14:58.189Z</time></trkpt><trkpt lat="45.585425" lon="10.4211717"><ele>458.0</ele><time>2026-03-22T10:14:59.191Z</time></trkpt><trkpt lat="45.585565" lon="10.421075"><ele>462.0</ele><time>2026-03-22T10:15:00.187Z</time></trkpt><trkpt lat="45.5857133" lon="10.4209883"><ele>466.0</ele><time>2026-03-22T10:15:01.191Z</time></trkpt><trkpt lat="45.5858717" lon="10.4209033"><ele>466.0</ele><time>2026-03-22T10:15:02.187Z</time></trkpt><trkpt lat="45.5860317" lon="10.4208217"><ele>466.0</ele><time>2026-03-22T10:15:03.188Z</time></trkpt><trkpt lat="45.5861867" lon="10.4207367"><ele>466.0</ele><time>2026-03-22T10:15:04.187Z</time></trkpt><trkpt lat="45.58633" lon="10.4206583"><ele>468.20000000000005</ele><time>2026-03-22T10:15:05.188Z</time></trkpt><trkpt lat="45.58645" lon="10.42058"><ele>470.40000000000003</ele><time>2026-03-22T10:15:06.185Z</time></trkpt><trkpt lat="45.5865533" lon="10.42051"><ele>472.6</ele><time>2026-03-22T10:15:07.185Z</time></trkpt><trkpt lat="45.5866183" lon="10.4204567"><ele>474.8</ele><time>2026-03-22T10:15:08.187Z</time></trkpt><trkpt lat="45.586675" lon="10.4203833"><ele>477.0</ele><time>2026-03-22T10:15:09.188Z</time></trkpt><trkpt lat="45.586715" lon="10.4202617"><ele>478.75</ele><time>2026-03-22T10:15:10.187Z</time></trkpt><trkpt lat="45.586735" lon="10.4201117"><ele>480.5</ele><time>2026-03-22T10:15:11.187Z</time></trkpt><trkpt lat="45.5867267" lon="10.4198567"><ele>482.25</ele><time>2026-03-22T10:15:12.188Z</time></trkpt><trkpt lat="45.586755" lon="10.41963"><ele>484.0</ele><time>2026-03-22T10:15:13.185Z</time></trkpt><trkpt lat="45.5867833" lon="10.4194183"><ele>485.75</ele><time>2026-03-22T10:15:14.186Z</time></trkpt><trkpt lat="45.5867967" lon="10.4192183"><ele>487.5</ele><time>2026-03-22T10:15:15.186Z</time></trkpt><trkpt lat="45.5867933" lon="10.4190383"><ele>489.25</ele><time>2026-03-22T10:15:16.187Z</time></trkpt><trkpt lat="45.586775" lon="10.4188967"><ele>491.0</ele><time>2026-03-22T10:15:17.187Z</time></trkpt><trkpt lat="45.5867383" lon="10.41878"><ele>492.5</ele><time>2026-03-22T10:15:18.188Z</time></trkpt><trkpt lat="45.5866633" lon="10.4187"><ele>494.0</ele><time>2026-03-22T10:15:19.187Z</time></trkpt><trkpt lat="45.5865483" lon="10.4186383"><ele>495.5</ele><time>2026-03-22T10:15:20.187Z</time></trkpt><trkpt lat="45.5863883" lon="10.4185617"><ele>497.0</ele><time>2026-03-22T10:15:21.186Z</time></trkpt><trkpt lat="45.5861983" lon="10.4184733"><ele>499.66666666666663</ele><time>2026-03-22T10:15:22.189Z</time></trkpt><trkpt lat="45.5860267" lon="10.4183833"><ele>502.33333333333337</ele><time>2026-03-22T10:15:23.188Z</time></trkpt><trkpt lat="45.5858767" lon="10.4183167"><ele>505.0</ele><time>2026-03-22T10:15:24.187Z</time></trkpt><trkpt lat="45.5857383" lon="10.4182467"><ele>505.0</ele><time>2026-03-22T10:15:25.188Z</time></trkpt><trkpt lat="45.5856083" lon="10.418165"><ele>505.0</ele><time>2026-03-22T10:15:26.187Z</time></trkpt><trkpt lat="45.58549" lon="10.4180533"><ele>505.0</ele><time>2026-03-22T10:15:27.187Z</time></trkpt><trkpt lat="45.5853817" lon="10.4179233"><ele>505.0</ele><time>2026-03-22T10:15:28.187Z</time></trkpt><trkpt lat="45.585275" lon="10.417765"><ele>505.0</ele><time>2026-03-22T10:15:29.185Z</time></trkpt><trkpt lat="45.5851783" lon="10.417585"><ele>505.0</ele><time>2026-03-22T10:15:30.185Z</time></trkpt><trkpt lat="45.5850833" lon="10.417395"><ele>505.0</ele><time>2026-03-22T10:15:31.185Z</time></trkpt><trkpt lat="45.584995" lon="10.4171967"><ele>505.6666666666667</ele><time>2026-03-22T10:15:32.185Z</time></trkpt><trkpt lat="45.5848967" lon="10.41701"><ele>506.33333333333337</ele><time>2026-03-22T10:15:33.185Z</time></trkpt><trkpt lat="45.5848033" lon="10.41682"><ele>507.0</ele><time>2026-03-22T10:15:34.185Z</time></trkpt><trkpt lat="45.5847217" lon="10.41662"><ele>507.0</ele><time>2026-03-22T10:15:35.185Z</time></trkpt><trkpt lat="45.58464" lon="10.4164217"><ele>507.0</ele><time>2026-03-22T10:15:36.185Z</time></trkpt><trkpt lat="45.5845583" lon="10.41623"><ele>507.0</ele><time>2026-03-22T10:15:37.186Z</time></trkpt><trkpt lat="45.5844733" lon="10.41604"><ele>509.0</ele><time>2026-03-22T10:15:38.185Z</time></trkpt><trkpt lat="45.5843867" lon="10.4158617"><ele>511.0</ele><time>2026-03-22T10:15:39.185Z</time></trkpt><trkpt lat="45.5843017" lon="10.415715"><ele>513.0</ele><time>2026-03-22T10:15:40.185Z</time></trkpt><trkpt lat="45.5842183" lon="10.415605"><ele>515.0</ele><time>2026-03-22T10:15:41.186Z</time></trkpt><trkpt lat="45.5841383" lon="10.41552"><ele>517.1666666666666</ele><time>2026-03-22T10:15:42.186Z</time></trkpt><trkpt lat="45.5840583" lon="10.4154583"><ele>519.3333333333333</ele><time>2026-03-22T10:15:43.185Z</time></trkpt><trkpt lat="45.5839767" lon="10.4154083"><ele>521.5</ele><time>2026-03-22T10:15:44.185Z</time></trkpt><trkpt lat="45.5839083" lon="10.4153583"><ele>523.6666666666666</ele><time>2026-03-22T10:15:45.185Z</time></trkpt><trkpt lat="45.5838433" lon="10.41532"><ele>525.8333333333334</ele><time>2026-03-22T10:15:46.185Z</time></trkpt><trkpt lat="45.58378" lon="10.4152733"><ele>528.0</ele><time>2026-03-22T10:15:47.186Z</time></trkpt><trkpt lat="45.58371" lon="10.41521"><ele>528.5</ele><time>2026-03-22T10:15:48.188Z</time></trkpt><trkpt lat="45.583645" lon="10.415115"><ele>529.0</ele><time>2026-03-22T10:15:49.187Z</time></trkpt><trkpt lat="45.58358" lon="10.4149533"><ele>529.5</ele><time>2026-03-22T10:15:50.187Z</time></trkpt><trkpt lat="45.583515" lon="10.4147833"><ele>530.0</ele><time>2026-03-22T10:15:51.187Z</time></trkpt><trkpt lat="45.583445" lon="10.414635"><ele>532.3333333333333</ele><time>2026-03-22T10:15:52.186Z</time></trkpt><trkpt lat="45.58339" lon="10.4145267"><ele>534.6666666666666</ele><time>2026-03-22T10:15:53.188Z</time></trkpt><trkpt lat="45.5833517" lon="10.4144483"><ele>537.0</ele><time>2026-03-22T10:15:54.187Z</time></trkpt><trkpt lat="45.583315" lon="10.414365"><ele>539.3333333333334</ele><time>2026-03-22T10:15:56.188Z</time></trkpt><trkpt lat="45.58324" lon="10.4143017"><ele>541.6666666666667</ele><time>2026-03-22T10:15:58.191Z</time></trkpt><trkpt lat="45.583175" lon="10.4142433"><ele>544.0</ele><time>2026-03-22T10:15:59.186Z</time></trkpt><trkpt lat="45.5830867" lon="10.4141633"><ele>544.0</ele><time>2026-03-22T10:16:00.186Z</time></trkpt><trkpt lat="45.583015" lon="10.414075"><ele>544.0</ele><time>2026-03-22T10:16:01.185Z</time></trkpt><trkpt lat="45.5829417" lon="10.4139833"><ele>544.0</ele><time>2026-03-22T10:16:02.185Z</time></trkpt><trkpt lat="45.58287" lon="10.413875"><ele>544.0</ele><time>2026-03-22T10:16:03.186Z</time></trkpt><trkpt lat="45.5828033" lon="10.41376"><ele>544.0</ele><time>2026-03-22T10:16:04.185Z</time></trkpt><trkpt lat="45.582745" lon="10.4136317"><ele>544.4</ele><time>2026-03-22T10:16:05.185Z</time></trkpt><trkpt lat="45.5826983" lon="10.4134867"><ele>544.8</ele><time>2026-03-22T10:16:06.185Z</time></trkpt><trkpt lat="45.5826633" lon="10.41334"><ele>545.2</ele><time>2026-03-22T10:16:07.185Z</time></trkpt><trkpt lat="45.582635" lon="10.4132083"><ele>545.6</ele><time>2026-03-22T10:16:08.188Z</time></trkpt><trkpt lat="45.5826133" lon="10.4130717"><ele>546.0</ele><time>2026-03-22T10:16:09.186Z</time></trkpt><trkpt lat="45.582595" lon="10.4129383"><ele>548.6</ele><time>2026-03-22T10:16:10.185Z</time></trkpt><trkpt lat="45.58258" lon="10.412795"><ele>551.2</ele><time>2026-03-22T10:16:11.185Z</time></trkpt><trkpt lat="45.5825683" lon="10.41265"><ele>553.8</ele><time>2026-03-22T10:16:12.187Z</time></trkpt><trkpt lat="45.5825567" lon="10.4125083"><ele>556.4</ele><time>2026-03-22T10:16:13.185Z</time></trkpt><trkpt lat="45.582555" lon="10.4123783"><ele>559.0</ele><time>2026-03-22T10:16:14.185Z</time></trkpt><trkpt lat="45.58256" lon="10.4122533"><ele>561.3333333333334</ele><time>2026-03-22T10:16:15.186Z</time></trkpt><trkpt lat="45.58256" lon="10.41214"><ele>563.6666666666667</ele><time>2026-03-22T10:16:16.186Z</time></trkpt><trkpt lat="45.582565" lon="10.4120233"><ele>566.0</ele><time>2026-03-22T10:16:17.188Z</time></trkpt><trkpt lat="45.5825617" lon="10.4119"><ele>568.3333333333334</ele><time>2026-03-22T10:16:18.189Z</time></trkpt><trkpt lat="45.5825433" lon="10.4117817"><ele>570.6666666666666</ele><time>2026-03-22T10:16:19.187Z</time></trkpt><trkpt lat="45.582525" lon="10.4116567"><ele>573.0</ele><time>2026-03-22T10:16:20.187Z</time></trkpt><trkpt lat="45.5825083" lon="10.411535"><ele>573.0</ele><time>2026-03-22T10:16:21.185Z</time></trkpt><trkpt lat="45.5824933" lon="10.411425"><ele>573.0</ele><time>2026-03-22T10:16:22.186Z</time></trkpt><trkpt lat="45.5824767" lon="10.4113217"><ele>573.0</ele><time>2026-03-22T10:16:23.186Z</time></trkpt><trkpt lat="45.5824533" lon="10.4112333"><ele>573.0</ele><time>2026-03-22T10:16:24.185Z</time></trkpt><trkpt lat="45.5823883" lon="10.4112067"><ele>573.0</ele><time>2026-03-22T10:16:25.186Z</time></trkpt><trkpt lat="45.5823217" lon="10.41118"><ele>573.0</ele><time>2026-03-22T10:16:26.186Z</time></trkpt><trkpt lat="45.5822467" lon="10.411175"><ele>573.0</ele><time>2026-03-22T10:16:27.187Z</time></trkpt><trkpt lat="45.5821633" lon="10.41119"><ele>574.8</ele><time>2026-03-22T10:16:28.185Z</time></trkpt><trkpt lat="45.582065" lon="10.4112083"><ele>576.5999999999999</ele><time>2026-03-22T10:16:29.185Z</time></trkpt><trkpt lat="45.5819683" lon="10.41121"><ele>578.4000000000001</ele><time>2026-03-22T10:16:30.185Z</time></trkpt><trkpt lat="45.5818617" lon="10.4111867"><ele>580.2</ele><time>2026-03-22T10:16:31.185Z</time></trkpt><trkpt lat="45.5817533" lon="10.4111533"><ele>582.0</ele><time>2026-03-22T10:16:32.186Z</time></trkpt><trkpt lat="45.5816517" lon="10.4111117"><ele>582.0</ele><time>2026-03-22T10:16:33.185Z</time></trkpt><trkpt lat="45.5815567" lon="10.411055"><ele>582.0</ele><time>2026-03-22T10:16:34.186Z</time></trkpt><trkpt lat="45.5814733" lon="10.4109917"><ele>582.0</ele><time>2026-03-22T10:16:35.185Z</time></trkpt><trkpt lat="45.5814083" lon="10.4109183"><ele>582.0</ele><time>2026-03-22T10:16:36.185Z</time></trkpt><trkpt lat="45.5813533" lon="10.4108233"><ele>582.0</ele><time>2026-03-22T10:16:37.185Z</time></trkpt><trkpt lat="45.5813067" lon="10.4107067"><ele>582.0</ele><time>2026-03-22T10:16:38.187Z</time></trkpt><trkpt lat="45.5812633" lon="10.410555"><ele>582.0</ele><time>2026-03-22T10:16:39.185Z</time></trkpt><trkpt lat="45.5812333" lon="10.4103967"><ele>582.0</ele><time>2026-03-22T10:16:40.186Z</time></trkpt><trkpt lat="45.58121" lon="10.4102383"><ele>582.0</ele><time>2026-03-22T10:16:41.185Z</time></trkpt><trkpt lat="45.5811967" lon="10.41009"><ele>582.0</ele><time>2026-03-22T10:16:42.185Z</time></trkpt><trkpt lat="45.5811883" lon="10.4099533"><ele>582.0</ele><time>2026-03-22T10:16:43.187Z</time></trkpt><trkpt lat="45.5811783" lon="10.4098133"><ele>582.0</ele><time>2026-03-22T10:16:44.185Z</time></trkpt><trkpt lat="45.5811617" lon="10.4096567"><ele>582.0</ele><time>2026-03-22T10:16:45.185Z</time></trkpt><trkpt lat="45.5811367" lon="10.40951"><ele>582.0</ele><time>2026-03-22T10:16:46.185Z</time></trkpt><trkpt lat="45.5811167" lon="10.409365"><ele>582.0</ele><time>2026-03-22T10:16:47.188Z</time></trkpt><trkpt lat="45.581105" lon="10.4092317"><ele>582.0</ele><time>2026-03-22T10:16:48.187Z</time></trkpt><trkpt lat="45.581105" lon="10.4091033"><ele>582.0</ele><time>2026-03-22T10:16:49.187Z</time></trkpt><trkpt lat="45.5811167" lon="10.408985"><ele>582.0</ele><time>2026-03-22T10:16:50.188Z</time></trkpt><trkpt lat="45.5811467" lon="10.4088567"><ele>582.0</ele><time>2026-03-22T10:16:51.187Z</time></trkpt><trkpt lat="45.58118" lon="10.4087267"><ele>582.0</ele><time>2026-03-22T10:16:52.188Z</time></trkpt><trkpt lat="45.5812167" lon="10.4086017"><ele>586.0</ele><time>2026-03-22T10:16:53.187Z</time></trkpt><trkpt lat="45.5812467" lon="10.408485"><ele>590.0</ele><time>2026-03-22T10:16:54.188Z</time></trkpt><trkpt lat="45.5812667" lon="10.4083667"><ele>594.0</ele><time>2026-03-22T10:16:55.187Z</time></trkpt><trkpt lat="45.5812833" lon="10.4082533"><ele>598.0</ele><time>2026-03-22T10:16:56.187Z</time></trkpt><trkpt lat="45.581285" lon="10.40813"><ele>602.0</ele><time>2026-03-22T10:16:57.187Z</time></trkpt><trkpt lat="45.5812917" lon="10.4080117"><ele>606.0</ele><time>2026-03-22T10:16:58.188Z</time></trkpt><trkpt lat="45.5812833" lon="10.4078933"><ele>606.0</ele><time>2026-03-22T10:16:59.187Z</time></trkpt><trkpt lat="45.58128" lon="10.4077783"><ele>606.0</ele><time>2026-03-22T10:17:00.188Z</time></trkpt><trkpt lat="45.5812817" lon="10.4076667"><ele>606.0</ele><time>2026-03-22T10:17:01.188Z</time></trkpt><trkpt lat="45.5813017" lon="10.4075633"><ele>606.0</ele><time>2026-03-22T10:17:02.188Z</time></trkpt><trkpt lat="45.581335" lon="10.4074667"><ele>606.0</ele><time>2026-03-22T10:17:03.188Z</time></trkpt><trkpt lat="45.5813767" lon="10.4073767"><ele>606.0</ele><time>2026-03-22T10:17:04.188Z</time></trkpt><trkpt lat="45.5814267" lon="10.4072783"><ele>606.0</ele><time>2026-03-22T10:17:05.186Z</time></trkpt><trkpt lat="45.5814867" lon="10.4071683"><ele>606.0</ele><time>2026-03-22T10:17:06.187Z</time></trkpt><trkpt lat="45.581545" lon="10.40704"><ele>606.0</ele><time>2026-03-22T10:17:07.189Z</time></trkpt><trkpt lat="45.581595" lon="10.406905"><ele>606.0</ele><time>2026-03-22T10:17:08.187Z</time></trkpt><trkpt lat="45.581635" lon="10.4067517"><ele>606.0</ele><time>2026-03-22T10:17:09.186Z</time></trkpt><trkpt lat="45.5816733" lon="10.406595"><ele>605.25</ele><time>2026-03-22T10:17:10.187Z</time></trkpt><trkpt lat="45.58172" lon="10.4064417"><ele>604.5</ele><time>2026-03-22T10:17:11.187Z</time></trkpt><trkpt lat="45.581775" lon="10.40629"><ele>603.75</ele><time>2026-03-22T10:17:12.188Z</time></trkpt><trkpt lat="45.5818267" lon="10.4061483"><ele>603.0</ele><time>2026-03-22T10:17:13.187Z</time></trkpt><trkpt lat="45.581885" lon="10.4060217"><ele>602.8</ele><time>2026-03-22T10:17:14.188Z</time></trkpt><trkpt lat="45.58193" lon="10.4059167"><ele>602.5999999999999</ele><time>2026-03-22T10:17:15.186Z</time></trkpt><trkpt lat="45.5819517" lon="10.40577"><ele>602.4000000000001</ele><time>2026-03-22T10:17:17.187Z</time></trkpt><trkpt lat="45.5819133" lon="10.40563"><ele>602.2</ele><time>2026-03-22T10:17:19.186Z</time></trkpt><trkpt lat="45.5818483" lon="10.405535"><ele>602.0</ele><time>2026-03-22T10:17:20.189Z</time></trkpt><trkpt lat="45.5817533" lon="10.4054433"><ele>605.3333333333333</ele><time>2026-03-22T10:17:21.186Z</time></trkpt><trkpt lat="45.58163" lon="10.4053333"><ele>608.6666666666666</ele><time>2026-03-22T10:17:22.188Z</time></trkpt><trkpt lat="45.5814967" lon="10.405215"><ele>612.0</ele><time>2026-03-22T10:17:23.187Z</time></trkpt><trkpt lat="45.5813767" lon="10.40509"><ele>612.0</ele><time>2026-03-22T10:17:24.187Z</time></trkpt><trkpt lat="45.581275" lon="10.4049767"><ele>612.0</ele><time>2026-03-22T10:17:25.187Z</time></trkpt><trkpt lat="45.581185" lon="10.4048417"><ele>612.0</ele><time>2026-03-22T10:17:26.188Z</time></trkpt><trkpt lat="45.5810933" lon="10.4047217"><ele>612.0</ele><time>2026-03-22T10:17:27.187Z</time></trkpt><trkpt lat="45.5809933" lon="10.40459"><ele>612.5</ele><time>2026-03-22T10:17:28.187Z</time></trkpt><trkpt lat="45.5809083" lon="10.4044483"><ele>613.0</ele><time>2026-03-22T10:17:29.187Z</time></trkpt><trkpt lat="45.5808267" lon="10.4043133"><ele>613.5</ele><time>2026-03-22T10:17:30.187Z</time></trkpt><trkpt lat="45.580755" lon="10.4041783"><ele>614.0</ele><time>2026-03-22T10:17:31.187Z</time></trkpt><trkpt lat="45.580695" lon="10.4040483"><ele>614.0</ele><time>2026-03-22T10:17:32.187Z</time></trkpt><trkpt lat="45.58065" lon="10.4039367"><ele>614.0</ele><time>2026-03-22T10:17:33.186Z</time></trkpt><trkpt lat="45.58062" lon="10.40383"><ele>614.0</ele><time>2026-03-22T10:17:34.188Z</time></trkpt><trkpt lat="45.5806017" lon="10.4037267"><ele>614.0</ele><time>2026-03-22T10:17:35.186Z</time></trkpt><trkpt lat="45.5805983" lon="10.4036167"><ele>614.0</ele><time>2026-03-22T10:17:36.186Z</time></trkpt><trkpt lat="45.5806017" lon="10.4035133"><ele>614.0</ele><time>2026-03-22T10:17:37.186Z</time></trkpt><trkpt lat="45.58062" lon="10.40341"><ele>616.0</ele><time>2026-03-22T10:17:38.188Z</time></trkpt><trkpt lat="45.5806817" lon="10.40328"><ele>618.0</ele><time>2026-03-22T10:17:40.187Z</time></trkpt><trkpt lat="45.5807917" lon="10.4032133"><ele>620.0</ele><time>2026-03-22T10:17:42.187Z</time></trkpt><trkpt lat="45.5808783" lon="10.4032267"><ele>622.0</ele><time>2026-03-22T10:17:43.185Z</time></trkpt><trkpt lat="45.5809817" lon="10.4032783"><ele>624.0</ele><time>2026-03-22T10:17:44.186Z</time></trkpt><trkpt lat="45.5810767" lon="10.4033717"><ele>624.0</ele><time>2026-03-22T10:17:45.186Z</time></trkpt><trkpt lat="45.58116" lon="10.4034217"><ele>624.0</ele><time>2026-03-22T10:17:46.185Z</time></trkpt><trkpt lat="45.58124" lon="10.4034667"><ele>624.0</ele><time>2026-03-22T10:17:47.186Z</time></trkpt><trkpt lat="45.5813167" lon="10.4035033"><ele>624.0</ele><time>2026-03-22T10:17:48.186Z</time></trkpt><trkpt lat="45.5813917" lon="10.40353"><ele>624.0</ele><time>2026-03-22T10:17:49.186Z</time></trkpt><trkpt lat="45.58146" lon="10.40354"><ele>624.0</ele><time>2026-03-22T10:17:50.188Z</time></trkpt><trkpt lat="45.5815567" lon="10.403475"><ele>626.1666666666666</ele><time>2026-03-22T10:17:52.186Z</time></trkpt><trkpt lat="45.5815283" lon="10.4033567"><ele>628.3333333333334</ele><time>2026-03-22T10:17:54.186Z</time></trkpt><trkpt lat="45.5814833" lon="10.4032833"><ele>630.5</ele><time>2026-03-22T10:17:55.194Z</time></trkpt><trkpt lat="45.58142" lon="10.40319"><ele>632.6666666666667</ele><time>2026-03-22T10:17:56.187Z</time></trkpt><trkpt lat="45.5813617" lon="10.4030867"><ele>634.8333333333334</ele><time>2026-03-22T10:17:57.186Z</time></trkpt><trkpt lat="45.5813033" lon="10.4029617"><ele>637.0</ele><time>2026-03-22T10:17:58.185Z</time></trkpt><trkpt lat="45.5812667" lon="10.4028333"><ele>636.4</ele><time>2026-03-22T10:17:59.187Z</time></trkpt><trkpt lat="45.5812417" lon="10.4027117"><ele>635.8000000000001</ele><time>2026-03-22T10:18:00.186Z</time></trkpt><trkpt lat="45.5812217" lon="10.402605"><ele>635.2</ele><time>2026-03-22T10:18:01.187Z</time></trkpt><trkpt lat="45.5812033" lon="10.402465"><ele>634.6</ele><time>2026-03-22T10:18:03.186Z</time></trkpt><trkpt lat="45.58112" lon="10.402375"><ele>634.0</ele><time>2026-03-22T10:18:13.187Z</time></trkpt><trkpt lat="45.5810333" lon="10.4023383"><ele>634.0</ele><time>2026-03-22T10:18:15.186Z</time></trkpt><trkpt lat="45.580965" lon="10.4023417"><ele>634.0</ele><time>2026-03-22T10:18:16.185Z</time></trkpt><trkpt lat="45.5808933" lon="10.4023683"><ele>634.0</ele><time>2026-03-22T10:18:17.186Z</time></trkpt><trkpt lat="45.5808233" lon="10.4024117"><ele>634.0</ele><time>2026-03-22T10:18:18.188Z</time></trkpt><trkpt lat="45.5807533" lon="10.402485"><ele>634.0</ele><time>2026-03-22T10:18:19.187Z</time></trkpt><trkpt lat="45.5806883" lon="10.402555"><ele>634.0</ele><time>2026-03-22T10:18:20.187Z</time></trkpt><trkpt lat="45.58063" lon="10.4026083"><ele>634.0</ele><time>2026-03-22T10:18:21.187Z</time></trkpt><trkpt lat="45.5805283" lon="10.4025817"><ele>634.0</ele><time>2026-03-22T10:18:23.187Z</time></trkpt><trkpt lat="45.58048" lon="10.4025067"><ele>634.0</ele><time>2026-03-22T10:18:24.187Z</time></trkpt><trkpt lat="45.5804167" lon="10.40244"><ele>634.0</ele><time>2026-03-22T10:18:25.186Z</time></trkpt><trkpt lat="45.580345" lon="10.4023517"><ele>634.0</ele><time>2026-03-22T10:18:26.186Z</time></trkpt><trkpt lat="45.580265" lon="10.4022133"><ele>635.4</ele><time>2026-03-22T10:18:27.186Z</time></trkpt><trkpt lat="45.5801817" lon="10.4020817"><ele>636.8</ele><time>2026-03-22T10:18:28.186Z</time></trkpt><trkpt lat="45.5800933" lon="10.40196"><ele>638.1999999999999</ele><time>2026-03-22T10:18:29.185Z</time></trkpt><trkpt lat="45.58002" lon="10.4018567"><ele>639.5999999999999</ele><time>2026-03-22T10:18:30.186Z</time></trkpt><trkpt lat="45.5799517" lon="10.4017783"><ele>641.0</ele><time>2026-03-22T10:18:31.186Z</time></trkpt><trkpt lat="45.5798983" lon="10.4017217"><ele>641.0</ele><time>2026-03-22T10:18:32.187Z</time></trkpt><trkpt lat="45.5797983" lon="10.4017117"><ele>641.0</ele><time>2026-03-22T10:18:34.186Z</time></trkpt><trkpt lat="45.5797267" lon="10.40177"><ele>641.0</ele><time>2026-03-22T10:18:35.186Z</time></trkpt><trkpt lat="45.5796333" lon="10.4018617"><ele>641.0</ele><time>2026-03-22T10:18:36.187Z</time></trkpt><trkpt lat="45.5795533" lon="10.4019233"><ele>641.0</ele><time>2026-03-22T10:18:37.187Z</time></trkpt><trkpt lat="45.579485" lon="10.4019817"><ele>641.5</ele><time>2026-03-22T10:18:38.186Z</time></trkpt><trkpt lat="45.5794267" lon="10.4020217"><ele>642.0</ele><time>2026-03-22T10:18:39.186Z</time></trkpt><trkpt lat="45.5793033" lon="10.4020217"><ele>642.5</ele><time>2026-03-22T10:18:41.186Z</time></trkpt><trkpt lat="45.579235" lon="10.4019917"><ele>643.0</ele><time>2026-03-22T10:18:42.187Z</time></trkpt><trkpt lat="45.5791717" lon="10.4019317"><ele>643.5</ele><time>2026-03-22T10:18:43.187Z</time></trkpt><trkpt lat="45.579125" lon="10.4018617"><ele>644.0</ele><time>2026-03-22T10:18:44.187Z</time></trkpt><trkpt lat="45.5791117" lon="10.40175"><ele>644.0</ele><time>2026-03-22T10:18:45.187Z</time></trkpt><trkpt lat="45.5790917" lon="10.4016517"><ele>644.0</ele><time>2026-03-22T10:18:46.186Z</time></trkpt><trkpt lat="45.5790717" lon="10.401545"><ele>644.0</ele><time>2026-03-22T10:18:47.186Z</time></trkpt><trkpt lat="45.57904" lon="10.4014383"><ele>644.0</ele><time>2026-03-22T10:18:48.189Z</time></trkpt><trkpt lat="45.5789917" lon="10.4013467"><ele>644.0</ele><time>2026-03-22T10:18:49.186Z</time></trkpt><trkpt lat="45.5789333" lon="10.4012517"><ele>644.0</ele><time>2026-03-22T10:18:50.187Z</time></trkpt><trkpt lat="45.5788617" lon="10.4011717"><ele>644.4000000000001</ele><time>2026-03-22T10:18:51.188Z</time></trkpt><trkpt lat="45.578765" lon="10.4011283"><ele>644.8</ele><time>2026-03-22T10:18:52.185Z</time></trkpt><trkpt lat="45.5786817" lon="10.4010967"><ele>645.2</ele><time>2026-03-22T10:18:53.187Z</time></trkpt><trkpt lat="45.5786067" lon="10.4010567"><ele>645.5999999999999</ele><time>2026-03-22T10:18:54.186Z</time></trkpt><trkpt lat="45.578535" lon="10.40102"><ele>646.0</ele><time>2026-03-22T10:18:55.187Z</time></trkpt><trkpt lat="45.5784483" lon="10.40089"><ele>646.0</ele><time>2026-03-22T10:18:57.186Z</time></trkpt><trkpt lat="45.5784283" lon="10.4007617"><ele>646.0</ele><time>2026-03-22T10:18:58.187Z</time></trkpt><trkpt lat="45.578425" lon="10.40061"><ele>646.0</ele><time>2026-03-22T10:18:59.186Z</time></trkpt><trkpt lat="45.578435" lon="10.40045"><ele>646.0</ele><time>2026-03-22T10:19:00.185Z</time></trkpt><trkpt lat="45.5784717" lon="10.4002967"><ele>646.0</ele><time>2026-03-22T10:19:01.188Z</time></trkpt><trkpt lat="45.578505" lon="10.4001217"><ele>646.0</ele><time>2026-03-22T10:19:02.186Z</time></trkpt><trkpt lat="45.5785333" lon="10.3999433"><ele>646.0</ele><time>2026-03-22T10:19:03.185Z</time></trkpt><trkpt lat="45.57856" lon="10.3997433"><ele>646.0</ele><time>2026-03-22T10:19:04.185Z</time></trkpt><trkpt lat="45.57859" lon="10.399535"><ele>646.0</ele><time>2026-03-22T10:19:05.185Z</time></trkpt><trkpt lat="45.578615" lon="10.3993317"><ele>646.25</ele><time>2026-03-22T10:19:06.186Z</time></trkpt><trkpt lat="45.5786317" lon="10.3991433"><ele>646.5</ele><time>2026-03-22T10:19:07.186Z</time></trkpt><trkpt lat="45.578635" lon="10.39896"><ele>646.75</ele><time>2026-03-22T10:19:08.186Z</time></trkpt><trkpt lat="45.5786233" lon="10.3987867"><ele>647.0</ele><time>2026-03-22T10:19:09.186Z</time></trkpt><trkpt lat="45.5785867" lon="10.3986117"><ele>648.5</ele><time>2026-03-22T10:19:10.185Z</time></trkpt><trkpt lat="45.578535" lon="10.39844"><ele>650.0</ele><time>2026-03-22T10:19:11.186Z</time></trkpt><trkpt lat="45.5784833" lon="10.3982817"><ele>651.5</ele><time>2026-03-22T10:19:12.187Z</time></trkpt><trkpt lat="45.5784333" lon="10.3981317"><ele>653.0</ele><time>2026-03-22T10:19:13.187Z</time></trkpt><trkpt lat="45.5783883" lon="10.3979883"><ele>653.5</ele><time>2026-03-22T10:19:14.186Z</time></trkpt><trkpt lat="45.5783467" lon="10.3978483"><ele>654.0</ele><time>2026-03-22T10:19:15.186Z</time></trkpt><trkpt lat="45.5783233" lon="10.397725"><ele>654.5</ele><time>2026-03-22T10:19:16.186Z</time></trkpt><trkpt lat="45.578315" lon="10.3976133"><ele>655.0</ele><time>2026-03-22T10:19:17.19Z</time></trkpt><trkpt lat="45.5783167" lon="10.397495"><ele>655.5</ele><time>2026-03-22T10:19:18.186Z</time></trkpt><trkpt lat="45.578335" lon="10.397375"><ele>656.0</ele><time>2026-03-22T10:19:19.186Z</time></trkpt><trkpt lat="45.57837" lon="10.397245"><ele>655.5999999999999</ele><time>2026-03-22T10:19:20.185Z</time></trkpt><trkpt lat="45.5784167" lon="10.3971167"><ele>655.2</ele><time>2026-03-22T10:19:21.186Z</time></trkpt><trkpt lat="45.57847" lon="10.3969967"><ele>654.8</ele><time>2026-03-22T10:19:22.186Z</time></trkpt><trkpt lat="45.578525" lon="10.3968867"><ele>654.4000000000001</ele><time>2026-03-22T10:19:23.186Z</time></trkpt><trkpt lat="45.57858" lon="10.3967783"><ele>654.0</ele><time>2026-03-22T10:19:24.188Z</time></trkpt><trkpt lat="45.578635" lon="10.3966933"><ele>655.3333333333334</ele><time>2026-03-22T10:19:25.187Z</time></trkpt><trkpt lat="45.5786917" lon="10.3966217"><ele>656.6666666666666</ele><time>2026-03-22T10:19:26.185Z</time></trkpt><trkpt lat="45.578755" lon="10.3965617"><ele>658.0</ele><time>2026-03-22T10:19:27.186Z</time></trkpt><trkpt lat="45.57882" lon="10.3965233"><ele>659.3333333333333</ele><time>2026-03-22T10:19:28.184Z</time></trkpt><trkpt lat="45.5789017" lon="10.3964517"><ele>660.6666666666666</ele><time>2026-03-22T10:19:30.185Z</time></trkpt><trkpt lat="45.5789283" lon="10.3963517"><ele>662.0</ele><time>2026-03-22T10:19:35.188Z</time></trkpt><trkpt lat="45.57896" lon="10.39624"><ele>662.0</ele><time>2026-03-22T10:19:37.186Z</time></trkpt><trkpt lat="45.578975" lon="10.3961083"><ele>662.0</ele><time>2026-03-22T10:19:39.186Z</time></trkpt><trkpt lat="45.578975" lon="10.3959917"><ele>662.0</ele><time>2026-03-22T10:19:41.187Z</time></trkpt><trkpt lat="45.5789533" lon="10.3958867"><ele>662.0</ele><time>2026-03-22T10:19:43.188Z</time></trkpt><trkpt lat="45.578925" lon="10.3957567"><ele>662.0</ele><time>2026-03-22T10:19:45.186Z</time></trkpt><trkpt lat="45.57888" lon="10.3956133"><ele>662.0</ele><time>2026-03-22T10:19:47.186Z</time></trkpt><trkpt lat="45.5788333" lon="10.3955333"><ele>662.0</ele><time>2026-03-22T10:19:48.186Z</time></trkpt><trkpt lat="45.578785" lon="10.39545"><ele>662.0</ele><time>2026-03-22T10:19:49.186Z</time></trkpt><trkpt lat="45.578745" lon="10.3953617"><ele>662.0</ele><time>2026-03-22T10:19:50.186Z</time></trkpt><trkpt lat="45.5787117" lon="10.39528"><ele>662.0</ele><time>2026-03-22T10:19:51.187Z</time></trkpt><trkpt lat="45.5786817" lon="10.3951967"><ele>662.0</ele><time>2026-03-22T10:19:52.186Z</time></trkpt><trkpt lat="45.5786467" lon="10.3951133"><ele>662.0</ele><time>2026-03-22T10:19:53.275Z</time></trkpt><trkpt lat="45.5786133" lon="10.3950233"><ele>661.8333333333333</ele><time>2026-03-22T10:19:54.187Z</time></trkpt><trkpt lat="45.5785817" lon="10.39493"><ele>661.6666666666666</ele><time>2026-03-22T10:19:55.186Z</time></trkpt><trkpt lat="45.5785467" lon="10.39483"><ele>661.5</ele><time>2026-03-22T10:19:56.188Z</time></trkpt><trkpt lat="45.578515" lon="10.3947333"><ele>661.3333333333334</ele><time>2026-03-22T10:19:57.186Z</time></trkpt><trkpt lat="45.5784883" lon="10.39463"><ele>661.1666666666667</ele><time>2026-03-22T10:19:58.186Z</time></trkpt><trkpt lat="45.5784583" lon="10.394535"><ele>661.0</ele><time>2026-03-22T10:19:59.188Z</time></trkpt><trkpt lat="45.5784267" lon="10.3944333"><ele>661.0</ele><time>2026-03-22T10:20:00.187Z</time></trkpt><trkpt lat="45.5783917" lon="10.3943233"><ele>661.0</ele><time>2026-03-22T10:20:01.186Z</time></trkpt><trkpt lat="45.5783567" lon="10.3942167"><ele>661.0</ele><time>2026-03-22T10:20:02.187Z</time></trkpt><trkpt lat="45.5783217" lon="10.3941117"><ele>661.0</ele><time>2026-03-22T10:20:03.187Z</time></trkpt><trkpt lat="45.57828" lon="10.3940017"><ele>661.0</ele><time>2026-03-22T10:20:04.188Z</time></trkpt><trkpt lat="45.57824" lon="10.3938967"><ele>661.0</ele><time>2026-03-22T10:20:05.186Z</time></trkpt><trkpt lat="45.5781967" lon="10.3938"><ele>661.3333333333334</ele><time>2026-03-22T10:20:06.187Z</time></trkpt><trkpt lat="45.5781583" lon="10.3937217"><ele>661.6666666666667</ele><time>2026-03-22T10:20:07.187Z</time></trkpt><trkpt lat="45.5781" lon="10.39359"><ele>662.0</ele><time>2026-03-22T10:20:09.186Z</time></trkpt><trkpt lat="45.5780573" lon="10.3934759"><ele>662.3333333333334</ele><time>2026-03-22T10:20:11.186Z</time></trkpt><trkpt lat="45.5780367" lon="10.3933849"><ele>662.6666666666666</ele><time>2026-03-22T10:20:13.186Z</time></trkpt><trkpt lat="45.5780339" lon="10.3932725"><ele>663.0</ele><time>2026-03-22T10:20:15.186Z</time></trkpt><trkpt lat="45.5780246" lon="10.3931323"><ele>663.6666666666666</ele><time>2026-03-22T10:20:17.187Z</time></trkpt><trkpt lat="45.578" lon="10.3930056"><ele>664.3333333333334</ele><time>2026-03-22T10:20:19.186Z</time></trkpt><trkpt lat="45.5779615" lon="10.3928823"><ele>665.0</ele><time>2026-03-22T10:20:21.186Z</time></trkpt><trkpt lat="45.57794" lon="10.3927554"><ele>665.6666666666667</ele><time>2026-03-22T10:20:23.187Z</time></trkpt><trkpt lat="45.5779288" lon="10.392655"><ele>666.3333333333334</ele><time>2026-03-22T10:20:25.187Z</time></trkpt><trkpt lat="45.577915" lon="10.3925353"><ele>667.0</ele><time>2026-03-22T10:20:28.185Z</time></trkpt><trkpt lat="45.5779483" lon="10.392435"><ele>667.0</ele><time>2026-03-22T10:24:10.185Z</time></trkpt><trkpt lat="45.577955" lon="10.3923067"><ele>667.0</ele><time>2026-03-22T10:24:13.185Z</time></trkpt><trkpt lat="45.5779217" lon="10.3922067"><ele>667.0</ele><time>2026-03-22T10:24:15.185Z</time></trkpt><trkpt lat="45.577875" lon="10.3921267"><ele>667.0</ele><time>2026-03-22T10:24:17.185Z</time></trkpt><trkpt lat="45.577795" lon="10.392005"><ele>667.0</ele><time>2026-03-22T10:24:19.185Z</time></trkpt><trkpt lat="45.5777167" lon="10.3918983"><ele>663.8</ele><time>2026-03-22T10:24:21.184Z</time></trkpt><trkpt lat="45.5776383" lon="10.3917933"><ele>660.6</ele><time>2026-03-22T10:24:23.184Z</time></trkpt><trkpt lat="45.577565" lon="10.3916733"><ele>657.4</ele><time>2026-03-22T10:24:25.186Z</time></trkpt><trkpt lat="45.5775067" lon="10.3915417"><ele>654.1999999999999</ele><time>2026-03-22T10:24:27.186Z</time></trkpt><trkpt lat="45.5774833" lon="10.391455"><ele>651.0</ele><time>2026-03-22T10:24:28.185Z</time></trkpt><trkpt lat="45.5774567" lon="10.3913617"><ele>651.5714285714286</ele><time>2026-03-22T10:24:29.186Z</time></trkpt><trkpt lat="45.5774367" lon="10.3912683"><ele>652.1428571428571</ele><time>2026-03-22T10:24:30.186Z</time></trkpt><trkpt lat="45.5774167" lon="10.3911717"><ele>652.7142857142858</ele><time>2026-03-22T10:24:31.185Z</time></trkpt><trkpt lat="45.5773983" lon="10.3910767"><ele>653.2857142857142</ele><time>2026-03-22T10:24:32.186Z</time></trkpt><trkpt lat="45.5773717" lon="10.3909783"><ele>653.8571428571429</ele><time>2026-03-22T10:24:33.185Z</time></trkpt><trkpt lat="45.577355" lon="10.390875"><ele>654.4285714285714</ele><time>2026-03-22T10:24:34.185Z</time></trkpt><trkpt lat="45.5773383" lon="10.39078"><ele>655.0</ele><time>2026-03-22T10:24:35.185Z</time></trkpt><trkpt lat="45.5773083" lon="10.3905967"><ele>655.0</ele><time>2026-03-22T10:24:37.185Z</time></trkpt><trkpt lat="45.5772733" lon="10.39052"><ele>655.0</ele><time>2026-03-22T10:24:38.185Z</time></trkpt><trkpt lat="45.57723" lon="10.390435"><ele>655.0</ele><time>2026-03-22T10:24:39.185Z</time></trkpt><trkpt lat="45.5771807" lon="10.3903654"><ele>655.0</ele><time>2026-03-22T10:24:40.185Z</time></trkpt><trkpt lat="45.5771259" lon="10.3902983"><ele>655.0</ele><time>2026-03-22T10:24:41.185Z</time></trkpt><trkpt lat="45.5770657" lon="10.3902311"><ele>655.0</ele><time>2026-03-22T10:24:42.185Z</time></trkpt><trkpt lat="45.5770046" lon="10.3901627"><ele>655.0</ele><time>2026-03-22T10:24:43.185Z</time></trkpt><trkpt lat="45.5769429" lon="10.390095"><ele>652.4</ele><time>2026-03-22T10:24:44.185Z</time></trkpt><trkpt lat="45.5768784" lon="10.3900131"><ele>649.8</ele><time>2026-03-22T10:24:45.185Z</time></trkpt><trkpt lat="45.5768273" lon="10.3899369"><ele>647.2</ele><time>2026-03-22T10:24:46.185Z</time></trkpt><trkpt lat="45.5767465" lon="10.389812"><ele>644.6</ele><time>2026-03-22T10:24:48.185Z</time></trkpt><trkpt lat="45.5766507" lon="10.3897275"><ele>642.0</ele><time>2026-03-22T10:24:50.186Z</time></trkpt><trkpt lat="45.5765794" lon="10.3896845"><ele>642.0</ele><time>2026-03-22T10:24:52.184Z</time></trkpt><trkpt lat="45.5765272" lon="10.38974"><ele>642.0</ele><time>2026-03-22T10:24:55.185Z</time></trkpt><trkpt lat="45.5764752" lon="10.3897912"><ele>642.0</ele><time>2026-03-22T10:25:04.186Z</time></trkpt><trkpt lat="45.5764539" lon="10.3898954"><ele>642.0</ele><time>2026-03-22T10:25:06.187Z</time></trkpt><trkpt lat="45.5764304" lon="10.3900355"><ele>642.0</ele><time>2026-03-22T10:25:08.186Z</time></trkpt><trkpt lat="45.5763895" lon="10.3901346"><ele>642.0</ele><time>2026-03-22T10:25:10.188Z</time></trkpt><trkpt lat="45.5763493" lon="10.3902128"><ele>642.0</ele><time>2026-03-22T10:25:12.276Z</time></trkpt><trkpt lat="45.5762884" lon="10.3902725"><ele>642.0</ele><time>2026-03-22T10:25:15.186Z</time></trkpt><trkpt lat="45.5762279" lon="10.3903811"><ele>642.0</ele><time>2026-03-22T10:25:18.186Z</time></trkpt><trkpt lat="45.5761773" lon="10.3904873"><ele>642.0</ele><time>2026-03-22T10:25:20.186Z</time></trkpt><trkpt lat="45.5761396" lon="10.3906105"><ele>642.0</ele><time>2026-03-22T10:25:22.184Z</time></trkpt><trkpt lat="45.5761276" lon="10.390769"><ele>639.9999999999999</ele><time>2026-03-22T10:25:24.186Z</time></trkpt><trkpt lat="45.5761232" lon="10.3908667"><ele>638.0</ele><time>2026-03-22T10:25:25.186Z</time></trkpt><trkpt lat="45.5761125" lon="10.3909647"><ele>636.0</ele><time>2026-03-22T10:25:26.186Z</time></trkpt><trkpt lat="45.5760977" lon="10.3910593"><ele>634.0</ele><time>2026-03-22T10:25:27.186Z</time></trkpt><trkpt lat="45.5760793" lon="10.3911743"><ele>632.0</ele><time>2026-03-22T10:25:29.186Z</time></trkpt><trkpt lat="45.576019" lon="10.3912267"><ele>629.9999999999999</ele><time>2026-03-22T10:25:31.186Z</time></trkpt><trkpt lat="45.5759444" lon="10.3912208"><ele>628.0</ele><time>2026-03-22T10:25:33.19Z</time></trkpt><trkpt lat="45.5758647" lon="10.3911887"><ele>628.0</ele><time>2026-03-22T10:25:35.188Z</time></trkpt><trkpt lat="45.5757717" lon="10.3912002"><ele>628.0</ele><time>2026-03-22T10:25:37.186Z</time></trkpt><trkpt lat="45.575665" lon="10.3912533"><ele>628.0</ele><time>2026-03-22T10:25:39.186Z</time></trkpt><trkpt lat="45.5755616" lon="10.3913412"><ele>628.0</ele><time>2026-03-22T10:25:41.187Z</time></trkpt><trkpt lat="45.5754727" lon="10.391437"><ele>628.0</ele><time>2026-03-22T10:25:43.186Z</time></trkpt><trkpt lat="45.575413" lon="10.3915452"><ele>627.1999999999999</ele><time>2026-03-22T10:25:45.186Z</time></trkpt><trkpt lat="45.5753965" lon="10.3916842"><ele>626.4</ele><time>2026-03-22T10:25:47.186Z</time></trkpt><trkpt lat="45.575396" lon="10.3917786"><ele>625.5999999999999</ele><time>2026-03-22T10:25:48.187Z</time></trkpt><trkpt lat="45.5754076" lon="10.3919498"><ele>624.8</ele><time>2026-03-22T10:25:50.186Z</time></trkpt><trkpt lat="45.5754557" lon="10.3921179"><ele>624.0</ele><time>2026-03-22T10:25:52.186Z</time></trkpt><trkpt lat="45.5754949" lon="10.3921994"><ele>622.3333333333334</ele><time>2026-03-22T10:25:53.187Z</time></trkpt><trkpt lat="45.5755443" lon="10.392276"><ele>620.6666666666666</ele><time>2026-03-22T10:25:54.186Z</time></trkpt><trkpt lat="45.5756045" lon="10.3923515"><ele>619.0</ele><time>2026-03-22T10:25:55.186Z</time></trkpt><trkpt lat="45.5756708" lon="10.3924245"><ele>617.3333333333333</ele><time>2026-03-22T10:25:56.188Z</time></trkpt><trkpt lat="45.5757324" lon="10.392485"><ele>615.6666666666666</ele><time>2026-03-22T10:25:57.186Z</time></trkpt><trkpt lat="45.5757945" lon="10.3925377"><ele>614.0</ele><time>2026-03-22T10:25:58.187Z</time></trkpt><trkpt lat="45.5758667" lon="10.3925737"><ele>614.0</ele><time>2026-03-22T10:25:59.187Z</time></trkpt><trkpt lat="45.5759406" lon="10.3925915"><ele>614.0</ele><time>2026-03-22T10:26:00.186Z</time></trkpt><trkpt lat="45.576008" lon="10.3925994"><ele>614.0</ele><time>2026-03-22T10:26:01.186Z</time></trkpt><trkpt lat="45.576105" lon="10.3926396"><ele>614.0</ele><time>2026-03-22T10:26:03.187Z</time></trkpt><trkpt lat="45.5761317" lon="10.39274"><ele>614.0</ele><time>2026-03-22T10:26:05.186Z</time></trkpt><trkpt lat="45.5761001" lon="10.3928284"><ele>614.0</ele><time>2026-03-22T10:26:07.185Z</time></trkpt><trkpt lat="45.5760205" lon="10.3929501"><ele>611.5</ele><time>2026-03-22T10:26:09.185Z</time></trkpt><trkpt lat="45.5759397" lon="10.3930805"><ele>609.0</ele><time>2026-03-22T10:26:11.187Z</time></trkpt><trkpt lat="45.5758806" lon="10.3932319"><ele>606.5</ele><time>2026-03-22T10:26:13.185Z</time></trkpt><trkpt lat="45.575826" lon="10.393373"><ele>604.0</ele><time>2026-03-22T10:26:15.186Z</time></trkpt><trkpt lat="45.5757445" lon="10.3934845"><ele>604.0</ele><time>2026-03-22T10:26:17.185Z</time></trkpt><trkpt lat="45.5757006" lon="10.393573"><ele>604.0</ele><time>2026-03-22T10:26:19.185Z</time></trkpt><trkpt lat="45.5756665" lon="10.3936751"><ele>604.0</ele><time>2026-03-22T10:26:21.184Z</time></trkpt><trkpt lat="45.5756438" lon="10.3937816"><ele>604.0</ele><time>2026-03-22T10:26:23.186Z</time></trkpt><trkpt lat="45.5756462" lon="10.3938961"><ele>604.0</ele><time>2026-03-22T10:26:25.186Z</time></trkpt><trkpt lat="45.5756674" lon="10.3939853"><ele>604.0</ele><time>2026-03-22T10:26:27.186Z</time></trkpt><trkpt lat="45.5757144" lon="10.3940969"><ele>602.4</ele><time>2026-03-22T10:26:29.186Z</time></trkpt><trkpt lat="45.5757436" lon="10.3942588"><ele>600.8</ele><time>2026-03-22T10:26:31.188Z</time></trkpt><trkpt lat="45.5757488" lon="10.3943581"><ele>599.2</ele><time>2026-03-22T10:26:32.187Z</time></trkpt><trkpt lat="45.5757389" lon="10.3944665"><ele>597.6</ele><time>2026-03-22T10:26:33.185Z</time></trkpt><trkpt lat="45.575715" lon="10.3945956"><ele>596.0</ele><time>2026-03-22T10:26:34.185Z</time></trkpt><trkpt lat="45.5756905" lon="10.3947289"><ele>594.6666666666666</ele><time>2026-03-22T10:26:35.185Z</time></trkpt><trkpt lat="45.5756735" lon="10.3948501"><ele>593.3333333333333</ele><time>2026-03-22T10:26:36.184Z</time></trkpt><trkpt lat="45.5756663" lon="10.3949731"><ele>592.0</ele><time>2026-03-22T10:26:37.184Z</time></trkpt><trkpt lat="45.5756594" lon="10.3950945"><ele>590.6666666666666</ele><time>2026-03-22T10:26:38.185Z</time></trkpt><trkpt lat="45.5756483" lon="10.3952116"><ele>589.3333333333334</ele><time>2026-03-22T10:26:39.184Z</time></trkpt><trkpt lat="45.5756375" lon="10.3953154"><ele>588.0</ele><time>2026-03-22T10:26:40.185Z</time></trkpt><trkpt lat="45.5756378" lon="10.3954678"><ele>588.1999999999999</ele><time>2026-03-22T10:26:42.187Z</time></trkpt><trkpt lat="45.5756679" lon="10.3956023"><ele>588.4</ele><time>2026-03-22T10:26:44.187Z</time></trkpt><trkpt lat="45.5756801" lon="10.3957506"><ele>588.5999999999999</ele><time>2026-03-22T10:26:46.184Z</time></trkpt><trkpt lat="45.5756729" lon="10.3959124"><ele>588.8</ele><time>2026-03-22T10:26:48.184Z</time></trkpt><trkpt lat="45.5756693" lon="10.3960815"><ele>589.0</ele><time>2026-03-22T10:26:50.185Z</time></trkpt><trkpt lat="45.5756599" lon="10.3961801"><ele>589.0</ele><time>2026-03-22T10:26:51.185Z</time></trkpt><trkpt lat="45.5756485" lon="10.3962744"><ele>589.0</ele><time>2026-03-22T10:26:52.184Z</time></trkpt><trkpt lat="45.5756123" lon="10.3964452"><ele>589.0</ele><time>2026-03-22T10:26:54.185Z</time></trkpt><trkpt lat="45.5755886" lon="10.3965502"><ele>589.0</ele><time>2026-03-22T10:26:55.186Z</time></trkpt><trkpt lat="45.5755618" lon="10.3966717"><ele>589.0</ele><time>2026-03-22T10:26:56.186Z</time></trkpt><trkpt lat="45.5755333" lon="10.3967948"><ele>589.0</ele><time>2026-03-22T10:26:57.185Z</time></trkpt><trkpt lat="45.5755165" lon="10.3969105"><ele>589.0</ele><time>2026-03-22T10:26:58.186Z</time></trkpt><trkpt lat="45.5755061" lon="10.3970109"><ele>589.0</ele><time>2026-03-22T10:26:59.19Z</time></trkpt><trkpt lat="45.5754678" lon="10.397153"><ele>589.0</ele><time>2026-03-22T10:27:01.186Z</time></trkpt><trkpt lat="45.5753955" lon="10.3971911"><ele>589.0</ele><time>2026-03-22T10:27:03.186Z</time></trkpt><trkpt lat="45.5753106" lon="10.3971918"><ele>589.0</ele><time>2026-03-22T10:27:05.187Z</time></trkpt><trkpt lat="45.5752479" lon="10.397231"><ele>589.0</ele><time>2026-03-22T10:27:07.184Z</time></trkpt><trkpt lat="45.5752" lon="10.3973244"><ele>587.5</ele><time>2026-03-22T10:27:10.184Z</time></trkpt><trkpt lat="45.5751827" lon="10.3974147"><ele>586.0</ele><time>2026-03-22T10:27:14.187Z</time></trkpt><trkpt lat="45.5751184" lon="10.3974413"><ele>584.5</ele><time>2026-03-22T10:27:18.186Z</time></trkpt><trkpt lat="45.57504" lon="10.3974183"><ele>583.0</ele><time>2026-03-22T10:27:30.186Z</time></trkpt><trkpt lat="45.57515" lon="10.397425"><ele>581.5</ele><time>2026-03-22T10:29:57.184Z</time></trkpt><trkpt lat="45.5751817" lon="10.3973183"><ele>580.0</ele><time>2026-03-22T10:29:59.184Z</time></trkpt><trkpt lat="45.5752267" lon="10.3972533"><ele>580.0</ele><time>2026-03-22T10:30:01.185Z</time></trkpt><trkpt lat="45.5753117" lon="10.3972433"><ele>580.0</ele><time>2026-03-22T10:30:03.187Z</time></trkpt><trkpt lat="45.57539" lon="10.3972233"><ele>580.0</ele><time>2026-03-22T10:30:05.187Z</time></trkpt><trkpt lat="45.5754583" lon="10.397115"><ele>580.0</ele><time>2026-03-22T10:30:07.186Z</time></trkpt><trkpt lat="45.5754833" lon="10.397025"><ele>580.0</ele><time>2026-03-22T10:30:08.185Z</time></trkpt><trkpt lat="45.5755" lon="10.396915"><ele>580.0</ele><time>2026-03-22T10:30:09.186Z</time></trkpt><trkpt lat="45.57552" lon="10.3968033"><ele>581.5</ele><time>2026-03-22T10:30:10.185Z</time></trkpt><trkpt lat="45.5755467" lon="10.3966917"><ele>583.0</ele><time>2026-03-22T10:30:11.185Z</time></trkpt><trkpt lat="45.5755733" lon="10.3965917"><ele>584.5</ele><time>2026-03-22T10:30:12.184Z</time></trkpt><trkpt lat="45.57561" lon="10.39643"><ele>586.0</ele><time>2026-03-22T10:30:14.184Z</time></trkpt><trkpt lat="45.5756217" lon="10.3963383"><ele>587.5</ele><time>2026-03-22T10:30:15.184Z</time></trkpt><trkpt lat="45.57563" lon="10.396235"><ele>589.0</ele><time>2026-03-22T10:30:16.186Z</time></trkpt><trkpt lat="45.57564" lon="10.3961317"><ele>589.0</ele><time>2026-03-22T10:30:17.186Z</time></trkpt><trkpt lat="45.57565" lon="10.3960383"><ele>589.0</ele><time>2026-03-22T10:30:18.186Z</time></trkpt><trkpt lat="45.5756667" lon="10.39588"><ele>589.0</ele><time>2026-03-22T10:30:20.185Z</time></trkpt><trkpt lat="45.575675" lon="10.39575"><ele>589.0</ele><time>2026-03-22T10:30:22.186Z</time></trkpt><trkpt lat="45.5756767" lon="10.3956483"><ele>589.0</ele><time>2026-03-22T10:30:24.188Z</time></trkpt><trkpt lat="45.5756667" lon="10.3955133"><ele>589.0</ele><time>2026-03-22T10:30:26.187Z</time></trkpt><trkpt lat="45.5756567" lon="10.3953583"><ele>588.8333333333334</ele><time>2026-03-22T10:30:28.186Z</time></trkpt><trkpt lat="45.5756617" lon="10.3952"><ele>588.6666666666667</ele><time>2026-03-22T10:30:30.187Z</time></trkpt><trkpt lat="45.57567" lon="10.3950983"><ele>588.5</ele><time>2026-03-22T10:30:31.187Z</time></trkpt><trkpt lat="45.5756783" lon="10.3949817"><ele>588.3333333333334</ele><time>2026-03-22T10:30:32.187Z</time></trkpt><trkpt lat="45.5756917" lon="10.394875"><ele>588.1666666666666</ele><time>2026-03-22T10:30:33.187Z</time></trkpt><trkpt lat="45.575715" lon="10.3947733"><ele>588.0</ele><time>2026-03-22T10:30:34.186Z</time></trkpt><trkpt lat="45.5757433" lon="10.3946683"><ele>589.3333333333334</ele><time>2026-03-22T10:30:35.185Z</time></trkpt><trkpt lat="45.5757667" lon="10.3945683"><ele>590.6666666666666</ele><time>2026-03-22T10:30:36.184Z</time></trkpt><trkpt lat="45.575785" lon="10.3944117"><ele>592.0</ele><time>2026-03-22T10:30:38.187Z</time></trkpt><trkpt lat="45.57576" lon="10.394265"><ele>593.3333333333333</ele><time>2026-03-22T10:30:40.186Z</time></trkpt><trkpt lat="45.5757117" lon="10.3941733"><ele>594.6666666666666</ele><time>2026-03-22T10:30:42.186Z</time></trkpt><trkpt lat="45.5756583" lon="10.39411"><ele>596.0</ele><time>2026-03-22T10:30:44.186Z</time></trkpt><trkpt lat="45.5756183" lon="10.3940033"><ele>596.0</ele><time>2026-03-22T10:30:46.187Z</time></trkpt><trkpt lat="45.5756083" lon="10.393885"><ele>596.0</ele><time>2026-03-22T10:30:48.187Z</time></trkpt><trkpt lat="45.5756233" lon="10.3937567"><ele>596.0</ele><time>2026-03-22T10:30:50.189Z</time></trkpt><trkpt lat="45.57567" lon="10.3936217"><ele>596.0</ele><time>2026-03-22T10:30:52.186Z</time></trkpt><trkpt lat="45.5757033" lon="10.3935433"><ele>596.0</ele><time>2026-03-22T10:30:53.186Z</time></trkpt><trkpt lat="45.575785" lon="10.39342"><ele>597.6</ele><time>2026-03-22T10:30:55.186Z</time></trkpt><trkpt lat="45.5758333" lon="10.3933433"><ele>599.2</ele><time>2026-03-22T10:30:56.186Z</time></trkpt><trkpt lat="45.5758683" lon="10.393265"><ele>600.8</ele><time>2026-03-22T10:30:57.185Z</time></trkpt><trkpt lat="45.5759235" lon="10.3931218"><ele>602.4</ele><time>2026-03-22T10:30:59.186Z</time></trkpt><trkpt lat="45.5759945" lon="10.3929963"><ele>604.0</ele><time>2026-03-22T10:31:01.187Z</time></trkpt><trkpt lat="45.5760694" lon="10.3928766"><ele>606.0</ele><time>2026-03-22T10:31:03.185Z</time></trkpt><trkpt lat="45.5761044" lon="10.3927757"><ele>608.0</ele><time>2026-03-22T10:31:05.186Z</time></trkpt><trkpt lat="45.5760772" lon="10.3926911"><ele>610.0</ele><time>2026-03-22T10:31:07.187Z</time></trkpt><trkpt lat="45.5759985" lon="10.3926654"><ele>612.0</ele><time>2026-03-22T10:31:09.184Z</time></trkpt><trkpt lat="45.5758869" lon="10.3926572"><ele>614.0</ele><time>2026-03-22T10:31:11.187Z</time></trkpt><trkpt lat="45.5757758" lon="10.3926157"><ele>614.0</ele><time>2026-03-22T10:31:13.186Z</time></trkpt><trkpt lat="45.575718" lon="10.3925762"><ele>614.0</ele><time>2026-03-22T10:31:14.187Z</time></trkpt><trkpt lat="45.5756586" lon="10.3925217"><ele>614.0</ele><time>2026-03-22T10:31:15.186Z</time></trkpt><trkpt lat="45.5755957" lon="10.392463"><ele>614.0</ele><time>2026-03-22T10:31:16.186Z</time></trkpt><trkpt lat="45.5755327" lon="10.3924036"><ele>614.0</ele><time>2026-03-22T10:31:17.186Z</time></trkpt><trkpt lat="45.5754695" lon="10.3923424"><ele>614.0</ele><time>2026-03-22T10:31:18.186Z</time></trkpt><trkpt lat="45.5753937" lon="10.3922297"><ele>612.2</ele><time>2026-03-22T10:31:20.186Z</time></trkpt><trkpt lat="45.575363" lon="10.3921"><ele>610.4</ele><time>2026-03-22T10:31:22.187Z</time></trkpt><trkpt lat="45.5753362" lon="10.3919253"><ele>608.6</ele><time>2026-03-22T10:31:24.186Z</time></trkpt><trkpt lat="45.5753296" lon="10.3918299"><ele>606.8</ele><time>2026-03-22T10:31:25.187Z</time></trkpt><trkpt lat="45.5753302" lon="10.3916704"><ele>605.0</ele><time>2026-03-22T10:31:27.184Z</time></trkpt><trkpt lat="45.5753809" lon="10.3915381"><ele>608.8</ele><time>2026-03-22T10:31:29.186Z</time></trkpt><trkpt lat="45.5754794" lon="10.3914356"><ele>612.6</ele><time>2026-03-22T10:31:31.187Z</time></trkpt><trkpt lat="45.5755941" lon="10.39137"><ele>616.4</ele><time>2026-03-22T10:31:33.186Z</time></trkpt><trkpt lat="45.5756832" lon="10.3913617"><ele>620.2</ele><time>2026-03-22T10:31:35.186Z</time></trkpt><trkpt lat="45.5757509" lon="10.3914"><ele>624.0</ele><time>2026-03-22T10:31:37.186Z</time></trkpt><trkpt lat="45.5758262" lon="10.3914394"><ele>624.0</ele><time>2026-03-22T10:31:39.186Z</time></trkpt><trkpt lat="45.5758995" lon="10.3914185"><ele>624.0</ele><time>2026-03-22T10:31:41.186Z</time></trkpt><trkpt lat="45.5759526" lon="10.3913197"><ele>624.0</ele><time>2026-03-22T10:31:43.186Z</time></trkpt><trkpt lat="45.5759903" lon="10.3911389"><ele>624.0</ele><time>2026-03-22T10:31:45.186Z</time></trkpt><trkpt lat="45.5760091" lon="10.3910311"><ele>624.0</ele><time>2026-03-22T10:31:46.184Z</time></trkpt><trkpt lat="45.5760287" lon="10.3909294"><ele>624.0</ele><time>2026-03-22T10:31:47.187Z</time></trkpt><trkpt lat="45.5760532" lon="10.3908395"><ele>624.8</ele><time>2026-03-22T10:31:48.187Z</time></trkpt><trkpt lat="45.576082" lon="10.3907532"><ele>625.5999999999999</ele><time>2026-03-22T10:31:49.187Z</time></trkpt><trkpt lat="45.5761151" lon="10.3906678"><ele>626.4</ele><time>2026-03-22T10:31:50.187Z</time></trkpt><trkpt lat="45.5761789" lon="10.3905186"><ele>627.1999999999999</ele><time>2026-03-22T10:31:52.186Z</time></trkpt><trkpt lat="45.5762403" lon="10.3903884"><ele>628.0</ele><time>2026-03-22T10:31:54.186Z</time></trkpt><trkpt lat="45.5762828" lon="10.3902683"><ele>630.8</ele><time>2026-03-22T10:31:56.187Z</time></trkpt><trkpt lat="45.5763205" lon="10.3900983"><ele>633.5999999999999</ele><time>2026-03-22T10:31:58.186Z</time></trkpt><trkpt lat="45.5763429" lon="10.3899975"><ele>636.4000000000001</ele><time>2026-03-22T10:31:59.186Z</time></trkpt><trkpt lat="45.5763615" lon="10.3899048"><ele>639.2</ele><time>2026-03-22T10:32:00.186Z</time></trkpt><trkpt lat="45.576403" lon="10.3897634"><ele>642.0</ele><time>2026-03-22T10:32:02.187Z</time></trkpt><trkpt lat="45.5764703" lon="10.3896498"><ele>642.0</ele><time>2026-03-22T10:32:04.187Z</time></trkpt><trkpt lat="45.5765507" lon="10.3895799"><ele>642.0</ele><time>2026-03-22T10:32:06.187Z</time></trkpt><trkpt lat="45.5766352" lon="10.389575"><ele>642.0</ele><time>2026-03-22T10:32:08.188Z</time></trkpt><trkpt lat="45.5767136" lon="10.3896295"><ele>642.0</ele><time>2026-03-22T10:32:10.186Z</time></trkpt><trkpt lat="45.5767871" lon="10.3897403"><ele>642.0</ele><time>2026-03-22T10:32:12.186Z</time></trkpt><trkpt lat="45.5768618" lon="10.3898724"><ele>642.0</ele><time>2026-03-22T10:32:14.186Z</time></trkpt><trkpt lat="45.5769094" lon="10.3899486"><ele>642.0</ele><time>2026-03-22T10:32:15.186Z</time></trkpt><trkpt lat="45.5769524" lon="10.3900214"><ele>642.0</ele><time>2026-03-22T10:32:16.186Z</time></trkpt><trkpt lat="45.5770227" lon="10.3901489"><ele>642.0</ele><time>2026-03-22T10:32:18.185Z</time></trkpt><trkpt lat="45.5770734" lon="10.3902796"><ele>642.0</ele><time>2026-03-22T10:32:20.185Z</time></trkpt><trkpt lat="45.5771072" lon="10.3903621"><ele>642.0</ele><time>2026-03-22T10:32:21.184Z</time></trkpt><trkpt lat="45.5771535" lon="10.390432"><ele>644.6</ele><time>2026-03-22T10:32:22.184Z</time></trkpt><trkpt lat="45.5772056" lon="10.390595"><ele>647.2</ele><time>2026-03-22T10:32:24.185Z</time></trkpt><trkpt lat="45.5772411" lon="10.3907357"><ele>649.8</ele><time>2026-03-22T10:32:26.185Z</time></trkpt><trkpt lat="45.5772736" lon="10.390891"><ele>652.4</ele><time>2026-03-22T10:32:28.186Z</time></trkpt><trkpt lat="45.5772929" lon="10.3909795"><ele>655.0</ele><time>2026-03-22T10:32:29.185Z</time></trkpt><trkpt lat="45.5773182" lon="10.3910749"><ele>655.0</ele><time>2026-03-22T10:32:30.186Z</time></trkpt><trkpt lat="45.5773468" lon="10.3911751"><ele>655.0</ele><time>2026-03-22T10:32:31.185Z</time></trkpt><trkpt lat="45.5773803" lon="10.3912682"><ele>655.0</ele><time>2026-03-22T10:32:32.187Z</time></trkpt><trkpt lat="45.5774292" lon="10.391354"><ele>655.0</ele><time>2026-03-22T10:32:33.184Z</time></trkpt><trkpt lat="45.5774838" lon="10.3914337"><ele>655.0</ele><time>2026-03-22T10:32:34.185Z</time></trkpt><trkpt lat="45.5775427" lon="10.391512"><ele>655.0</ele><time>2026-03-22T10:32:35.187Z</time></trkpt><trkpt lat="45.5776014" lon="10.3915894"><ele>654.3333333333334</ele><time>2026-03-22T10:32:36.187Z</time></trkpt><trkpt lat="45.5776618" lon="10.3916605"><ele>653.6666666666667</ele><time>2026-03-22T10:32:37.187Z</time></trkpt><trkpt lat="45.5777188" lon="10.3917247"><ele>653.0</ele><time>2026-03-22T10:32:38.187Z</time></trkpt><trkpt lat="45.577774" lon="10.3917886"><ele>652.3333333333334</ele><time>2026-03-22T10:32:39.187Z</time></trkpt><trkpt lat="45.577825" lon="10.3918468"><ele>651.6666666666666</ele><time>2026-03-22T10:32:40.186Z</time></trkpt><trkpt lat="45.5778736" lon="10.3919085"><ele>651.0</ele><time>2026-03-22T10:32:41.187Z</time></trkpt><trkpt lat="45.5779379" lon="10.3920258"><ele>654.1999999999999</ele><time>2026-03-22T10:32:43.188Z</time></trkpt><trkpt lat="45.5779661" lon="10.3921652"><ele>657.4</ele><time>2026-03-22T10:32:45.187Z</time></trkpt><trkpt lat="45.5779823" lon="10.3923494"><ele>660.6</ele><time>2026-03-22T10:32:47.186Z</time></trkpt><trkpt lat="45.5779879" lon="10.3924557"><ele>663.8</ele><time>2026-03-22T10:32:48.186Z</time></trkpt><trkpt lat="45.5779917" lon="10.3925666"><ele>667.0</ele><time>2026-03-22T10:32:49.186Z</time></trkpt><trkpt lat="45.5779965" lon="10.392673"><ele>667.0</ele><time>2026-03-22T10:32:50.188Z</time></trkpt><trkpt lat="45.5780057" lon="10.3927643"><ele>667.0</ele><time>2026-03-22T10:32:51.186Z</time></trkpt><trkpt lat="45.5780276" lon="10.3929154"><ele>667.0</ele><time>2026-03-22T10:32:53.186Z</time></trkpt><trkpt lat="45.5780344" lon="10.3930434"><ele>667.0</ele><time>2026-03-22T10:32:55.186Z</time></trkpt><trkpt lat="45.5780376" lon="10.3931511"><ele>667.0</ele><time>2026-03-22T10:32:57.184Z</time></trkpt><trkpt lat="45.5780308" lon="10.3932608"><ele>667.0</ele><time>2026-03-22T10:33:02.185Z</time></trkpt><trkpt lat="45.5780437" lon="10.3933713"><ele>666.3333333333334</ele><time>2026-03-22T10:33:05.187Z</time></trkpt><trkpt lat="45.5780643" lon="10.3934581"><ele>665.6666666666667</ele><time>2026-03-22T10:33:07.186Z</time></trkpt><trkpt lat="45.5781141" lon="10.3935785"><ele>665.0</ele><time>2026-03-22T10:33:09.184Z</time></trkpt><trkpt lat="45.5781519" lon="10.3936621"><ele>664.3333333333334</ele><time>2026-03-22T10:33:10.185Z</time></trkpt><trkpt lat="45.5782164" lon="10.3938007"><ele>663.6666666666666</ele><time>2026-03-22T10:33:11.186Z</time></trkpt><trkpt lat="45.578259" lon="10.39392"><ele>663.0</ele><time>2026-03-22T10:33:12.185Z</time></trkpt><trkpt lat="45.5782969" lon="10.3940451"><ele>662.5999999999999</ele><time>2026-03-22T10:33:13.185Z</time></trkpt><trkpt lat="45.578339" lon="10.3941847"><ele>662.1999999999999</ele><time>2026-03-22T10:33:14.185Z</time></trkpt><trkpt lat="45.5783771" lon="10.3943078"><ele>661.8</ele><time>2026-03-22T10:33:15.185Z</time></trkpt><trkpt lat="45.5784179" lon="10.3944278"><ele>661.4</ele><time>2026-03-22T10:33:16.185Z</time></trkpt><trkpt lat="45.5784556" lon="10.394536"><ele>661.0</ele><time>2026-03-22T10:33:17.185Z</time></trkpt><trkpt lat="45.5784924" lon="10.3946308"><ele>660.5</ele><time>2026-03-22T10:33:18.185Z</time></trkpt><trkpt lat="45.5785296" lon="10.3947236"><ele>660.0</ele><time>2026-03-22T10:33:19.185Z</time></trkpt><trkpt lat="45.5785653" lon="10.39482"><ele>659.5</ele><time>2026-03-22T10:33:20.186Z</time></trkpt><trkpt lat="45.5786004" lon="10.3949139"><ele>659.0</ele><time>2026-03-22T10:33:21.185Z</time></trkpt><trkpt lat="45.5786279" lon="10.3949982"><ele>658.5</ele><time>2026-03-22T10:33:22.185Z</time></trkpt><trkpt lat="45.5786866" lon="10.3951749"><ele>658.0</ele><time>2026-03-22T10:33:24.185Z</time></trkpt><trkpt lat="45.5787157" lon="10.3952589"><ele>659.0</ele><time>2026-03-22T10:33:25.185Z</time></trkpt><trkpt lat="45.5787773" lon="10.3953914"><ele>660.0</ele><time>2026-03-22T10:33:27.185Z</time></trkpt><trkpt lat="45.5788428" lon="10.3955298"><ele>661.0</ele><time>2026-03-22T10:33:29.185Z</time></trkpt><trkpt lat="45.5789055" lon="10.3956762"><ele>662.0</ele><time>2026-03-22T10:33:31.185Z</time></trkpt><trkpt lat="45.5789329" lon="10.3958206"><ele>662.0</ele><time>2026-03-22T10:33:33.185Z</time></trkpt><trkpt lat="45.5789545" lon="10.3959873"><ele>662.0</ele><time>2026-03-22T10:33:35.185Z</time></trkpt><trkpt lat="45.5789498" lon="10.3961461"><ele>662.0</ele><time>2026-03-22T10:33:37.185Z</time></trkpt><trkpt lat="45.5789144" lon="10.3962909"><ele>662.0</ele><time>2026-03-22T10:33:39.184Z</time></trkpt><trkpt lat="45.5789127" lon="10.3963982"><ele>662.0</ele><time>2026-03-22T10:33:42.185Z</time></trkpt><trkpt lat="45.5790245" lon="10.3963624"><ele>662.0</ele><time>2026-03-22T10:33:51.185Z</time></trkpt><trkpt lat="45.5791465" lon="10.3963277"><ele>662.0</ele><time>2026-03-22T10:33:53.185Z</time></trkpt><trkpt lat="45.5792678" lon="10.3962821"><ele>662.0</ele><time>2026-03-22T10:33:55.185Z</time></trkpt><trkpt lat="45.5793249" lon="10.3962404"><ele>662.0</ele><time>2026-03-22T10:33:56.185Z</time></trkpt><trkpt lat="45.5793829" lon="10.3961878"><ele>662.0</ele><time>2026-03-22T10:33:57.185Z</time></trkpt><trkpt lat="45.5794391" lon="10.3961346"><ele>662.0</ele><time>2026-03-22T10:33:58.185Z</time></trkpt><trkpt lat="45.5795021" lon="10.3960847"><ele>662.0</ele><time>2026-03-22T10:33:59.186Z</time></trkpt><trkpt lat="45.5795737" lon="10.3960606"><ele>662.0</ele><time>2026-03-22T10:34:00.187Z</time></trkpt><trkpt lat="45.579662" lon="10.3960578"><ele>662.0</ele><time>2026-03-22T10:34:01.189Z</time></trkpt><trkpt lat="45.5797655" lon="10.3960695"><ele>662.0</ele><time>2026-03-22T10:34:02.187Z</time></trkpt><trkpt lat="45.5798772" lon="10.3960788"><ele>663.2</ele><time>2026-03-22T10:34:03.186Z</time></trkpt><trkpt lat="45.5799863" lon="10.3960752"><ele>664.4000000000001</ele><time>2026-03-22T10:34:04.187Z</time></trkpt><trkpt lat="45.5800856" lon="10.3960573"><ele>665.5999999999999</ele><time>2026-03-22T10:34:05.186Z</time></trkpt><trkpt lat="45.58018" lon="10.3960317"><ele>666.8</ele><time>2026-03-22T10:34:06.186Z</time></trkpt><trkpt lat="45.5802767" lon="10.395985"><ele>668.0</ele><time>2026-03-22T10:34:07.186Z</time></trkpt><trkpt lat="45.5803667" lon="10.3959133"><ele>670.4</ele><time>2026-03-22T10:34:08.186Z</time></trkpt><trkpt lat="45.5804483" lon="10.3958233"><ele>672.8</ele><time>2026-03-22T10:34:09.185Z</time></trkpt><trkpt lat="45.5805317" lon="10.3957267"><ele>675.2</ele><time>2026-03-22T10:34:10.186Z</time></trkpt><trkpt lat="45.5806117" lon="10.395645"><ele>677.6</ele><time>2026-03-22T10:34:11.186Z</time></trkpt><trkpt lat="45.580695" lon="10.3955667"><ele>680.0</ele><time>2026-03-22T10:34:12.188Z</time></trkpt><trkpt lat="45.5807817" lon="10.3955033"><ele>680.5</ele><time>2026-03-22T10:34:13.186Z</time></trkpt><trkpt lat="45.58086" lon="10.3954433"><ele>681.0</ele><time>2026-03-22T10:34:14.186Z</time></trkpt><trkpt lat="45.58094" lon="10.3954017"><ele>681.5</ele><time>2026-03-22T10:34:15.186Z</time></trkpt><trkpt lat="45.581015" lon="10.3953933"><ele>682.0</ele><time>2026-03-22T10:34:16.187Z</time></trkpt><trkpt lat="45.5810817" lon="10.395365"><ele>682.5</ele><time>2026-03-22T10:34:17.186Z</time></trkpt><trkpt lat="45.5811483" lon="10.395315"><ele>683.0</ele><time>2026-03-22T10:34:18.186Z</time></trkpt><trkpt lat="45.5811967" lon="10.3952017"><ele>685.0</ele><time>2026-03-22T10:34:19.186Z</time></trkpt><trkpt lat="45.581245" lon="10.39508"><ele>687.0</ele><time>2026-03-22T10:34:20.186Z</time></trkpt><trkpt lat="45.581295" lon="10.395"><ele>689.0</ele><time>2026-03-22T10:34:21.184Z</time></trkpt><trkpt lat="45.5813583" lon="10.3949433"><ele>691.0</ele><time>2026-03-22T10:34:22.185Z</time></trkpt><trkpt lat="45.5814283" lon="10.3949"><ele>693.0</ele><time>2026-03-22T10:34:23.186Z</time></trkpt><trkpt lat="45.5815067" lon="10.3948817"><ele>695.0</ele><time>2026-03-22T10:34:24.186Z</time></trkpt><trkpt lat="45.5815783" lon="10.3948633"><ele>695.0</ele><time>2026-03-22T10:34:25.186Z</time></trkpt><trkpt lat="45.58171" lon="10.3949567"><ele>695.0</ele><time>2026-03-22T10:34:27.186Z</time></trkpt><trkpt lat="45.581775" lon="10.3950483"><ele>695.0</ele><time>2026-03-22T10:34:28.186Z</time></trkpt><trkpt lat="45.581835" lon="10.3952483"><ele>695.0</ele><time>2026-03-22T10:34:29.186Z</time></trkpt><trkpt lat="45.5818733" lon="10.39541"><ele>694.4</ele><time>2026-03-22T10:34:30.187Z</time></trkpt><trkpt lat="45.5819183" lon="10.39554"><ele>693.8</ele><time>2026-03-22T10:34:31.186Z</time></trkpt><trkpt lat="45.5819717" lon="10.3956567"><ele>693.2</ele><time>2026-03-22T10:34:32.187Z</time></trkpt><trkpt lat="45.5820483" lon="10.3957517"><ele>692.6</ele><time>2026-03-22T10:34:33.187Z</time></trkpt><trkpt lat="45.5821283" lon="10.3958133"><ele>692.0</ele><time>2026-03-22T10:34:34.186Z</time></trkpt><trkpt lat="45.582205" lon="10.3958517"><ele>694.0</ele><time>2026-03-22T10:34:35.185Z</time></trkpt><trkpt lat="45.582325" lon="10.395755"><ele>696.0</ele><time>2026-03-22T10:34:37.186Z</time></trkpt><trkpt lat="45.5823917" lon="10.395615"><ele>698.0</ele><time>2026-03-22T10:34:38.186Z</time></trkpt><trkpt lat="45.582465" lon="10.395495"><ele>700.0</ele><time>2026-03-22T10:34:39.186Z</time></trkpt><trkpt lat="45.5825267" lon="10.3953817"><ele>702.0</ele><time>2026-03-22T10:34:40.186Z</time></trkpt><trkpt lat="45.5825517" lon="10.395255"><ele>704.0</ele><time>2026-03-22T10:34:41.19Z</time></trkpt><trkpt lat="45.582535" lon="10.395115"><ele>706.0</ele><time>2026-03-22T10:34:42.188Z</time></trkpt><trkpt lat="45.58249" lon="10.39496"><ele>708.0</ele><time>2026-03-22T10:34:43.186Z</time></trkpt><trkpt lat="45.5824483" lon="10.39482"><ele>710.0</ele><time>2026-03-22T10:34:44.188Z</time></trkpt><trkpt lat="45.5824167" lon="10.3947"><ele>710.0</ele><time>2026-03-22T10:34:45.186Z</time></trkpt><trkpt lat="45.5823983" lon="10.3945983"><ele>710.0</ele><time>2026-03-22T10:34:46.186Z</time></trkpt><trkpt lat="45.5824583" lon="10.3945317"><ele>710.0</ele><time>2026-03-22T10:34:48.187Z</time></trkpt><trkpt lat="45.5825317" lon="10.39456"><ele>710.0</ele><time>2026-03-22T10:34:50.187Z</time></trkpt><trkpt lat="45.582675" lon="10.3946483"><ele>710.0</ele><time>2026-03-22T10:34:52.186Z</time></trkpt><trkpt lat="45.5828083" lon="10.3948167"><ele>712.75</ele><time>2026-03-22T10:34:53.187Z</time></trkpt><trkpt lat="45.5829183" lon="10.3948867"><ele>715.5</ele><time>2026-03-22T10:34:54.187Z</time></trkpt><trkpt lat="45.5830383" lon="10.3949383"><ele>718.25</ele><time>2026-03-22T10:34:55.187Z</time></trkpt><trkpt lat="45.5831733" lon="10.3949917"><ele>721.0</ele><time>2026-03-22T10:34:56.187Z</time></trkpt><trkpt lat="45.5833117" lon="10.3950417"><ele>721.0</ele><time>2026-03-22T10:34:57.186Z</time></trkpt><trkpt lat="45.583445" lon="10.3950783"><ele>721.0</ele><time>2026-03-22T10:34:58.186Z</time></trkpt><trkpt lat="45.5835667" lon="10.3950917"><ele>721.0</ele><time>2026-03-22T10:34:59.188Z</time></trkpt><trkpt lat="45.5836733" lon="10.395085"><ele>721.0</ele><time>2026-03-22T10:35:00.186Z</time></trkpt><trkpt lat="45.58376" lon="10.3950533"><ele>720.8</ele><time>2026-03-22T10:35:01.186Z</time></trkpt><trkpt lat="45.58384" lon="10.39501"><ele>720.5999999999999</ele><time>2026-03-22T10:35:02.186Z</time></trkpt><trkpt lat="45.5839" lon="10.3949583"><ele>720.4</ele><time>2026-03-22T10:35:03.185Z</time></trkpt><trkpt lat="45.583945" lon="10.3948183"><ele>720.2</ele><time>2026-03-22T10:35:05.184Z</time></trkpt><trkpt lat="45.5839017" lon="10.394645"><ele>720.0</ele><time>2026-03-22T10:35:07.186Z</time></trkpt><trkpt lat="45.5838533" lon="10.3945583"><ele>721.3333333333334</ele><time>2026-03-22T10:35:08.186Z</time></trkpt><trkpt lat="45.5837983" lon="10.3944767"><ele>722.6666666666666</ele><time>2026-03-22T10:35:09.188Z</time></trkpt><trkpt lat="45.583735" lon="10.3943983"><ele>724.0</ele><time>2026-03-22T10:35:10.184Z</time></trkpt><trkpt lat="45.583665" lon="10.39432"><ele>725.3333333333333</ele><time>2026-03-22T10:35:11.185Z</time></trkpt><trkpt lat="45.58359" lon="10.3942367"><ele>726.6666666666666</ele><time>2026-03-22T10:35:12.184Z</time></trkpt><trkpt lat="45.5835167" lon="10.394145"><ele>728.0</ele><time>2026-03-22T10:35:13.187Z</time></trkpt><trkpt lat="45.58344" lon="10.3940417"><ele>728.25</ele><time>2026-03-22T10:35:14.185Z</time></trkpt><trkpt lat="45.5833733" lon="10.3939233"><ele>728.5</ele><time>2026-03-22T10:35:15.185Z</time></trkpt><trkpt lat="45.5833083" lon="10.3937933"><ele>728.75</ele><time>2026-03-22T10:35:16.186Z</time></trkpt><trkpt lat="45.5832483" lon="10.3936483"><ele>729.0</ele><time>2026-03-22T10:35:17.186Z</time></trkpt><trkpt lat="45.583195" lon="10.39348"><ele>730.25</ele><time>2026-03-22T10:35:18.186Z</time></trkpt><trkpt lat="45.5831467" lon="10.3932883"><ele>731.5</ele><time>2026-03-22T10:35:19.186Z</time></trkpt><trkpt lat="45.5830933" lon="10.3930867"><ele>732.75</ele><time>2026-03-22T10:35:20.187Z</time></trkpt><trkpt lat="45.5830367" lon="10.3928883"><ele>734.0</ele><time>2026-03-22T10:35:21.186Z</time></trkpt><trkpt lat="45.58298" lon="10.392705"><ele>734.5</ele><time>2026-03-22T10:35:22.187Z</time></trkpt><trkpt lat="45.5829267" lon="10.39253"><ele>735.0</ele><time>2026-03-22T10:35:23.187Z</time></trkpt><trkpt lat="45.5828767" lon="10.3923567"><ele>735.5</ele><time>2026-03-22T10:35:24.185Z</time></trkpt><trkpt lat="45.5828317" lon="10.392185"><ele>736.0</ele><time>2026-03-22T10:35:25.186Z</time></trkpt><trkpt lat="45.5827833" lon="10.3920133"><ele>736.25</ele><time>2026-03-22T10:35:26.185Z</time></trkpt><trkpt lat="45.5827317" lon="10.3918333"><ele>736.5</ele><time>2026-03-22T10:35:27.185Z</time></trkpt><trkpt lat="45.5826767" lon="10.3916433"><ele>736.75</ele><time>2026-03-22T10:35:28.187Z</time></trkpt><trkpt lat="45.58262" lon="10.391455"><ele>737.0</ele><time>2026-03-22T10:35:29.184Z</time></trkpt><trkpt lat="45.582555" lon="10.3912733"><ele>737.0</ele><time>2026-03-22T10:35:30.184Z</time></trkpt><trkpt lat="45.5824833" lon="10.3911"><ele>737.0</ele><time>2026-03-22T10:35:31.186Z</time></trkpt><trkpt lat="45.582405" lon="10.390925"><ele>737.0</ele><time>2026-03-22T10:35:32.186Z</time></trkpt><trkpt lat="45.5823267" lon="10.3907583"><ele>737.0</ele><time>2026-03-22T10:35:33.186Z</time></trkpt><trkpt lat="45.5822583" lon="10.39058"><ele>739.0</ele><time>2026-03-22T10:35:34.185Z</time></trkpt><trkpt lat="45.5822067" lon="10.390375"><ele>741.0</ele><time>2026-03-22T10:35:35.185Z</time></trkpt><trkpt lat="45.5821483" lon="10.3901367"><ele>743.0</ele><time>2026-03-22T10:35:36.186Z</time></trkpt><trkpt lat="45.5820983" lon="10.3898833"><ele>744.0</ele><time>2026-03-22T10:35:37.186Z</time></trkpt><trkpt lat="45.5820533" lon="10.38965"><ele>745.0</ele><time>2026-03-22T10:35:38.185Z</time></trkpt><trkpt lat="45.582005" lon="10.389425"><ele>746.0</ele><time>2026-03-22T10:35:39.185Z</time></trkpt><trkpt lat="45.5819517" lon="10.3892217"><ele>744.25</ele><time>2026-03-22T10:35:40.184Z</time></trkpt><trkpt lat="45.5818983" lon="10.3890317"><ele>742.5</ele><time>2026-03-22T10:35:41.185Z</time></trkpt><trkpt lat="45.5818383" lon="10.3888483"><ele>740.75</ele><time>2026-03-22T10:35:42.187Z</time></trkpt><trkpt lat="45.5817617" lon="10.3886767"><ele>739.0</ele><time>2026-03-22T10:35:43.187Z</time></trkpt><trkpt lat="45.5816667" lon="10.3885083"><ele>739.0</ele><time>2026-03-22T10:35:44.192Z</time></trkpt><trkpt lat="45.5815683" lon="10.38834"><ele>739.0</ele><time>2026-03-22T10:35:45.187Z</time></trkpt><trkpt lat="45.58147" lon="10.38817"><ele>739.0</ele><time>2026-03-22T10:35:46.186Z</time></trkpt><trkpt lat="45.5813817" lon="10.387995"><ele>736.5</ele><time>2026-03-22T10:35:47.187Z</time></trkpt><trkpt lat="45.5813033" lon="10.3878167"><ele>734.0</ele><time>2026-03-22T10:35:48.186Z</time></trkpt><trkpt lat="45.5812267" lon="10.3876383"><ele>731.5</ele><time>2026-03-22T10:35:49.186Z</time></trkpt><trkpt lat="45.581155" lon="10.3874683"><ele>729.0</ele><time>2026-03-22T10:35:50.186Z</time></trkpt><trkpt lat="45.5810867" lon="10.3872967"><ele>731.0</ele><time>2026-03-22T10:35:51.185Z</time></trkpt><trkpt lat="45.581015" lon="10.3871117"><ele>733.0</ele><time>2026-03-22T10:35:52.187Z</time></trkpt><trkpt lat="45.580935" lon="10.3868983"><ele>735.0</ele><time>2026-03-22T10:35:53.187Z</time></trkpt><trkpt lat="45.5808467" lon="10.3866633"><ele>735.0</ele><time>2026-03-22T10:35:54.186Z</time></trkpt><trkpt lat="45.58075" lon="10.3863983"><ele>735.0</ele><time>2026-03-22T10:35:55.187Z</time></trkpt><trkpt lat="45.5806583" lon="10.3861383"><ele>735.0</ele><time>2026-03-22T10:35:56.186Z</time></trkpt><trkpt lat="45.580575" lon="10.38589"><ele>734.0</ele><time>2026-03-22T10:35:57.186Z</time></trkpt><trkpt lat="45.5804917" lon="10.3856583"><ele>733.0</ele><time>2026-03-22T10:35:58.186Z</time></trkpt><trkpt lat="45.5804167" lon="10.385445"><ele>732.0</ele><time>2026-03-22T10:35:59.186Z</time></trkpt><trkpt lat="45.580335" lon="10.3852567"><ele>732.0</ele><time>2026-03-22T10:36:00.186Z</time></trkpt><trkpt lat="45.580245" lon="10.3850883"><ele>732.0</ele><time>2026-03-22T10:36:01.186Z</time></trkpt><trkpt lat="45.58015" lon="10.3849317"><ele>732.0</ele><time>2026-03-22T10:36:02.188Z</time></trkpt><trkpt lat="45.5800567" lon="10.3847883"><ele>732.0</ele><time>2026-03-22T10:36:03.185Z</time></trkpt><trkpt lat="45.5799733" lon="10.3846617"><ele>732.25</ele><time>2026-03-22T10:36:04.185Z</time></trkpt><trkpt lat="45.579905" lon="10.3845433"><ele>732.5</ele><time>2026-03-22T10:36:05.186Z</time></trkpt><trkpt lat="45.5798567" lon="10.3843983"><ele>732.75</ele><time>2026-03-22T10:36:06.186Z</time></trkpt><trkpt lat="45.5798" lon="10.3842083"><ele>733.0</ele><time>2026-03-22T10:36:07.186Z</time></trkpt><trkpt lat="45.5797433" lon="10.3839883"><ele>734.75</ele><time>2026-03-22T10:36:08.188Z</time></trkpt><trkpt lat="45.57968" lon="10.383785"><ele>736.5</ele><time>2026-03-22T10:36:09.187Z</time></trkpt><trkpt lat="45.5796083" lon="10.38361"><ele>738.25</ele><time>2026-03-22T10:36:10.184Z</time></trkpt><trkpt lat="45.57953" lon="10.38345"><ele>740.0</ele><time>2026-03-22T10:36:11.186Z</time></trkpt><trkpt lat="45.5794333" lon="10.3833083"><ele>736.75</ele><time>2026-03-22T10:36:12.184Z</time></trkpt><trkpt lat="45.5793167" lon="10.383185"><ele>733.5</ele><time>2026-03-22T10:36:13.184Z</time></trkpt><trkpt lat="45.579205" lon="10.3830717"><ele>730.25</ele><time>2026-03-22T10:36:14.185Z</time></trkpt><trkpt lat="45.579105" lon="10.38296"><ele>727.0</ele><time>2026-03-22T10:36:15.184Z</time></trkpt><trkpt lat="45.5790267" lon="10.3828467"><ele>727.0</ele><time>2026-03-22T10:36:16.184Z</time></trkpt><trkpt lat="45.57898" lon="10.3827283"><ele>727.0</ele><time>2026-03-22T10:36:17.185Z</time></trkpt><trkpt lat="45.5789533" lon="10.3826"><ele>727.0</ele><time>2026-03-22T10:36:18.185Z</time></trkpt><trkpt lat="45.5789567" lon="10.3824183"><ele>727.0</ele><time>2026-03-22T10:36:19.185Z</time></trkpt><trkpt lat="45.5789517" lon="10.3822067"><ele>726.75</ele><time>2026-03-22T10:36:20.185Z</time></trkpt><trkpt lat="45.5789367" lon="10.3819833"><ele>726.5</ele><time>2026-03-22T10:36:21.185Z</time></trkpt><trkpt lat="45.578925" lon="10.38181"><ele>726.25</ele><time>2026-03-22T10:36:22.185Z</time></trkpt><trkpt lat="45.57893" lon="10.3816617"><ele>726.0</ele><time>2026-03-22T10:36:23.184Z</time></trkpt><trkpt lat="45.5789517" lon="10.3815117"><ele>724.75</ele><time>2026-03-22T10:36:24.185Z</time></trkpt><trkpt lat="45.5789683" lon="10.38134"><ele>723.5</ele><time>2026-03-22T10:36:25.186Z</time></trkpt><trkpt lat="45.5789917" lon="10.3811733"><ele>722.25</ele><time>2026-03-22T10:36:26.187Z</time></trkpt><trkpt lat="45.5790183" lon="10.3810083"><ele>721.0</ele><time>2026-03-22T10:36:27.184Z</time></trkpt><trkpt lat="45.5790533" lon="10.3808467"><ele>721.0</ele><time>2026-03-22T10:36:28.185Z</time></trkpt><trkpt lat="45.579095" lon="10.3806867"><ele>721.0</ele><time>2026-03-22T10:36:29.185Z</time></trkpt><trkpt lat="45.5791333" lon="10.3805233"><ele>721.0</ele><time>2026-03-22T10:36:30.185Z</time></trkpt><trkpt lat="45.579165" lon="10.3803567"><ele>721.0</ele><time>2026-03-22T10:36:31.186Z</time></trkpt><trkpt lat="45.5791817" lon="10.3801817"><ele>719.5</ele><time>2026-03-22T10:36:32.187Z</time></trkpt><trkpt lat="45.57919" lon="10.379995"><ele>718.0</ele><time>2026-03-22T10:36:33.187Z</time></trkpt><trkpt lat="45.579195" lon="10.37981"><ele>716.5</ele><time>2026-03-22T10:36:34.186Z</time></trkpt><trkpt lat="45.5792067" lon="10.37964"><ele>715.0</ele><time>2026-03-22T10:36:35.186Z</time></trkpt><trkpt lat="45.5792217" lon="10.3794833"><ele>714.6</ele><time>2026-03-22T10:36:36.188Z</time></trkpt><trkpt lat="45.5792383" lon="10.3793283"><ele>714.2</ele><time>2026-03-22T10:36:37.187Z</time></trkpt><trkpt lat="45.57925" lon="10.379185"><ele>713.8</ele><time>2026-03-22T10:36:38.186Z</time></trkpt><trkpt lat="45.5792467" lon="10.37904"><ele>713.4</ele><time>2026-03-22T10:36:39.187Z</time></trkpt><trkpt lat="45.5792217" lon="10.3788883"><ele>713.0</ele><time>2026-03-22T10:36:40.187Z</time></trkpt><trkpt lat="45.5791883" lon="10.3787267"><ele>712.25</ele><time>2026-03-22T10:36:41.187Z</time></trkpt><trkpt lat="45.5791533" lon="10.3785583"><ele>711.5</ele><time>2026-03-22T10:36:42.185Z</time></trkpt><trkpt lat="45.5791233" lon="10.3783817"><ele>710.75</ele><time>2026-03-22T10:36:43.185Z</time></trkpt><trkpt lat="45.57909" lon="10.3781967"><ele>710.0</ele><time>2026-03-22T10:36:44.186Z</time></trkpt><trkpt lat="45.5790583" lon="10.378005"><ele>709.0</ele><time>2026-03-22T10:36:45.184Z</time></trkpt><trkpt lat="45.5790283" lon="10.3778183"><ele>708.0</ele><time>2026-03-22T10:36:46.186Z</time></trkpt><trkpt lat="45.5789967" lon="10.3776333"><ele>707.0</ele><time>2026-03-22T10:36:47.185Z</time></trkpt><trkpt lat="45.57897" lon="10.3774483"><ele>706.0</ele><time>2026-03-22T10:36:48.187Z</time></trkpt><trkpt lat="45.5789483" lon="10.3772483"><ele>703.0</ele><time>2026-03-22T10:36:49.188Z</time></trkpt><trkpt lat="45.5789333" lon="10.3770367"><ele>700.0</ele><time>2026-03-22T10:36:50.187Z</time></trkpt><trkpt lat="45.5789233" lon="10.3768233"><ele>697.0</ele><time>2026-03-22T10:36:51.187Z</time></trkpt><trkpt lat="45.5789217" lon="10.3766133"><ele>694.0</ele><time>2026-03-22T10:36:52.186Z</time></trkpt><trkpt lat="45.5789267" lon="10.3764083"><ele>694.25</ele><time>2026-03-22T10:36:53.186Z</time></trkpt><trkpt lat="45.5789283" lon="10.37622"><ele>694.5</ele><time>2026-03-22T10:36:54.188Z</time></trkpt><trkpt lat="45.57892" lon="10.376035"><ele>694.75</ele><time>2026-03-22T10:36:55.187Z</time></trkpt><trkpt lat="45.5788983" lon="10.3758517"><ele>695.0</ele><time>2026-03-22T10:36:56.184Z</time></trkpt><trkpt lat="45.578865" lon="10.37567"><ele>695.75</ele><time>2026-03-22T10:36:57.185Z</time></trkpt><trkpt lat="45.5788183" lon="10.37549"><ele>696.5</ele><time>2026-03-22T10:36:58.185Z</time></trkpt><trkpt lat="45.5787583" lon="10.37532"><ele>697.25</ele><time>2026-03-22T10:36:59.186Z</time></trkpt><trkpt lat="45.5786933" lon="10.37516"><ele>698.0</ele><time>2026-03-22T10:37:00.185Z</time></trkpt><trkpt lat="45.57862" lon="10.3750083"><ele>695.0</ele><time>2026-03-22T10:37:01.186Z</time></trkpt><trkpt lat="45.5785467" lon="10.3748583"><ele>692.0</ele><time>2026-03-22T10:37:02.185Z</time></trkpt><trkpt lat="45.578475" lon="10.3747033"><ele>689.0</ele><time>2026-03-22T10:37:03.185Z</time></trkpt><trkpt lat="45.5784" lon="10.3745533"><ele>686.0</ele><time>2026-03-22T10:37:04.191Z</time></trkpt><trkpt lat="45.5783267" lon="10.374405"><ele>686.0</ele><time>2026-03-22T10:37:05.188Z</time></trkpt><trkpt lat="45.5782533" lon="10.374265"><ele>686.0</ele><time>2026-03-22T10:37:06.186Z</time></trkpt><trkpt lat="45.5781783" lon="10.3741283"><ele>686.0</ele><time>2026-03-22T10:37:07.187Z</time></trkpt><trkpt lat="45.5781067" lon="10.3739833"><ele>686.0</ele><time>2026-03-22T10:37:08.189Z</time></trkpt><trkpt lat="45.5780383" lon="10.373835"><ele>685.4</ele><time>2026-03-22T10:37:09.186Z</time></trkpt><trkpt lat="45.5779733" lon="10.3736917"><ele>684.8</ele><time>2026-03-22T10:37:10.186Z</time></trkpt><trkpt lat="45.5779183" lon="10.3735567"><ele>684.1999999999999</ele><time>2026-03-22T10:37:11.187Z</time></trkpt><trkpt lat="45.577875" lon="10.3734317"><ele>683.5999999999999</ele><time>2026-03-22T10:37:12.188Z</time></trkpt><trkpt lat="45.5778467" lon="10.3733017"><ele>683.0</ele><time>2026-03-22T10:37:13.186Z</time></trkpt><trkpt lat="45.5778333" lon="10.3731533"><ele>683.25</ele><time>2026-03-22T10:37:14.187Z</time></trkpt><trkpt lat="45.5778367" lon="10.3729967"><ele>683.5</ele><time>2026-03-22T10:37:15.185Z</time></trkpt><trkpt lat="45.5778583" lon="10.37283"><ele>683.75</ele><time>2026-03-22T10:37:16.185Z</time></trkpt><trkpt lat="45.57789" lon="10.37267"><ele>684.0</ele><time>2026-03-22T10:37:17.186Z</time></trkpt><trkpt lat="45.5779183" lon="10.3725233"><ele>683.6</ele><time>2026-03-22T10:37:18.186Z</time></trkpt><trkpt lat="45.5779367" lon="10.3723917"><ele>683.2</ele><time>2026-03-22T10:37:19.186Z</time></trkpt><trkpt lat="45.577935" lon="10.37227"><ele>682.8000000000001</ele><time>2026-03-22T10:37:20.187Z</time></trkpt><trkpt lat="45.5779133" lon="10.37215"><ele>682.4000000000001</ele><time>2026-03-22T10:37:21.186Z</time></trkpt><trkpt lat="45.5778733" lon="10.3720367"><ele>682.0</ele><time>2026-03-22T10:37:22.187Z</time></trkpt><trkpt lat="45.577815" lon="10.37192"><ele>682.0</ele><time>2026-03-22T10:37:23.186Z</time></trkpt><trkpt lat="45.577755" lon="10.371795"><ele>682.0</ele><time>2026-03-22T10:37:24.186Z</time></trkpt><trkpt lat="45.5777033" lon="10.371665"><ele>682.0</ele><time>2026-03-22T10:37:25.185Z</time></trkpt><trkpt lat="45.5776583" lon="10.3715433"><ele>682.0</ele><time>2026-03-22T10:37:26.186Z</time></trkpt><trkpt lat="45.5776267" lon="10.37142"><ele>682.0</ele><time>2026-03-22T10:37:27.185Z</time></trkpt><trkpt lat="45.5776083" lon="10.3712967"><ele>681.0</ele><time>2026-03-22T10:37:28.187Z</time></trkpt><trkpt lat="45.577615" lon="10.371165"><ele>680.0</ele><time>2026-03-22T10:37:29.186Z</time></trkpt><trkpt lat="45.57765" lon="10.3710167"><ele>679.0</ele><time>2026-03-22T10:37:30.185Z</time></trkpt><trkpt lat="45.5776917" lon="10.370865"><ele>678.0</ele><time>2026-03-22T10:37:31.184Z</time></trkpt><trkpt lat="45.5777383" lon="10.3707133"><ele>677.0</ele><time>2026-03-22T10:37:32.186Z</time></trkpt><trkpt lat="45.5777817" lon="10.3705717"><ele>677.8</ele><time>2026-03-22T10:37:33.185Z</time></trkpt><trkpt lat="45.5778283" lon="10.370435"><ele>678.6</ele><time>2026-03-22T10:37:34.187Z</time></trkpt><trkpt lat="45.5778617" lon="10.3702983"><ele>679.4</ele><time>2026-03-22T10:37:35.185Z</time></trkpt><trkpt lat="45.5778633" lon="10.37016"><ele>680.1999999999999</ele><time>2026-03-22T10:37:36.186Z</time></trkpt><trkpt lat="45.5778317" lon="10.370015"><ele>681.0</ele><time>2026-03-22T10:37:37.184Z</time></trkpt><trkpt lat="45.5777717" lon="10.3698733"><ele>678.25</ele><time>2026-03-22T10:37:38.186Z</time></trkpt><trkpt lat="45.5776917" lon="10.3697467"><ele>675.5</ele><time>2026-03-22T10:37:39.185Z</time></trkpt><trkpt lat="45.5775983" lon="10.3696167"><ele>672.75</ele><time>2026-03-22T10:37:40.185Z</time></trkpt><trkpt lat="45.5775017" lon="10.36948"><ele>670.0</ele><time>2026-03-22T10:37:41.186Z</time></trkpt><trkpt lat="45.5774083" lon="10.3693517"><ele>669.75</ele><time>2026-03-22T10:37:42.184Z</time></trkpt><trkpt lat="45.5773167" lon="10.36923"><ele>669.5</ele><time>2026-03-22T10:37:43.186Z</time></trkpt><trkpt lat="45.5772367" lon="10.3691067"><ele>669.25</ele><time>2026-03-22T10:37:44.186Z</time></trkpt><trkpt lat="45.5771617" lon="10.3689733"><ele>669.0</ele><time>2026-03-22T10:37:45.186Z</time></trkpt><trkpt lat="45.5770783" lon="10.36884"><ele>668.5</ele><time>2026-03-22T10:37:46.188Z</time></trkpt><trkpt lat="45.5769867" lon="10.3687183"><ele>668.0</ele><time>2026-03-22T10:37:47.187Z</time></trkpt><trkpt lat="45.5768867" lon="10.3686017"><ele>667.5</ele><time>2026-03-22T10:37:48.188Z</time></trkpt><trkpt lat="45.57679" lon="10.368495"><ele>667.0</ele><time>2026-03-22T10:37:49.184Z</time></trkpt><trkpt lat="45.5767083" lon="10.3684017"><ele>667.0</ele><time>2026-03-22T10:37:50.185Z</time></trkpt><trkpt lat="45.5766467" lon="10.368305"><ele>667.0</ele><time>2026-03-22T10:37:51.185Z</time></trkpt><trkpt lat="45.57661" lon="10.368195"><ele>667.0</ele><time>2026-03-22T10:37:52.186Z</time></trkpt><trkpt lat="45.5765933" lon="10.368075"><ele>667.0</ele><time>2026-03-22T10:37:53.185Z</time></trkpt><trkpt lat="45.5765883" lon="10.367965"><ele>667.0</ele><time>2026-03-22T10:37:54.184Z</time></trkpt><trkpt lat="45.5765733" lon="10.367835"><ele>667.0</ele><time>2026-03-22T10:37:56.186Z</time></trkpt><trkpt lat="45.5765133" lon="10.36777"><ele>666.8</ele><time>2026-03-22T10:37:58.184Z</time></trkpt><trkpt lat="45.5763817" lon="10.3677117"><ele>666.6</ele><time>2026-03-22T10:38:00.187Z</time></trkpt><trkpt lat="45.5762983" lon="10.3676817"><ele>666.4</ele><time>2026-03-22T10:38:01.185Z</time></trkpt><trkpt lat="45.576205" lon="10.36765"><ele>666.1999999999999</ele><time>2026-03-22T10:38:02.185Z</time></trkpt><trkpt lat="45.57611" lon="10.3676167"><ele>666.0</ele><time>2026-03-22T10:38:03.186Z</time></trkpt><trkpt lat="45.5760233" lon="10.3675833"><ele>666.0</ele><time>2026-03-22T10:38:04.186Z</time></trkpt><trkpt lat="45.5759367" lon="10.3675517"><ele>666.0</ele><time>2026-03-22T10:38:05.186Z</time></trkpt><trkpt lat="45.5758583" lon="10.3675283"><ele>666.0</ele><time>2026-03-22T10:38:06.184Z</time></trkpt><trkpt lat="45.575795" lon="10.36751"><ele>666.0</ele><time>2026-03-22T10:38:07.185Z</time></trkpt><trkpt lat="45.575715" lon="10.3675017"><ele>666.0</ele><time>2026-03-22T10:38:09.184Z</time></trkpt><trkpt lat="45.5756317" lon="10.3675867"><ele>666.0</ele><time>2026-03-22T10:38:39.185Z</time></trkpt><trkpt lat="45.5755267" lon="10.3677167"><ele>666.0</ele><time>2026-03-22T10:38:41.184Z</time></trkpt><trkpt lat="45.5754717" lon="10.367805"><ele>666.0</ele><time>2026-03-22T10:38:42.184Z</time></trkpt><trkpt lat="45.5754217" lon="10.36791"><ele>666.0</ele><time>2026-03-22T10:38:43.184Z</time></trkpt><trkpt lat="45.57538" lon="10.3680233"><ele>666.0</ele><time>2026-03-22T10:38:44.186Z</time></trkpt><trkpt lat="45.5753383" lon="10.3681333"><ele>666.0</ele><time>2026-03-22T10:38:45.185Z</time></trkpt><trkpt lat="45.5752917" lon="10.3682267"><ele>666.0</ele><time>2026-03-22T10:38:46.184Z</time></trkpt><trkpt lat="45.5752433" lon="10.36831"><ele>664.8</ele><time>2026-03-22T10:38:47.185Z</time></trkpt><trkpt lat="45.575185" lon="10.3683783"><ele>663.5999999999999</ele><time>2026-03-22T10:38:48.186Z</time></trkpt><trkpt lat="45.5750883" lon="10.3684083"><ele>662.4</ele><time>2026-03-22T10:38:49.184Z</time></trkpt><trkpt lat="45.574975" lon="10.3684383"><ele>661.2</ele><time>2026-03-22T10:38:50.185Z</time></trkpt><trkpt lat="45.5748583" lon="10.3684617"><ele>660.0</ele><time>2026-03-22T10:38:51.185Z</time></trkpt><trkpt lat="45.5747433" lon="10.3684883"><ele>660.0</ele><time>2026-03-22T10:38:52.186Z</time></trkpt><trkpt lat="45.5746383" lon="10.3685167"><ele>660.0</ele><time>2026-03-22T10:38:53.185Z</time></trkpt><trkpt lat="45.5745367" lon="10.368545"><ele>660.0</ele><time>2026-03-22T10:38:54.185Z</time></trkpt><trkpt lat="45.5744533" lon="10.3685917"><ele>660.0</ele><time>2026-03-22T10:38:55.189Z</time></trkpt><trkpt lat="45.5743833" lon="10.3686533"><ele>660.0</ele><time>2026-03-22T10:38:56.186Z</time></trkpt><trkpt lat="45.57432" lon="10.36875"><ele>659.0</ele><time>2026-03-22T10:38:57.185Z</time></trkpt><trkpt lat="45.57427" lon="10.3688583"><ele>658.0</ele><time>2026-03-22T10:38:58.184Z</time></trkpt><trkpt lat="45.5742433" lon="10.3690033"><ele>657.0</ele><time>2026-03-22T10:38:59.186Z</time></trkpt><trkpt lat="45.57422" lon="10.3691267"><ele>656.0</ele><time>2026-03-22T10:39:00.187Z</time></trkpt><trkpt lat="45.5741867" lon="10.36926"><ele>655.0</ele><time>2026-03-22T10:39:02.186Z</time></trkpt><trkpt lat="45.5742067" lon="10.36937"><ele>655.0</ele><time>2026-03-22T10:39:07.187Z</time></trkpt><trkpt lat="45.574215" lon="10.3694617"><ele>655.0</ele><time>2026-03-22T10:39:08.188Z</time></trkpt><trkpt lat="45.5742183" lon="10.369615"><ele>655.0</ele><time>2026-03-22T10:39:09.187Z</time></trkpt><trkpt lat="45.5741983" lon="10.3697883"><ele>655.0</ele><time>2026-03-22T10:39:10.186Z</time></trkpt><trkpt lat="45.5741717" lon="10.3699683"><ele>655.0</ele><time>2026-03-22T10:39:11.187Z</time></trkpt><trkpt lat="45.5741433" lon="10.370145"><ele>655.0</ele><time>2026-03-22T10:39:12.186Z</time></trkpt><trkpt lat="45.574115" lon="10.3703117"><ele>655.0</ele><time>2026-03-22T10:39:13.186Z</time></trkpt><trkpt lat="45.5740883" lon="10.3704667"><ele>655.0</ele><time>2026-03-22T10:39:14.186Z</time></trkpt><trkpt lat="45.5740633" lon="10.3706183"><ele>655.0</ele><time>2026-03-22T10:39:15.186Z</time></trkpt><trkpt lat="45.57403" lon="10.37075"><ele>655.0</ele><time>2026-03-22T10:39:16.186Z</time></trkpt><trkpt lat="45.5739967" lon="10.3708767"><ele>654.0</ele><time>2026-03-22T10:39:17.185Z</time></trkpt><trkpt lat="45.573965" lon="10.3709983"><ele>653.0</ele><time>2026-03-22T10:39:18.185Z</time></trkpt><trkpt lat="45.5739467" lon="10.371125"><ele>652.0</ele><time>2026-03-22T10:39:19.186Z</time></trkpt><trkpt lat="45.5739333" lon="10.3712583"><ele>651.0</ele><time>2026-03-22T10:39:20.186Z</time></trkpt><trkpt lat="45.5739283" lon="10.3714033"><ele>650.0</ele><time>2026-03-22T10:39:21.187Z</time></trkpt><trkpt lat="45.5739267" lon="10.3715467"><ele>649.25</ele><time>2026-03-22T10:39:22.188Z</time></trkpt><trkpt lat="45.573935" lon="10.3717"><ele>648.5</ele><time>2026-03-22T10:39:23.186Z</time></trkpt><trkpt lat="45.5739617" lon="10.37185"><ele>647.75</ele><time>2026-03-22T10:39:24.187Z</time></trkpt><trkpt lat="45.5740083" lon="10.3719983"><ele>647.0</ele><time>2026-03-22T10:39:25.185Z</time></trkpt><trkpt lat="45.5740717" lon="10.3721483"><ele>647.0</ele><time>2026-03-22T10:39:26.186Z</time></trkpt><trkpt lat="45.57414" lon="10.3723017"><ele>647.0</ele><time>2026-03-22T10:39:27.186Z</time></trkpt><trkpt lat="45.5742033" lon="10.3724483"><ele>647.0</ele><time>2026-03-22T10:39:28.186Z</time></trkpt><trkpt lat="45.57426" lon="10.3725917"><ele>647.0</ele><time>2026-03-22T10:39:29.187Z</time></trkpt><trkpt lat="45.57431" lon="10.3727233"><ele>647.0</ele><time>2026-03-22T10:39:30.187Z</time></trkpt><trkpt lat="45.57436" lon="10.3728467"><ele>647.0</ele><time>2026-03-22T10:39:31.186Z</time></trkpt><trkpt lat="45.57441" lon="10.3729583"><ele>647.0</ele><time>2026-03-22T10:39:32.186Z</time></trkpt><trkpt lat="45.5744583" lon="10.3730517"><ele>647.0</ele><time>2026-03-22T10:39:33.186Z</time></trkpt><trkpt lat="45.5745017" lon="10.3731317"><ele>647.0</ele><time>2026-03-22T10:39:34.185Z</time></trkpt><trkpt lat="45.574535" lon="10.3732167"><ele>647.0</ele><time>2026-03-22T10:39:35.186Z</time></trkpt><trkpt lat="45.5745567" lon="10.37331"><ele>645.3333333333333</ele><time>2026-03-22T10:39:36.186Z</time></trkpt><trkpt lat="45.5745617" lon="10.3734183"><ele>643.6666666666666</ele><time>2026-03-22T10:39:37.186Z</time></trkpt><trkpt lat="45.5745533" lon="10.3735433"><ele>642.0</ele><time>2026-03-22T10:39:38.188Z</time></trkpt><trkpt lat="45.5745483" lon="10.3736683"><ele>640.3333333333334</ele><time>2026-03-22T10:39:39.186Z</time></trkpt><trkpt lat="45.57454" lon="10.3737867"><ele>638.6666666666667</ele><time>2026-03-22T10:39:40.186Z</time></trkpt><trkpt lat="45.57454" lon="10.3738967"><ele>637.0</ele><time>2026-03-22T10:39:41.186Z</time></trkpt><trkpt lat="45.5745933" lon="10.3740317"><ele>635.0</ele><time>2026-03-22T10:39:43.184Z</time></trkpt><trkpt lat="45.57473" lon="10.37406"><ele>633.0</ele><time>2026-03-22T10:39:45.187Z</time></trkpt><trkpt lat="45.5748033" lon="10.3740733"><ele>631.0</ele><time>2026-03-22T10:39:46.184Z</time></trkpt><trkpt lat="45.57487" lon="10.3740983"><ele>629.0</ele><time>2026-03-22T10:39:47.184Z</time></trkpt><trkpt lat="45.574925" lon="10.3741433"><ele>627.0</ele><time>2026-03-22T10:39:48.186Z</time></trkpt><trkpt lat="45.5750183" lon="10.3742233"><ele>627.0</ele><time>2026-03-22T10:39:50.187Z</time></trkpt><trkpt lat="45.5751133" lon="10.3743"><ele>627.0</ele><time>2026-03-22T10:39:52.186Z</time></trkpt><trkpt lat="45.5751517" lon="10.3744"><ele>627.0</ele><time>2026-03-22T10:39:54.185Z</time></trkpt><trkpt lat="45.5751" lon="10.3745283"><ele>627.0</ele><time>2026-03-22T10:39:56.187Z</time></trkpt><trkpt lat="45.574995" lon="10.3746567"><ele>627.0</ele><time>2026-03-22T10:39:58.185Z</time></trkpt><trkpt lat="45.5749367" lon="10.37473"><ele>625.6666666666666</ele><time>2026-03-22T10:39:59.184Z</time></trkpt><trkpt lat="45.5748767" lon="10.3748017"><ele>624.3333333333334</ele><time>2026-03-22T10:40:00.185Z</time></trkpt><trkpt lat="45.57482" lon="10.3748667"><ele>623.0</ele><time>2026-03-22T10:40:01.184Z</time></trkpt><trkpt lat="45.5747667" lon="10.3749317"><ele>621.6666666666667</ele><time>2026-03-22T10:40:02.185Z</time></trkpt><trkpt lat="45.57471" lon="10.3749983"><ele>620.3333333333334</ele><time>2026-03-22T10:40:03.184Z</time></trkpt><trkpt lat="45.5746483" lon="10.37507"><ele>619.0</ele><time>2026-03-22T10:40:04.185Z</time></trkpt><trkpt lat="45.5745767" lon="10.3751367"><ele>618.5</ele><time>2026-03-22T10:40:05.184Z</time></trkpt><trkpt lat="45.574505" lon="10.3752017"><ele>618.0</ele><time>2026-03-22T10:40:06.185Z</time></trkpt><trkpt lat="45.5744367" lon="10.37526"><ele>617.5</ele><time>2026-03-22T10:40:07.186Z</time></trkpt><trkpt lat="45.5743683" lon="10.375315"><ele>617.0</ele><time>2026-03-22T10:40:08.186Z</time></trkpt><trkpt lat="45.5743017" lon="10.3753667"><ele>616.5</ele><time>2026-03-22T10:40:09.186Z</time></trkpt><trkpt lat="45.5742267" lon="10.375425"><ele>616.0</ele><time>2026-03-22T10:40:10.185Z</time></trkpt><trkpt lat="45.5741517" lon="10.375485"><ele>613.2</ele><time>2026-03-22T10:40:11.186Z</time></trkpt><trkpt lat="45.5740833" lon="10.3755383"><ele>610.4000000000001</ele><time>2026-03-22T10:40:12.184Z</time></trkpt><trkpt lat="45.5739917" lon="10.3756133"><ele>607.6</ele><time>2026-03-22T10:40:14.185Z</time></trkpt><trkpt lat="45.5739033" lon="10.37568"><ele>604.8000000000001</ele><time>2026-03-22T10:40:16.186Z</time></trkpt><trkpt lat="45.57381" lon="10.375755"><ele>602.0</ele><time>2026-03-22T10:40:18.185Z</time></trkpt><trkpt lat="45.5737283" lon="10.3758267"><ele>600.1666666666666</ele><time>2026-03-22T10:40:20.186Z</time></trkpt><trkpt lat="45.57364" lon="10.3758617"><ele>598.3333333333333</ele><time>2026-03-22T10:40:22.185Z</time></trkpt><trkpt lat="45.5735383" lon="10.375855"><ele>596.5</ele><time>2026-03-22T10:40:24.185Z</time></trkpt><trkpt lat="45.5734733" lon="10.37583"><ele>594.6666666666666</ele><time>2026-03-22T10:40:25.185Z</time></trkpt><trkpt lat="45.5734033" lon="10.3758067"><ele>592.8333333333334</ele><time>2026-03-22T10:40:26.189Z</time></trkpt><trkpt lat="45.57333" lon="10.3757783"><ele>591.0</ele><time>2026-03-22T10:40:27.188Z</time></trkpt><trkpt lat="45.573255" lon="10.3757483"><ele>591.0</ele><time>2026-03-22T10:40:28.193Z</time></trkpt><trkpt lat="45.57318" lon="10.3757067"><ele>591.0</ele><time>2026-03-22T10:40:29.185Z</time></trkpt><trkpt lat="45.5731033" lon="10.3756567"><ele>591.0</ele><time>2026-03-22T10:40:30.184Z</time></trkpt><trkpt lat="45.57303" lon="10.3755983"><ele>591.0</ele><time>2026-03-22T10:40:31.185Z</time></trkpt><trkpt lat="45.572955" lon="10.37554"><ele>591.0</ele><time>2026-03-22T10:40:32.185Z</time></trkpt><trkpt lat="45.57288" lon="10.3754883"><ele>591.0</ele><time>2026-03-22T10:40:33.184Z</time></trkpt><trkpt lat="45.5728017" lon="10.3754333"><ele>589.6</ele><time>2026-03-22T10:40:34.184Z</time></trkpt><trkpt lat="45.5727117" lon="10.375375"><ele>588.2</ele><time>2026-03-22T10:40:35.185Z</time></trkpt><trkpt lat="45.5726117" lon="10.37532"><ele>586.8</ele><time>2026-03-22T10:40:36.184Z</time></trkpt><trkpt lat="45.57251" lon="10.3752717"><ele>585.4</ele><time>2026-03-22T10:40:37.185Z</time></trkpt><trkpt lat="45.57241" lon="10.3752217"><ele>584.0</ele><time>2026-03-22T10:40:38.184Z</time></trkpt><trkpt lat="45.5723083" lon="10.3751683"><ele>584.0</ele><time>2026-03-22T10:40:39.184Z</time></trkpt><trkpt lat="45.5722017" lon="10.37512"><ele>584.0</ele><time>2026-03-22T10:40:40.184Z</time></trkpt><trkpt lat="45.5720933" lon="10.37507"><ele>584.0</ele><time>2026-03-22T10:40:41.186Z</time></trkpt><trkpt lat="45.5719783" lon="10.3750267"><ele>584.0</ele><time>2026-03-22T10:40:42.184Z</time></trkpt><trkpt lat="45.571865" lon="10.3749733"><ele>579.25</ele><time>2026-03-22T10:40:43.184Z</time></trkpt><trkpt lat="45.571745" lon="10.374925"><ele>574.5</ele><time>2026-03-22T10:40:44.185Z</time></trkpt><trkpt lat="45.57162" lon="10.37488"><ele>569.75</ele><time>2026-03-22T10:40:45.187Z</time></trkpt><trkpt lat="45.5714983" lon="10.3748383"><ele>565.0</ele><time>2026-03-22T10:40:46.184Z</time></trkpt><trkpt lat="45.5713767" lon="10.3748017"><ele>565.0</ele><time>2026-03-22T10:40:47.186Z</time></trkpt><trkpt lat="45.5712617" lon="10.3747683"><ele>565.0</ele><time>2026-03-22T10:40:48.186Z</time></trkpt><trkpt lat="45.57115" lon="10.37474"><ele>565.0</ele><time>2026-03-22T10:40:49.187Z</time></trkpt><trkpt lat="45.57104" lon="10.3747167"><ele>565.0</ele><time>2026-03-22T10:40:50.186Z</time></trkpt><trkpt lat="45.5709317" lon="10.3746983"><ele>564.8</ele><time>2026-03-22T10:40:51.187Z</time></trkpt><trkpt lat="45.5708217" lon="10.3746883"><ele>564.6</ele><time>2026-03-22T10:40:52.188Z</time></trkpt><trkpt lat="45.5707133" lon="10.3746733"><ele>564.4</ele><time>2026-03-22T10:40:53.186Z</time></trkpt><trkpt lat="45.570605" lon="10.374655"><ele>564.2</ele><time>2026-03-22T10:40:54.187Z</time></trkpt><trkpt lat="45.5704983" lon="10.37462"><ele>564.0</ele><time>2026-03-22T10:40:55.186Z</time></trkpt><trkpt lat="45.5703917" lon="10.3745717"><ele>560.0</ele><time>2026-03-22T10:40:56.186Z</time></trkpt><trkpt lat="45.5702833" lon="10.37452"><ele>556.0</ele><time>2026-03-22T10:40:57.19Z</time></trkpt><trkpt lat="45.5701733" lon="10.374475"><ele>552.0</ele><time>2026-03-22T10:40:58.187Z</time></trkpt><trkpt lat="45.570065" lon="10.3744283"><ele>548.0</ele><time>2026-03-22T10:40:59.19Z</time></trkpt><trkpt lat="45.569955" lon="10.3743867"><ele>548.0</ele><time>2026-03-22T10:41:00.186Z</time></trkpt><trkpt lat="45.5698517" lon="10.374345"><ele>548.0</ele><time>2026-03-22T10:41:01.187Z</time></trkpt><trkpt lat="45.569755" lon="10.374305"><ele>548.0</ele><time>2026-03-22T10:41:02.186Z</time></trkpt><trkpt lat="45.5696683" lon="10.37427"><ele>548.0</ele><time>2026-03-22T10:41:03.186Z</time></trkpt><trkpt lat="45.569595" lon="10.37424"><ele>548.0</ele><time>2026-03-22T10:41:04.185Z</time></trkpt><trkpt lat="45.5695267" lon="10.3742217"><ele>548.0</ele><time>2026-03-22T10:41:05.187Z</time></trkpt><trkpt lat="45.5694167" lon="10.3742567"><ele>546.3333333333333</ele><time>2026-03-22T10:41:07.185Z</time></trkpt><trkpt lat="45.5693717" lon="10.3743217"><ele>544.6666666666666</ele><time>2026-03-22T10:41:08.187Z</time></trkpt><trkpt lat="45.5693233" lon="10.3744117"><ele>543.0</ele><time>2026-03-22T10:41:09.185Z</time></trkpt><trkpt lat="45.5692733" lon="10.3744967"><ele>541.3333333333334</ele><time>2026-03-22T10:41:10.185Z</time></trkpt><trkpt lat="45.5692133" lon="10.3745767"><ele>539.6666666666667</ele><time>2026-03-22T10:41:11.187Z</time></trkpt><trkpt lat="45.5691383" lon="10.374655"><ele>538.0</ele><time>2026-03-22T10:41:12.186Z</time></trkpt><trkpt lat="45.5690533" lon="10.37473"><ele>535.0</ele><time>2026-03-22T10:41:13.185Z</time></trkpt><trkpt lat="45.568975" lon="10.374815"><ele>532.0</ele><time>2026-03-22T10:41:14.185Z</time></trkpt><trkpt lat="45.5688817" lon="10.3748767"><ele>529.0</ele><time>2026-03-22T10:41:15.185Z</time></trkpt><trkpt lat="45.5687817" lon="10.37493"><ele>526.0</ele><time>2026-03-22T10:41:16.185Z</time></trkpt><trkpt lat="45.5686733" lon="10.3749667"><ele>523.0</ele><time>2026-03-22T10:41:17.186Z</time></trkpt><trkpt lat="45.5685567" lon="10.3749983"><ele>521.0</ele><time>2026-03-22T10:41:18.187Z</time></trkpt><trkpt lat="45.56845" lon="10.3750283"><ele>519.0</ele><time>2026-03-22T10:41:19.186Z</time></trkpt><trkpt lat="45.568345" lon="10.3750433"><ele>517.0</ele><time>2026-03-22T10:41:20.187Z</time></trkpt><trkpt lat="45.5682517" lon="10.3750533"><ele>515.0</ele><time>2026-03-22T10:41:21.186Z</time></trkpt><trkpt lat="45.5681633" lon="10.3750467"><ele>513.0</ele><time>2026-03-22T10:41:22.187Z</time></trkpt><trkpt lat="45.568075" lon="10.375025"><ele>513.0</ele><time>2026-03-22T10:41:23.187Z</time></trkpt><trkpt lat="45.56798" lon="10.3749917"><ele>513.0</ele><time>2026-03-22T10:41:24.186Z</time></trkpt><trkpt lat="45.5678817" lon="10.3749517"><ele>513.0</ele><time>2026-03-22T10:41:25.185Z</time></trkpt><trkpt lat="45.5677883" lon="10.374915"><ele>513.0</ele><time>2026-03-22T10:41:26.186Z</time></trkpt><trkpt lat="45.5677033" lon="10.374875"><ele>513.0</ele><time>2026-03-22T10:41:27.186Z</time></trkpt><trkpt lat="45.56762" lon="10.3748383"><ele>513.1666666666666</ele><time>2026-03-22T10:41:28.185Z</time></trkpt><trkpt lat="45.56755" lon="10.374795"><ele>513.3333333333334</ele><time>2026-03-22T10:41:29.185Z</time></trkpt><trkpt lat="45.5674783" lon="10.37476"><ele>513.5</ele><time>2026-03-22T10:41:30.187Z</time></trkpt><trkpt lat="45.5674083" lon="10.374735"><ele>513.6666666666667</ele><time>2026-03-22T10:41:31.188Z</time></trkpt><trkpt lat="45.5673033" lon="10.3746467"><ele>513.8333333333334</ele><time>2026-03-22T10:41:33.186Z</time></trkpt><trkpt lat="45.567255" lon="10.3745833"><ele>514.0</ele><time>2026-03-22T10:41:34.185Z</time></trkpt><trkpt lat="45.5672117" lon="10.374505"><ele>514.0</ele><time>2026-03-22T10:41:35.186Z</time></trkpt><trkpt lat="45.5671233" lon="10.3743283"><ele>514.0</ele><time>2026-03-22T10:41:37.186Z</time></trkpt><trkpt lat="45.5670883" lon="10.374245"><ele>514.0</ele><time>2026-03-22T10:41:38.186Z</time></trkpt><trkpt lat="45.567025" lon="10.37412"><ele>514.0</ele><time>2026-03-22T10:41:40.185Z</time></trkpt><trkpt lat="45.566955" lon="10.3740833"><ele>514.0</ele><time>2026-03-22T10:41:42.186Z</time></trkpt><trkpt lat="45.566885" lon="10.3741417"><ele>510.33333333333337</ele><time>2026-03-22T10:41:44.186Z</time></trkpt><trkpt lat="45.5668067" lon="10.3741467"><ele>506.6666666666667</ele><time>2026-03-22T10:41:46.186Z</time></trkpt><trkpt lat="45.5667367" lon="10.37406"><ele>503.0</ele><time>2026-03-22T10:41:48.186Z</time></trkpt><trkpt lat="45.5667083" lon="10.3739633"><ele>499.33333333333337</ele><time>2026-03-22T10:41:49.186Z</time></trkpt><trkpt lat="45.5666833" lon="10.3738483"><ele>495.6666666666667</ele><time>2026-03-22T10:41:50.186Z</time></trkpt><trkpt lat="45.5666567" lon="10.3737367"><ele>492.0</ele><time>2026-03-22T10:41:51.19Z</time></trkpt><trkpt lat="45.5666183" lon="10.3736383"><ele>492.0</ele><time>2026-03-22T10:41:52.185Z</time></trkpt><trkpt lat="45.56657" lon="10.3735567"><ele>492.0</ele><time>2026-03-22T10:41:53.187Z</time></trkpt><trkpt lat="45.566505" lon="10.3734833"><ele>492.0</ele><time>2026-03-22T10:41:54.185Z</time></trkpt><trkpt lat="45.5664317" lon="10.3734133"><ele>492.0</ele><time>2026-03-22T10:41:55.185Z</time></trkpt><trkpt lat="45.5663567" lon="10.3733367"><ele>492.0</ele><time>2026-03-22T10:41:56.186Z</time></trkpt><trkpt lat="45.5662867" lon="10.3732683"><ele>492.0</ele><time>2026-03-22T10:41:57.186Z</time></trkpt><trkpt lat="45.566225" lon="10.3732167"><ele>490.6</ele><time>2026-03-22T10:41:58.186Z</time></trkpt><trkpt lat="45.5661117" lon="10.3731833"><ele>489.20000000000005</ele><time>2026-03-22T10:42:00.185Z</time></trkpt><trkpt lat="45.5660067" lon="10.37317"><ele>487.8</ele><time>2026-03-22T10:42:02.186Z</time></trkpt><trkpt lat="45.56591" lon="10.3731283"><ele>486.4</ele><time>2026-03-22T10:42:04.187Z</time></trkpt><trkpt lat="45.5658217" lon="10.3730667"><ele>485.0</ele><time>2026-03-22T10:42:06.185Z</time></trkpt><trkpt lat="45.5657617" lon="10.3730083"><ele>485.0</ele><time>2026-03-22T10:42:08.187Z</time></trkpt><trkpt lat="45.5657317" lon="10.37291"><ele>485.0</ele><time>2026-03-22T10:42:11.187Z</time></trkpt><trkpt lat="45.5657633" lon="10.3728067"><ele>485.0</ele><time>2026-03-22T10:42:13.186Z</time></trkpt><trkpt lat="45.5658017" lon="10.3726933"><ele>485.0</ele><time>2026-03-22T10:42:15.187Z</time></trkpt><trkpt lat="45.565795" lon="10.3725533"><ele>485.0</ele><time>2026-03-22T10:42:17.186Z</time></trkpt><trkpt lat="45.5657233" lon="10.37243"><ele>485.0</ele><time>2026-03-22T10:42:19.186Z</time></trkpt><trkpt lat="45.5656933" lon="10.3723267"><ele>485.0</ele><time>2026-03-22T10:42:21.186Z</time></trkpt><trkpt lat="45.5657267" lon="10.3722117"><ele>485.0</ele><time>2026-03-22T10:42:23.186Z</time></trkpt><trkpt lat="45.5658" lon="10.37211"><ele>485.0</ele><time>2026-03-22T10:42:25.187Z</time></trkpt><trkpt lat="45.5658633" lon="10.372015"><ele>485.0</ele><time>2026-03-22T10:42:27.185Z</time></trkpt><trkpt lat="45.565905" lon="10.3718583"><ele>486.0</ele><time>2026-03-22T10:42:29.186Z</time></trkpt><trkpt lat="45.565925" lon="10.3717583"><ele>487.0</ele><time>2026-03-22T10:42:30.186Z</time></trkpt><trkpt lat="45.5659467" lon="10.3716433"><ele>488.0</ele><time>2026-03-22T10:42:31.185Z</time></trkpt><trkpt lat="45.5659667" lon="10.3715167"><ele>489.0</ele><time>2026-03-22T10:42:32.187Z</time></trkpt><trkpt lat="45.56598" lon="10.3713867"><ele>490.0</ele><time>2026-03-22T10:42:33.185Z</time></trkpt><trkpt lat="45.5659983" lon="10.37123"><ele>491.0</ele><time>2026-03-22T10:42:34.186Z</time></trkpt><trkpt lat="45.5660133" lon="10.371085"><ele>492.0</ele><time>2026-03-22T10:42:35.185Z</time></trkpt><trkpt lat="45.5660217" lon="10.3709433"><ele>493.0</ele><time>2026-03-22T10:42:36.185Z</time></trkpt><trkpt lat="45.5660083" lon="10.370815"><ele>494.0</ele><time>2026-03-22T10:42:37.187Z</time></trkpt><trkpt lat="45.5659867" lon="10.3706833"><ele>495.0</ele><time>2026-03-22T10:42:38.186Z</time></trkpt><trkpt lat="45.56597" lon="10.3705567"><ele>496.6</ele><time>2026-03-22T10:42:39.185Z</time></trkpt><trkpt lat="45.5659633" lon="10.3704333"><ele>498.2</ele><time>2026-03-22T10:42:40.186Z</time></trkpt><trkpt lat="45.5659683" lon="10.3703067"><ele>499.79999999999995</ele><time>2026-03-22T10:42:41.185Z</time></trkpt><trkpt lat="45.5659817" lon="10.3701767"><ele>501.4</ele><time>2026-03-22T10:42:42.186Z</time></trkpt><trkpt lat="45.56599" lon="10.3700467"><ele>503.0</ele><time>2026-03-22T10:42:43.185Z</time></trkpt><trkpt lat="45.5659833" lon="10.3699167"><ele>502.99999999999994</ele><time>2026-03-22T10:42:44.186Z</time></trkpt><trkpt lat="45.5659633" lon="10.36979"><ele>503.0</ele><time>2026-03-22T10:42:45.187Z</time></trkpt><trkpt lat="45.56594" lon="10.3696717"><ele>503.0</ele><time>2026-03-22T10:42:46.186Z</time></trkpt><trkpt lat="45.5659183" lon="10.3695567"><ele>503.0</ele><time>2026-03-22T10:42:47.186Z</time></trkpt><trkpt lat="45.5659033" lon="10.3694583"><ele>502.99999999999994</ele><time>2026-03-22T10:42:48.187Z</time></trkpt><trkpt lat="45.5658667" lon="10.36931"><ele>503.0</ele><time>2026-03-22T10:42:50.187Z</time></trkpt><trkpt lat="45.5657533" lon="10.3692017"><ele>503.2</ele><time>2026-03-22T10:42:52.185Z</time></trkpt><trkpt lat="45.5656767" lon="10.3691583"><ele>503.4</ele><time>2026-03-22T10:42:53.188Z</time></trkpt><trkpt lat="45.5656117" lon="10.3691267"><ele>503.59999999999997</ele><time>2026-03-22T10:42:54.185Z</time></trkpt><trkpt lat="45.5655283" lon="10.3690667"><ele>503.79999999999995</ele><time>2026-03-22T10:42:56.186Z</time></trkpt><trkpt lat="45.5654333" lon="10.3689633"><ele>504.0</ele><time>2026-03-22T10:42:59.185Z</time></trkpt><trkpt lat="45.5653533" lon="10.3689117"><ele>504.0</ele><time>2026-03-22T10:43:00.186Z</time></trkpt><trkpt lat="45.5652633" lon="10.3688633"><ele>504.0</ele><time>2026-03-22T10:43:01.185Z</time></trkpt><trkpt lat="45.5651633" lon="10.3688167"><ele>504.0</ele><time>2026-03-22T10:43:02.186Z</time></trkpt><trkpt lat="45.56506" lon="10.3687767"><ele>504.0</ele><time>2026-03-22T10:43:03.188Z</time></trkpt><trkpt lat="45.5649683" lon="10.3687333"><ele>504.0</ele><time>2026-03-22T10:43:04.185Z</time></trkpt><trkpt lat="45.564885" lon="10.3686933"><ele>506.1666666666667</ele><time>2026-03-22T10:43:05.185Z</time></trkpt><trkpt lat="45.5648083" lon="10.3686567"><ele>508.33333333333337</ele><time>2026-03-22T10:43:06.185Z</time></trkpt><trkpt lat="45.5647417" lon="10.368615"><ele>510.5</ele><time>2026-03-22T10:43:07.187Z</time></trkpt><trkpt lat="45.5646867" lon="10.368555"><ele>512.6666666666667</ele><time>2026-03-22T10:43:08.186Z</time></trkpt><trkpt lat="45.564635" lon="10.36847"><ele>514.8333333333334</ele><time>2026-03-22T10:43:09.185Z</time></trkpt><trkpt lat="45.5645933" lon="10.3683733"><ele>517.0</ele><time>2026-03-22T10:43:10.185Z</time></trkpt><trkpt lat="45.5645617" lon="10.368265"><ele>517.0</ele><time>2026-03-22T10:43:11.186Z</time></trkpt><trkpt lat="45.56453" lon="10.3681717"><ele>517.0</ele><time>2026-03-22T10:43:12.185Z</time></trkpt><trkpt lat="45.5644967" lon="10.3680917"><ele>517.0</ele><time>2026-03-22T10:43:13.185Z</time></trkpt><trkpt lat="45.56442" lon="10.36801"><ele>517.0</ele><time>2026-03-22T10:43:15.185Z</time></trkpt><trkpt lat="45.564345" lon="10.368115"><ele>517.0</ele><time>2026-03-22T10:43:17.185Z</time></trkpt><trkpt lat="45.5643083" lon="10.3682167"><ele>517.0</ele><time>2026-03-22T10:43:19.185Z</time></trkpt><trkpt lat="45.564255" lon="10.3682883"><ele>514.6</ele><time>2026-03-22T10:43:22.19Z</time></trkpt><trkpt lat="45.56415" lon="10.3684067"><ele>512.2</ele><time>2026-03-22T10:43:24.185Z</time></trkpt><trkpt lat="45.5640917" lon="10.3684767"><ele>509.8</ele><time>2026-03-22T10:43:25.185Z</time></trkpt><trkpt lat="45.564025" lon="10.3685383"><ele>507.4</ele><time>2026-03-22T10:43:26.186Z</time></trkpt><trkpt lat="45.5639617" lon="10.36857"><ele>505.0</ele><time>2026-03-22T10:43:27.185Z</time></trkpt><trkpt lat="45.56385" lon="10.36856"><ele>505.00000000000006</ele><time>2026-03-22T10:43:29.186Z</time></trkpt><trkpt lat="45.56375" lon="10.3685417"><ele>505.0</ele><time>2026-03-22T10:43:31.185Z</time></trkpt><trkpt lat="45.5636583" lon="10.36853"><ele>505.0</ele><time>2026-03-22T10:43:33.186Z</time></trkpt><trkpt lat="45.563595" lon="10.3684867"><ele>505.0</ele><time>2026-03-22T10:43:35.186Z</time></trkpt><trkpt lat="45.563545" lon="10.3684317"><ele>505.00000000000006</ele><time>2026-03-22T10:43:37.185Z</time></trkpt><trkpt lat="45.5635167" lon="10.3683317"><ele>505.0</ele><time>2026-03-22T10:43:40.185Z</time></trkpt><trkpt lat="45.563455" lon="10.3682933"><ele>503.4</ele><time>2026-03-22T10:43:43.186Z</time></trkpt><trkpt lat="45.5633583" lon="10.36823"><ele>501.8</ele><time>2026-03-22T10:43:45.186Z</time></trkpt><trkpt lat="45.5632533" lon="10.3681467"><ele>500.20000000000005</ele><time>2026-03-22T10:43:47.19Z</time></trkpt><trkpt lat="45.5631667" lon="10.368065"><ele>498.6</ele><time>2026-03-22T10:43:49.185Z</time></trkpt><trkpt lat="45.5630967" lon="10.3680017"><ele>497.0</ele><time>2026-03-22T10:43:51.19Z</time></trkpt><trkpt lat="45.56307" lon="10.3679017"><ele>495.49999999999994</ele><time>2026-03-22T10:43:53.185Z</time></trkpt><trkpt lat="45.563105" lon="10.3678133"><ele>494.0</ele><time>2026-03-22T10:43:55.185Z</time></trkpt><trkpt lat="45.56316" lon="10.3677533"><ele>492.5</ele><time>2026-03-22T10:43:57.185Z</time></trkpt><trkpt lat="45.5632317" lon="10.3676917"><ele>491.0</ele><time>2026-03-22T10:43:59.187Z</time></trkpt><trkpt lat="45.563305" lon="10.3676"><ele>489.49999999999994</ele><time>2026-03-22T10:44:01.186Z</time></trkpt><trkpt lat="45.5633517" lon="10.3674867"><ele>488.0</ele><time>2026-03-22T10:44:03.187Z</time></trkpt><trkpt lat="45.5633883" lon="10.3673333"><ele>486.59999999999997</ele><time>2026-03-22T10:44:05.185Z</time></trkpt><trkpt lat="45.56344" lon="10.36719"><ele>485.19999999999993</ele><time>2026-03-22T10:44:07.186Z</time></trkpt><trkpt lat="45.56347" lon="10.3671083"><ele>483.8</ele><time>2026-03-22T10:44:08.187Z</time></trkpt><trkpt lat="45.56349" lon="10.3669567"><ele>482.4</ele><time>2026-03-22T10:44:10.186Z</time></trkpt><trkpt lat="45.563465" lon="10.366825"><ele>481.0</ele><time>2026-03-22T10:44:12.187Z</time></trkpt><trkpt lat="45.5634033" lon="10.3667483"><ele>481.0</ele><time>2026-03-22T10:44:14.186Z</time></trkpt><trkpt lat="45.5633083" lon="10.3666933"><ele>481.0</ele><time>2026-03-22T10:44:16.186Z</time></trkpt><trkpt lat="45.563245" lon="10.3665983"><ele>481.0</ele><time>2026-03-22T10:44:18.185Z</time></trkpt><trkpt lat="45.5632333" lon="10.366475"><ele>481.0</ele><time>2026-03-22T10:44:20.187Z</time></trkpt><trkpt lat="45.5632483" lon="10.366295"><ele>481.0</ele><time>2026-03-22T10:44:22.185Z</time></trkpt><trkpt lat="45.5632633" lon="10.3661983"><ele>481.5714285714285</ele><time>2026-03-22T10:44:23.186Z</time></trkpt><trkpt lat="45.5632783" lon="10.3660983"><ele>482.1428571428571</ele><time>2026-03-22T10:44:24.187Z</time></trkpt><trkpt lat="45.5632883" lon="10.3660083"><ele>482.7142857142857</ele><time>2026-03-22T10:44:25.186Z</time></trkpt><trkpt lat="45.5632867" lon="10.365915"><ele>483.2857142857143</ele><time>2026-03-22T10:44:26.189Z</time></trkpt><trkpt lat="45.563275" lon="10.36582"><ele>483.8571428571429</ele><time>2026-03-22T10:44:27.186Z</time></trkpt><trkpt lat="45.5632467" lon="10.3657267"><ele>484.4285714285715</ele><time>2026-03-22T10:44:28.186Z</time></trkpt><trkpt lat="45.5632133" lon="10.3656417"><ele>485.00000000000006</ele><time>2026-03-22T10:44:29.187Z</time></trkpt><trkpt lat="45.56318" lon="10.36556"><ele>485.99999999999994</ele><time>2026-03-22T10:44:30.187Z</time></trkpt><trkpt lat="45.56315" lon="10.3654667"><ele>487.0</ele><time>2026-03-22T10:44:31.188Z</time></trkpt><trkpt lat="45.563115" lon="10.365375"><ele>488.0</ele><time>2026-03-22T10:44:32.187Z</time></trkpt><trkpt lat="45.5630833" lon="10.3652833"><ele>489.0</ele><time>2026-03-22T10:44:33.185Z</time></trkpt><trkpt lat="45.5630533" lon="10.365195"><ele>489.99999999999994</ele><time>2026-03-22T10:44:34.186Z</time></trkpt><trkpt lat="45.563035" lon="10.3651033"><ele>491.0</ele><time>2026-03-22T10:44:35.186Z</time></trkpt><trkpt lat="45.5629933" lon="10.3649233"><ele>490.99999999999994</ele><time>2026-03-22T10:44:37.186Z</time></trkpt><trkpt lat="45.5629767" lon="10.364825"><ele>491.0</ele><time>2026-03-22T10:44:38.188Z</time></trkpt><trkpt lat="45.5629683" lon="10.3647267"><ele>491.0</ele><time>2026-03-22T10:44:39.186Z</time></trkpt><trkpt lat="45.5629633" lon="10.3646317"><ele>491.0</ele><time>2026-03-22T10:44:40.186Z</time></trkpt><trkpt lat="45.562965" lon="10.36454"><ele>490.99999999999994</ele><time>2026-03-22T10:44:41.187Z</time></trkpt><trkpt lat="45.5630017" lon="10.3643833"><ele>491.0</ele><time>2026-03-22T10:44:43.186Z</time></trkpt><trkpt lat="45.5630483" lon="10.364235"><ele>490.8</ele><time>2026-03-22T10:44:45.186Z</time></trkpt><trkpt lat="45.5630783" lon="10.3641417"><ele>490.6</ele><time>2026-03-22T10:44:47.187Z</time></trkpt><trkpt lat="45.5630783" lon="10.3640383"><ele>490.4</ele><time>2026-03-22T10:44:49.186Z</time></trkpt><trkpt lat="45.5630717" lon="10.3639083"><ele>490.2</ele><time>2026-03-22T10:44:51.186Z</time></trkpt><trkpt lat="45.56309" lon="10.3637583"><ele>490.0</ele><time>2026-03-22T10:44:53.187Z</time></trkpt><trkpt lat="45.5631083" lon="10.363575"><ele>490.0</ele><time>2026-03-22T10:44:55.186Z</time></trkpt><trkpt lat="45.563115" lon="10.363485"><ele>490.0</ele><time>2026-03-22T10:44:56.186Z</time></trkpt><trkpt lat="45.5631267" lon="10.363385"><ele>490.0</ele><time>2026-03-22T10:44:57.185Z</time></trkpt><trkpt lat="45.56314" lon="10.3632917"><ele>490.0</ele><time>2026-03-22T10:44:58.186Z</time></trkpt><trkpt lat="45.5631583" lon="10.3631917"><ele>490.0</ele><time>2026-03-22T10:44:59.186Z</time></trkpt><trkpt lat="45.563175" lon="10.363075"><ele>490.0</ele><time>2026-03-22T10:45:00.185Z</time></trkpt><trkpt lat="45.5631833" lon="10.3629717"><ele>490.0</ele><time>2026-03-22T10:45:01.187Z</time></trkpt><trkpt lat="45.563195" lon="10.362825"><ele>490.1666666666667</ele><time>2026-03-22T10:45:03.185Z</time></trkpt><trkpt lat="45.5632333" lon="10.3626867"><ele>490.33333333333337</ele><time>2026-03-22T10:46:11.186Z</time></trkpt><trkpt lat="45.563275" lon="10.36252"><ele>490.5</ele><time>2026-03-22T10:46:13.186Z</time></trkpt><trkpt lat="45.5632967" lon="10.36243"><ele>490.66666666666663</ele><time>2026-03-22T10:46:14.185Z</time></trkpt><trkpt lat="45.5633117" lon="10.36234"><ele>490.8333333333333</ele><time>2026-03-22T10:46:15.185Z</time></trkpt><trkpt lat="45.5633183" lon="10.3622467"><ele>491.0</ele><time>2026-03-22T10:46:16.19Z</time></trkpt><trkpt lat="45.56332" lon="10.36215"><ele>491.0</ele><time>2026-03-22T10:46:17.185Z</time></trkpt><trkpt lat="45.5633083" lon="10.362055"><ele>490.99999999999994</ele><time>2026-03-22T10:46:18.186Z</time></trkpt><trkpt lat="45.5632867" lon="10.3619667"><ele>491.0</ele><time>2026-03-22T10:46:19.187Z</time></trkpt><trkpt lat="45.5632517" lon="10.3618783"><ele>491.0</ele><time>2026-03-22T10:46:20.187Z</time></trkpt><trkpt lat="45.5632117" lon="10.3617883"><ele>490.99999999999994</ele><time>2026-03-22T10:46:21.189Z</time></trkpt><trkpt lat="45.56317" lon="10.361705"><ele>491.0</ele><time>2026-03-22T10:46:22.187Z</time></trkpt><trkpt lat="45.5631417" lon="10.3616217"><ele>491.0</ele><time>2026-03-22T10:46:23.188Z</time></trkpt><trkpt lat="45.5631167" lon="10.36153"><ele>490.99999999999994</ele><time>2026-03-22T10:46:24.187Z</time></trkpt><trkpt lat="45.5631" lon="10.3614283"><ele>491.0</ele><time>2026-03-22T10:46:25.186Z</time></trkpt><trkpt lat="45.5630767" lon="10.3613267"><ele>491.0</ele><time>2026-03-22T10:46:26.187Z</time></trkpt><trkpt lat="45.5630483" lon="10.3612183"><ele>491.0</ele><time>2026-03-22T10:46:27.186Z</time></trkpt><trkpt lat="45.563015" lon="10.3611017"><ele>490.99999999999994</ele><time>2026-03-22T10:46:28.186Z</time></trkpt><trkpt lat="45.5629767" lon="10.3609883"><ele>491.0</ele><time>2026-03-22T10:46:29.186Z</time></trkpt><trkpt lat="45.5629283" lon="10.3608767"><ele>490.16666666666663</ele><time>2026-03-22T10:46:30.186Z</time></trkpt><trkpt lat="45.562885" lon="10.3607717"><ele>489.3333333333333</ele><time>2026-03-22T10:46:31.188Z</time></trkpt><trkpt lat="45.5628517" lon="10.3606717"><ele>488.5</ele><time>2026-03-22T10:46:32.187Z</time></trkpt><trkpt lat="45.5628233" lon="10.3605683"><ele>487.66666666666663</ele><time>2026-03-22T10:46:33.187Z</time></trkpt><trkpt lat="45.5627933" lon="10.360465"><ele>486.8333333333333</ele><time>2026-03-22T10:46:34.187Z</time></trkpt><trkpt lat="45.5627633" lon="10.360355"><ele>486.0</ele><time>2026-03-22T10:46:35.187Z</time></trkpt><trkpt lat="45.562725" lon="10.3602433"><ele>486.0</ele><time>2026-03-22T10:46:36.186Z</time></trkpt><trkpt lat="45.56268" lon="10.3601233"><ele>486.0</ele><time>2026-03-22T10:46:37.187Z</time></trkpt><trkpt lat="45.5626383" lon="10.3600083"><ele>486.0</ele><time>2026-03-22T10:46:38.187Z</time></trkpt><trkpt lat="45.5626133" lon="10.3598983"><ele>486.0</ele><time>2026-03-22T10:46:39.187Z</time></trkpt><trkpt lat="45.5625933" lon="10.35979"><ele>486.0</ele><time>2026-03-22T10:46:40.187Z</time></trkpt><trkpt lat="45.56258" lon="10.35969"><ele>486.0</ele><time>2026-03-22T10:46:41.187Z</time></trkpt><trkpt lat="45.56257" lon="10.3595933"><ele>487.3333333333333</ele><time>2026-03-22T10:46:42.186Z</time></trkpt><trkpt lat="45.5625683" lon="10.3594983"><ele>488.66666666666663</ele><time>2026-03-22T10:46:43.186Z</time></trkpt><trkpt lat="45.5625683" lon="10.3594033"><ele>490.0</ele><time>2026-03-22T10:46:44.187Z</time></trkpt><trkpt lat="45.5625483" lon="10.3592283"><ele>491.3333333333333</ele><time>2026-03-22T10:46:46.186Z</time></trkpt><trkpt lat="45.5625283" lon="10.3591332"><ele>492.66666666666663</ele><time>2026-03-22T10:46:47.186Z</time></trkpt><trkpt lat="45.5624944" lon="10.3590311"><ele>494.0</ele><time>2026-03-22T10:46:48.186Z</time></trkpt><trkpt lat="45.5624605" lon="10.358934"><ele>495.8571428571429</ele><time>2026-03-22T10:46:49.186Z</time></trkpt><trkpt lat="45.5624345" lon="10.3588363"><ele>497.71428571428567</ele><time>2026-03-22T10:46:50.188Z</time></trkpt><trkpt lat="45.5624139" lon="10.3587253"><ele>499.57142857142856</ele><time>2026-03-22T10:46:51.186Z</time></trkpt><trkpt lat="45.5623952" lon="10.3586175"><ele>501.42857142857144</ele><time>2026-03-22T10:46:52.187Z</time></trkpt><trkpt lat="45.5623772" lon="10.358517"><ele>503.28571428571433</ele><time>2026-03-22T10:46:53.187Z</time></trkpt><trkpt lat="45.5623587" lon="10.3584227"><ele>505.1428571428571</ele><time>2026-03-22T10:46:54.186Z</time></trkpt><trkpt lat="45.5623341" lon="10.3583219"><ele>507.0</ele><time>2026-03-22T10:46:55.189Z</time></trkpt><trkpt lat="45.5623083" lon="10.3582213"><ele>507.0</ele><time>2026-03-22T10:46:56.187Z</time></trkpt><trkpt lat="45.5622809" lon="10.3581207"><ele>507.0</ele><time>2026-03-22T10:46:57.187Z</time></trkpt><trkpt lat="45.5622649" lon="10.3580287"><ele>507.0</ele><time>2026-03-22T10:46:58.186Z</time></trkpt><trkpt lat="45.5622566" lon="10.3579369"><ele>507.0</ele><time>2026-03-22T10:46:59.186Z</time></trkpt><trkpt lat="45.5622497" lon="10.357846"><ele>507.0</ele><time>2026-03-22T10:47:00.187Z</time></trkpt><trkpt lat="45.5622576" lon="10.3576805"><ele>507.0</ele><time>2026-03-22T10:47:02.187Z</time></trkpt><trkpt lat="45.562271" lon="10.3575242"><ele>507.5</ele><time>2026-03-22T10:47:04.188Z</time></trkpt><trkpt lat="45.5622854" lon="10.3574364"><ele>508.0</ele><time>2026-03-22T10:47:05.188Z</time></trkpt><trkpt lat="45.5622882" lon="10.3573333"><ele>508.5</ele><time>2026-03-22T10:47:06.188Z</time></trkpt><trkpt lat="45.5622888" lon="10.3572245"><ele>509.0</ele><time>2026-03-22T10:47:07.187Z</time></trkpt><trkpt lat="45.5622878" lon="10.3571237"><ele>509.5</ele><time>2026-03-22T10:47:08.188Z</time></trkpt><trkpt lat="45.5622774" lon="10.356947"><ele>510.0</ele><time>2026-03-22T10:47:10.189Z</time></trkpt><trkpt lat="45.5622712" lon="10.3568506"><ele>510.1666666666667</ele><time>2026-03-22T10:47:11.185Z</time></trkpt><trkpt lat="45.5622626" lon="10.356754"><ele>510.33333333333337</ele><time>2026-03-22T10:47:12.186Z</time></trkpt><trkpt lat="45.5622504" lon="10.3566596"><ele>510.5</ele><time>2026-03-22T10:47:13.187Z</time></trkpt><trkpt lat="45.5622317" lon="10.3565598"><ele>510.6666666666667</ele><time>2026-03-22T10:47:14.185Z</time></trkpt><trkpt lat="45.5622094" lon="10.3564496"><ele>510.83333333333337</ele><time>2026-03-22T10:47:15.186Z</time></trkpt><trkpt lat="45.5621864" lon="10.3563297"><ele>511.0</ele><time>2026-03-22T10:47:16.187Z</time></trkpt><trkpt lat="45.5621671" lon="10.3562069"><ele>512.4</ele><time>2026-03-22T10:47:17.185Z</time></trkpt><trkpt lat="45.5621474" lon="10.3560884"><ele>513.8</ele><time>2026-03-22T10:47:18.185Z</time></trkpt><trkpt lat="45.5621299" lon="10.3559717"><ele>515.1999999999999</ele><time>2026-03-22T10:47:19.186Z</time></trkpt><trkpt lat="45.5621164" lon="10.3558421"><ele>516.6</ele><time>2026-03-22T10:47:20.187Z</time></trkpt><trkpt lat="45.5621067" lon="10.3557071"><ele>518.0</ele><time>2026-03-22T10:47:21.186Z</time></trkpt><trkpt lat="45.5620923" lon="10.3555694"><ele>519.4</ele><time>2026-03-22T10:47:22.186Z</time></trkpt><trkpt lat="45.5620713" lon="10.3554354"><ele>520.8</ele><time>2026-03-22T10:47:23.186Z</time></trkpt><trkpt lat="45.5620461" lon="10.3553049"><ele>522.2</ele><time>2026-03-22T10:47:24.186Z</time></trkpt><trkpt lat="45.562017" lon="10.3551746"><ele>523.6</ele><time>2026-03-22T10:47:25.187Z</time></trkpt><trkpt lat="45.5619832" lon="10.3550394"><ele>525.0</ele><time>2026-03-22T10:47:26.186Z</time></trkpt><trkpt lat="45.5619488" lon="10.3548995"><ele>518.8</ele><time>2026-03-22T10:47:27.186Z</time></trkpt><trkpt lat="45.5619122" lon="10.3547559"><ele>512.6</ele><time>2026-03-22T10:47:28.185Z</time></trkpt><trkpt lat="45.5618696" lon="10.3546162"><ele>506.4</ele><time>2026-03-22T10:47:29.187Z</time></trkpt><trkpt lat="45.5618282" lon="10.3544784"><ele>500.2</ele><time>2026-03-22T10:47:30.186Z</time></trkpt><trkpt lat="45.561788" lon="10.3543411"><ele>494.0</ele><time>2026-03-22T10:47:31.186Z</time></trkpt><trkpt lat="45.5617525" lon="10.3542023"><ele>494.0</ele><time>2026-03-22T10:47:32.186Z</time></trkpt><trkpt lat="45.5617191" lon="10.3540649"><ele>494.0</ele><time>2026-03-22T10:47:33.186Z</time></trkpt><trkpt lat="45.5616886" lon="10.3539298"><ele>494.0</ele><time>2026-03-22T10:47:34.188Z</time></trkpt><trkpt lat="45.5616606" lon="10.3538021"><ele>494.0</ele><time>2026-03-22T10:47:35.279Z</time></trkpt><trkpt lat="45.561638" lon="10.3536934"><ele>494.0</ele><time>2026-03-22T10:47:36.185Z</time></trkpt><trkpt lat="45.561623" lon="10.3535767"><ele>493.49999999999994</ele><time>2026-03-22T10:47:37.185Z</time></trkpt><trkpt lat="45.561615" lon="10.3534458"><ele>493.0</ele><time>2026-03-22T10:47:38.19Z</time></trkpt><trkpt lat="45.5616119" lon="10.3533112"><ele>492.5</ele><time>2026-03-22T10:47:39.187Z</time></trkpt><trkpt lat="45.561614" lon="10.3531855"><ele>492.0</ele><time>2026-03-22T10:47:40.185Z</time></trkpt><trkpt lat="45.5616213" lon="10.3530742"><ele>491.49999999999994</ele><time>2026-03-22T10:47:41.185Z</time></trkpt><trkpt lat="45.5616336" lon="10.3529783"><ele>491.0</ele><time>2026-03-22T10:47:42.185Z</time></trkpt><trkpt lat="45.5616453" lon="10.3528866"><ele>491.0</ele><time>2026-03-22T10:47:43.186Z</time></trkpt><trkpt lat="45.5616786" lon="10.3527197"><ele>491.0</ele><time>2026-03-22T10:47:45.186Z</time></trkpt><trkpt lat="45.5617212" lon="10.3525583"><ele>491.0</ele><time>2026-03-22T10:47:47.186Z</time></trkpt><trkpt lat="45.5617519" lon="10.352421"><ele>491.0</ele><time>2026-03-22T10:47:49.185Z</time></trkpt><trkpt lat="45.5617649" lon="10.3523097"><ele>491.0</ele><time>2026-03-22T10:47:51.185Z</time></trkpt><trkpt lat="45.5617904" lon="10.352146"><ele>488.8333333333333</ele><time>2026-03-22T10:47:53.185Z</time></trkpt><trkpt lat="45.5618131" lon="10.3520369"><ele>486.66666666666663</ele><time>2026-03-22T10:47:54.185Z</time></trkpt><trkpt lat="45.5618395" lon="10.3519161"><ele>484.5</ele><time>2026-03-22T10:47:55.185Z</time></trkpt><trkpt lat="45.5618701" lon="10.3517925"><ele>482.33333333333337</ele><time>2026-03-22T10:47:56.187Z</time></trkpt><trkpt lat="45.5619063" lon="10.3516687"><ele>480.1666666666667</ele><time>2026-03-22T10:47:57.185Z</time></trkpt><trkpt lat="45.5619454" lon="10.3515456"><ele>478.0</ele><time>2026-03-22T10:47:58.186Z</time></trkpt><trkpt lat="45.5619871" lon="10.3514303"><ele>473.79999999999995</ele><time>2026-03-22T10:47:59.186Z</time></trkpt><trkpt lat="45.5620292" lon="10.3513258"><ele>469.59999999999997</ele><time>2026-03-22T10:48:00.185Z</time></trkpt><trkpt lat="45.5620723" lon="10.3512199"><ele>465.40000000000003</ele><time>2026-03-22T10:48:01.186Z</time></trkpt><trkpt lat="45.5621175" lon="10.3511021"><ele>461.20000000000005</ele><time>2026-03-22T10:48:02.187Z</time></trkpt><trkpt lat="45.5621609" lon="10.3509736"><ele>457.0</ele><time>2026-03-22T10:48:03.185Z</time></trkpt><trkpt lat="45.5622056" lon="10.3508417"><ele>463.40000000000003</ele><time>2026-03-22T10:48:04.185Z</time></trkpt><trkpt lat="45.5622498" lon="10.3507185"><ele>469.80000000000007</ele><time>2026-03-22T10:48:05.185Z</time></trkpt><trkpt lat="45.5622932" lon="10.3506006"><ele>476.2</ele><time>2026-03-22T10:48:06.185Z</time></trkpt><trkpt lat="45.5623388" lon="10.350482"><ele>482.6</ele><time>2026-03-22T10:48:07.185Z</time></trkpt><trkpt lat="45.5623873" lon="10.3503644"><ele>489.0</ele><time>2026-03-22T10:48:08.186Z</time></trkpt><trkpt lat="45.5624342" lon="10.3502493"><ele>489.0</ele><time>2026-03-22T10:48:09.186Z</time></trkpt><trkpt lat="45.5624879" lon="10.3501394"><ele>489.0</ele><time>2026-03-22T10:48:10.186Z</time></trkpt><trkpt lat="45.562545" lon="10.3500271"><ele>489.0</ele><time>2026-03-22T10:48:11.19Z</time></trkpt><trkpt lat="45.5626003" lon="10.3499034"><ele>489.0</ele><time>2026-03-22T10:48:12.187Z</time></trkpt><trkpt lat="45.5626572" lon="10.3497765"><ele>489.0</ele><time>2026-03-22T10:48:13.186Z</time></trkpt><trkpt lat="45.5627109" lon="10.3496534"><ele>485.4</ele><time>2026-03-22T10:48:14.185Z</time></trkpt><trkpt lat="45.5627665" lon="10.3495284"><ele>481.79999999999995</ele><time>2026-03-22T10:48:15.185Z</time></trkpt><trkpt lat="45.5628274" lon="10.3494044"><ele>478.20000000000005</ele><time>2026-03-22T10:48:16.185Z</time></trkpt><trkpt lat="45.5628904" lon="10.3492778"><ele>474.6</ele><time>2026-03-22T10:48:17.187Z</time></trkpt><trkpt lat="45.5629585" lon="10.3491469"><ele>471.0</ele><time>2026-03-22T10:48:18.185Z</time></trkpt><trkpt lat="45.5630251" lon="10.3490179"><ele>475.6</ele><time>2026-03-22T10:48:19.186Z</time></trkpt><trkpt lat="45.5630858" lon="10.3488906"><ele>480.20000000000005</ele><time>2026-03-22T10:48:20.187Z</time></trkpt><trkpt lat="45.5631454" lon="10.3487724"><ele>484.79999999999995</ele><time>2026-03-22T10:48:21.187Z</time></trkpt><trkpt lat="45.5632045" lon="10.3486557"><ele>489.4</ele><time>2026-03-22T10:48:22.186Z</time></trkpt><trkpt lat="45.5632635" lon="10.3485384"><ele>494.0</ele><time>2026-03-22T10:48:23.187Z</time></trkpt><trkpt lat="45.563324" lon="10.3484221"><ele>494.0</ele><time>2026-03-22T10:48:24.185Z</time></trkpt><trkpt lat="45.5633842" lon="10.3483093"><ele>494.0</ele><time>2026-03-22T10:48:25.186Z</time></trkpt><trkpt lat="45.563443" lon="10.348198"><ele>494.0</ele><time>2026-03-22T10:48:26.186Z</time></trkpt><trkpt lat="45.5635008" lon="10.348094"><ele>494.0</ele><time>2026-03-22T10:48:27.185Z</time></trkpt><trkpt lat="45.5635535" lon="10.3479903"><ele>494.0</ele><time>2026-03-22T10:48:28.185Z</time></trkpt><trkpt lat="45.563609" lon="10.3478836"><ele>489.79999999999995</ele><time>2026-03-22T10:48:29.187Z</time></trkpt><trkpt lat="45.5636617" lon="10.3477709"><ele>485.59999999999997</ele><time>2026-03-22T10:48:30.188Z</time></trkpt><trkpt lat="45.5637163" lon="10.3476571"><ele>481.4</ele><time>2026-03-22T10:48:31.186Z</time></trkpt><trkpt lat="45.5637715" lon="10.3475437"><ele>477.2</ele><time>2026-03-22T10:48:32.186Z</time></trkpt><trkpt lat="45.5638229" lon="10.3474293"><ele>473.0</ele><time>2026-03-22T10:48:33.186Z</time></trkpt><trkpt lat="45.563874" lon="10.3473104"><ele>477.79999999999995</ele><time>2026-03-22T10:48:34.186Z</time></trkpt><trkpt lat="45.5639287" lon="10.3471904"><ele>482.59999999999997</ele><time>2026-03-22T10:48:35.185Z</time></trkpt><trkpt lat="45.563979" lon="10.3470746"><ele>487.40000000000003</ele><time>2026-03-22T10:48:36.185Z</time></trkpt><trkpt lat="45.5640338" lon="10.3469574"><ele>492.20000000000005</ele><time>2026-03-22T10:48:37.186Z</time></trkpt><trkpt lat="45.5640941" lon="10.3468403"><ele>497.0</ele><time>2026-03-22T10:48:38.185Z</time></trkpt><trkpt lat="45.5641541" lon="10.3467275"><ele>496.99999999999994</ele><time>2026-03-22T10:48:39.185Z</time></trkpt><trkpt lat="45.5642084" lon="10.3466294"><ele>497.0</ele><time>2026-03-22T10:48:40.185Z</time></trkpt><trkpt lat="45.5642517" lon="10.3465471"><ele>497.0</ele><time>2026-03-22T10:48:41.185Z</time></trkpt><trkpt lat="45.5643159" lon="10.3464228"><ele>497.0</ele><time>2026-03-22T10:48:43.187Z</time></trkpt><trkpt lat="45.5643317" lon="10.3463183"><ele>496.99999999999994</ele><time>2026-03-22T10:48:45.185Z</time></trkpt><trkpt lat="45.5642883" lon="10.34623"><ele>497.0</ele><time>2026-03-22T10:48:48.186Z</time></trkpt><trkpt lat="45.5642017" lon="10.3462717"><ele>497.0</ele><time>2026-03-22T10:48:51.186Z</time></trkpt><trkpt lat="45.5641417" lon="10.3463567"><ele>497.00000000000006</ele><time>2026-03-22T10:49:23.185Z</time></trkpt><trkpt lat="45.5640967" lon="10.346435"><ele>497.00000000000006</ele><time>2026-03-22T10:49:24.185Z</time></trkpt><trkpt lat="45.5640317" lon="10.346535"><ele>497.0</ele><time>2026-03-22T10:49:25.186Z</time></trkpt><trkpt lat="45.56395" lon="10.34666"><ele>497.0</ele><time>2026-03-22T10:49:26.186Z</time></trkpt><trkpt lat="45.56385" lon="10.3468067"><ele>497.0</ele><time>2026-03-22T10:49:27.187Z</time></trkpt><trkpt lat="45.5637583" lon="10.346945"><ele>497.0</ele><time>2026-03-22T10:49:28.187Z</time></trkpt><trkpt lat="45.563675" lon="10.3470767"><ele>497.0</ele><time>2026-03-22T10:49:29.186Z</time></trkpt><trkpt lat="45.5635833" lon="10.3472133"><ele>497.0</ele><time>2026-03-22T10:49:30.186Z</time></trkpt><trkpt lat="45.56349" lon="10.347355"><ele>491.0</ele><time>2026-03-22T10:49:31.185Z</time></trkpt><trkpt lat="45.5633983" lon="10.3475033"><ele>485.0</ele><time>2026-03-22T10:49:32.185Z</time></trkpt><trkpt lat="45.5632967" lon="10.3476517"><ele>479.0</ele><time>2026-03-22T10:49:33.186Z</time></trkpt><trkpt lat="45.5631917" lon="10.3478017"><ele>473.0</ele><time>2026-03-22T10:49:34.185Z</time></trkpt><trkpt lat="45.5630917" lon="10.3479533"><ele>478.25</ele><time>2026-03-22T10:49:35.185Z</time></trkpt><trkpt lat="45.5629933" lon="10.348105"><ele>483.5</ele><time>2026-03-22T10:49:36.185Z</time></trkpt><trkpt lat="45.56289" lon="10.348255"><ele>488.75</ele><time>2026-03-22T10:49:37.186Z</time></trkpt><trkpt lat="45.5627883" lon="10.3484033"><ele>494.0</ele><time>2026-03-22T10:49:38.187Z</time></trkpt><trkpt lat="45.5626883" lon="10.348555"><ele>488.25</ele><time>2026-03-22T10:49:39.186Z</time></trkpt><trkpt lat="45.562585" lon="10.3487017"><ele>482.5</ele><time>2026-03-22T10:49:40.186Z</time></trkpt><trkpt lat="45.5624917" lon="10.348845"><ele>476.75</ele><time>2026-03-22T10:49:41.185Z</time></trkpt><trkpt lat="45.5624" lon="10.34899"><ele>471.0</ele><time>2026-03-22T10:49:42.185Z</time></trkpt><trkpt lat="45.5623067" lon="10.349145"><ele>471.0</ele><time>2026-03-22T10:49:43.186Z</time></trkpt><trkpt lat="45.5622117" lon="10.3493083"><ele>471.0</ele><time>2026-03-22T10:49:44.187Z</time></trkpt><trkpt lat="45.56212" lon="10.349475"><ele>471.0</ele><time>2026-03-22T10:49:45.186Z</time></trkpt><trkpt lat="45.56203" lon="10.349635"><ele>471.0</ele><time>2026-03-22T10:49:46.187Z</time></trkpt><trkpt lat="45.5619433" lon="10.3497967"><ele>463.5</ele><time>2026-03-22T10:49:47.185Z</time></trkpt><trkpt lat="45.5618567" lon="10.3499583"><ele>456.0</ele><time>2026-03-22T10:49:48.186Z</time></trkpt><trkpt lat="45.5617683" lon="10.3501283"><ele>448.5</ele><time>2026-03-22T10:49:49.186Z</time></trkpt><trkpt lat="45.561675" lon="10.3503017"><ele>441.0</ele><time>2026-03-22T10:49:50.185Z</time></trkpt><trkpt lat="45.56158" lon="10.3504767"><ele>446.33333333333337</ele><time>2026-03-22T10:49:51.185Z</time></trkpt><trkpt lat="45.56149" lon="10.350645"><ele>451.6666666666667</ele><time>2026-03-22T10:49:52.185Z</time></trkpt><trkpt lat="45.5614017" lon="10.3508167"><ele>457.0</ele><time>2026-03-22T10:49:53.185Z</time></trkpt><trkpt lat="45.561315" lon="10.3509967"><ele>457.0</ele><time>2026-03-22T10:49:54.185Z</time></trkpt><trkpt lat="45.5612267" lon="10.3511817"><ele>457.0</ele><time>2026-03-22T10:49:55.186Z</time></trkpt><trkpt lat="45.5611367" lon="10.3513733"><ele>457.0</ele><time>2026-03-22T10:49:56.186Z</time></trkpt><trkpt lat="45.5610483" lon="10.3515617"><ele>444.6666666666667</ele><time>2026-03-22T10:49:57.186Z</time></trkpt><trkpt lat="45.5609667" lon="10.3517467"><ele>432.33333333333337</ele><time>2026-03-22T10:49:58.186Z</time></trkpt><trkpt lat="45.56089" lon="10.351935"><ele>420.0</ele><time>2026-03-22T10:49:59.186Z</time></trkpt><trkpt lat="45.5608117" lon="10.35212"><ele>423.75</ele><time>2026-03-22T10:50:00.185Z</time></trkpt><trkpt lat="45.5607333" lon="10.352305"><ele>427.5</ele><time>2026-03-22T10:50:01.186Z</time></trkpt><trkpt lat="45.5606583" lon="10.352485"><ele>431.25</ele><time>2026-03-22T10:50:02.188Z</time></trkpt><trkpt lat="45.5605817" lon="10.3526633"><ele>435.0</ele><time>2026-03-22T10:50:03.186Z</time></trkpt><trkpt lat="45.5605067" lon="10.3528367"><ele>435.0</ele><time>2026-03-22T10:50:04.186Z</time></trkpt><trkpt lat="45.56043" lon="10.3530033"><ele>435.0</ele><time>2026-03-22T10:50:05.185Z</time></trkpt><trkpt lat="45.5603533" lon="10.353165"><ele>435.0</ele><time>2026-03-22T10:50:06.185Z</time></trkpt><trkpt lat="45.56028" lon="10.3533217"><ele>435.0</ele><time>2026-03-22T10:50:07.185Z</time></trkpt><trkpt lat="45.5602067" lon="10.3534717"><ele>429.5</ele><time>2026-03-22T10:50:08.187Z</time></trkpt><trkpt lat="45.560135" lon="10.3536133"><ele>424.0</ele><time>2026-03-22T10:50:09.186Z</time></trkpt><trkpt lat="45.5600717" lon="10.35375"><ele>418.5</ele><time>2026-03-22T10:50:10.185Z</time></trkpt><trkpt lat="45.56001" lon="10.3538783"><ele>413.0</ele><time>2026-03-22T10:50:11.185Z</time></trkpt><trkpt lat="45.5599517" lon="10.3540033"><ele>413.0</ele><time>2026-03-22T10:50:12.187Z</time></trkpt><trkpt lat="45.559895" lon="10.3541333"><ele>413.0</ele><time>2026-03-22T10:50:13.185Z</time></trkpt><trkpt lat="45.5598483" lon="10.3542617"><ele>413.0</ele><time>2026-03-22T10:50:14.186Z</time></trkpt><trkpt lat="45.5598067" lon="10.3543917"><ele>413.0</ele><time>2026-03-22T10:50:15.186Z</time></trkpt><trkpt lat="45.5597617" lon="10.35453"><ele>413.0</ele><time>2026-03-22T10:50:16.186Z</time></trkpt><trkpt lat="45.55971" lon="10.3546617"><ele>413.59999999999997</ele><time>2026-03-22T10:50:17.185Z</time></trkpt><trkpt lat="45.5596483" lon="10.3547767"><ele>414.2</ele><time>2026-03-22T10:50:18.187Z</time></trkpt><trkpt lat="45.5595733" lon="10.3548883"><ele>414.8</ele><time>2026-03-22T10:50:19.186Z</time></trkpt><trkpt lat="45.5594817" lon="10.3549633"><ele>415.4</ele><time>2026-03-22T10:50:20.186Z</time></trkpt><trkpt lat="45.559375" lon="10.3550117"><ele>416.0</ele><time>2026-03-22T10:50:21.185Z</time></trkpt><trkpt lat="45.5592617" lon="10.3550617"><ele>408.25</ele><time>2026-03-22T10:50:22.185Z</time></trkpt><trkpt lat="45.5591483" lon="10.355125"><ele>400.5</ele><time>2026-03-22T10:50:23.185Z</time></trkpt><trkpt lat="45.5590433" lon="10.3552083"><ele>392.75</ele><time>2026-03-22T10:50:24.186Z</time></trkpt><trkpt lat="45.558955" lon="10.355315"><ele>385.0</ele><time>2026-03-22T10:50:25.185Z</time></trkpt><trkpt lat="45.5588817" lon="10.3554467"><ele>387.5</ele><time>2026-03-22T10:50:26.188Z</time></trkpt><trkpt lat="45.5588233" lon="10.355605"><ele>390.0</ele><time>2026-03-22T10:50:27.186Z</time></trkpt><trkpt lat="45.55878" lon="10.35578"><ele>392.5</ele><time>2026-03-22T10:50:28.186Z</time></trkpt><trkpt lat="45.558745" lon="10.35597"><ele>395.0</ele><time>2026-03-22T10:50:29.186Z</time></trkpt><trkpt lat="45.5587217" lon="10.3561667"><ele>395.0</ele><time>2026-03-22T10:50:30.185Z</time></trkpt><trkpt lat="45.55871" lon="10.3563683"><ele>395.0</ele><time>2026-03-22T10:50:31.186Z</time></trkpt><trkpt lat="45.558705" lon="10.35657"><ele>395.0</ele><time>2026-03-22T10:50:32.187Z</time></trkpt><trkpt lat="45.5587083" lon="10.356775"><ele>395.0</ele><time>2026-03-22T10:50:33.185Z</time></trkpt><trkpt lat="45.5587167" lon="10.3569783"><ele>395.5</ele><time>2026-03-22T10:50:34.187Z</time></trkpt><trkpt lat="45.558725" lon="10.3571733"><ele>396.0</ele><time>2026-03-22T10:50:35.187Z</time></trkpt><trkpt lat="45.55873" lon="10.3573683"><ele>396.5</ele><time>2026-03-22T10:50:36.186Z</time></trkpt><trkpt lat="45.55873" lon="10.3575633"><ele>397.0</ele><time>2026-03-22T10:50:37.185Z</time></trkpt><trkpt lat="45.55873" lon="10.3577533"><ele>395.5</ele><time>2026-03-22T10:50:38.188Z</time></trkpt><trkpt lat="45.55873" lon="10.35794"><ele>394.0</ele><time>2026-03-22T10:50:39.185Z</time></trkpt><trkpt lat="45.558725" lon="10.3581233"><ele>392.5</ele><time>2026-03-22T10:50:40.186Z</time></trkpt><trkpt lat="45.55872" lon="10.358305"><ele>391.0</ele><time>2026-03-22T10:50:41.185Z</time></trkpt><trkpt lat="45.558715" lon="10.358485"><ele>389.0</ele><time>2026-03-22T10:50:42.186Z</time></trkpt><trkpt lat="45.55871" lon="10.358655"><ele>387.0</ele><time>2026-03-22T10:50:43.187Z</time></trkpt><trkpt lat="45.5587033" lon="10.358825"><ele>385.0</ele><time>2026-03-22T10:50:44.186Z</time></trkpt><trkpt lat="45.55869" lon="10.3589883"><ele>383.0</ele><time>2026-03-22T10:50:45.186Z</time></trkpt><trkpt lat="45.55867" lon="10.3591483"><ele>373.59999999999997</ele><time>2026-03-22T10:50:46.185Z</time></trkpt><trkpt lat="45.5586417" lon="10.3592983"><ele>364.2</ele><time>2026-03-22T10:50:47.185Z</time></trkpt><trkpt lat="45.5586033" lon="10.35944"><ele>354.8</ele><time>2026-03-22T10:50:48.185Z</time></trkpt><trkpt lat="45.5585517" lon="10.3595683"><ele>345.4</ele><time>2026-03-22T10:50:49.186Z</time></trkpt><trkpt lat="45.5584833" lon="10.3596833"><ele>336.0</ele><time>2026-03-22T10:50:50.186Z</time></trkpt><trkpt lat="45.5584067" lon="10.3597883"><ele>336.0</ele><time>2026-03-22T10:50:51.185Z</time></trkpt><trkpt lat="45.5583233" lon="10.3598783"><ele>336.0</ele><time>2026-03-22T10:50:52.187Z</time></trkpt><trkpt lat="45.55824" lon="10.3599567"><ele>336.0</ele><time>2026-03-22T10:50:53.186Z</time></trkpt><trkpt lat="45.55815" lon="10.3599917"><ele>336.0</ele><time>2026-03-22T10:50:54.187Z</time></trkpt><trkpt lat="45.55806" lon="10.36001"><ele>336.0</ele><time>2026-03-22T10:50:55.186Z</time></trkpt><trkpt lat="45.5579717" lon="10.360005"><ele>336.0</ele><time>2026-03-22T10:50:56.186Z</time></trkpt><trkpt lat="45.55787" lon="10.35998"><ele>336.0</ele><time>2026-03-22T10:50:57.185Z</time></trkpt><trkpt lat="45.5577517" lon="10.3599333"><ele>336.0</ele><time>2026-03-22T10:50:58.186Z</time></trkpt><trkpt lat="45.5576367" lon="10.3598883"><ele>336.0</ele><time>2026-03-22T10:50:59.185Z</time></trkpt><trkpt lat="45.5575117" lon="10.35985"><ele>333.0</ele><time>2026-03-22T10:51:00.185Z</time></trkpt><trkpt lat="45.557385" lon="10.3598183"><ele>330.0</ele><time>2026-03-22T10:51:01.185Z</time></trkpt><trkpt lat="45.5572633" lon="10.3597817"><ele>327.0</ele><time>2026-03-22T10:51:02.186Z</time></trkpt><trkpt lat="45.5571467" lon="10.3597467"><ele>324.0</ele><time>2026-03-22T10:51:03.185Z</time></trkpt><trkpt lat="45.5570433" lon="10.3597083"><ele>321.8333333333333</ele><time>2026-03-22T10:51:04.186Z</time></trkpt><trkpt lat="45.5569467" lon="10.3596883"><ele>319.6666666666667</ele><time>2026-03-22T10:51:05.186Z</time></trkpt><trkpt lat="45.556855" lon="10.3596983"><ele>317.5</ele><time>2026-03-22T10:51:06.186Z</time></trkpt><trkpt lat="45.5567683" lon="10.3597317"><ele>315.33333333333337</ele><time>2026-03-22T10:51:07.186Z</time></trkpt><trkpt lat="45.55669" lon="10.3597817"><ele>313.1666666666667</ele><time>2026-03-22T10:51:08.186Z</time></trkpt><trkpt lat="45.5566283" lon="10.359855"><ele>311.0</ele><time>2026-03-22T10:51:09.185Z</time></trkpt><trkpt lat="45.5565717" lon="10.35994"><ele>311.0</ele><time>2026-03-22T10:51:10.186Z</time></trkpt><trkpt lat="45.55652" lon="10.3600233"><ele>311.0</ele><time>2026-03-22T10:51:11.187Z</time></trkpt><trkpt lat="45.5564733" lon="10.3601067"><ele>311.0</ele><time>2026-03-22T10:51:12.186Z</time></trkpt><trkpt lat="45.5564283" lon="10.3601867"><ele>311.0</ele><time>2026-03-22T10:51:13.186Z</time></trkpt><trkpt lat="45.5563867" lon="10.3602633"><ele>311.0</ele><time>2026-03-22T10:51:14.187Z</time></trkpt><trkpt lat="45.556315" lon="10.3603783"><ele>311.0</ele><time>2026-03-22T10:51:16.187Z</time></trkpt><trkpt lat="45.5562467" lon="10.3604317"><ele>309.0</ele><time>2026-03-22T10:51:18.185Z</time></trkpt><trkpt lat="45.556195" lon="10.3603583"><ele>307.0</ele><time>2026-03-22T10:51:20.186Z</time></trkpt><trkpt lat="45.5561733" lon="10.36017"><ele>305.0</ele><time>2026-03-22T10:51:22.185Z</time></trkpt><trkpt lat="45.5561567" lon="10.3600517"><ele>303.0</ele><time>2026-03-22T10:51:23.185Z</time></trkpt><trkpt lat="45.5561267" lon="10.3599383"><ele>301.0</ele><time>2026-03-22T10:51:24.187Z</time></trkpt><trkpt lat="45.5560883" lon="10.3598217"><ele>301.0</ele><time>2026-03-22T10:51:25.186Z</time></trkpt><trkpt lat="45.55603" lon="10.3597167"><ele>301.0</ele><time>2026-03-22T10:51:26.186Z</time></trkpt><trkpt lat="45.5559417" lon="10.3596217"><ele>301.0</ele><time>2026-03-22T10:51:27.186Z</time></trkpt><trkpt lat="45.5558417" lon="10.359535"><ele>301.0</ele><time>2026-03-22T10:51:28.186Z</time></trkpt><trkpt lat="45.5557417" lon="10.3594533"><ele>301.0</ele><time>2026-03-22T10:51:29.186Z</time></trkpt><trkpt lat="45.555655" lon="10.3593783"><ele>299.8</ele><time>2026-03-22T10:51:30.187Z</time></trkpt><trkpt lat="45.5555833" lon="10.3592917"><ele>298.6</ele><time>2026-03-22T10:51:31.186Z</time></trkpt><trkpt lat="45.5555183" lon="10.3591883"><ele>297.4</ele><time>2026-03-22T10:51:32.185Z</time></trkpt><trkpt lat="45.5554583" lon="10.359055"><ele>296.2</ele><time>2026-03-22T10:51:33.186Z</time></trkpt><trkpt lat="45.555405" lon="10.3589033"><ele>295.0</ele><time>2026-03-22T10:51:34.187Z</time></trkpt><trkpt lat="45.55536" lon="10.3587367"><ele>290.75</ele><time>2026-03-22T10:51:35.185Z</time></trkpt><trkpt lat="45.55532" lon="10.3585733"><ele>286.5</ele><time>2026-03-22T10:51:36.186Z</time></trkpt><trkpt lat="45.55529" lon="10.35841"><ele>282.25</ele><time>2026-03-22T10:51:37.186Z</time></trkpt><trkpt lat="45.55527" lon="10.3582533"><ele>278.0</ele><time>2026-03-22T10:51:38.186Z</time></trkpt><trkpt lat="45.5552517" lon="10.35811"><ele>276.4</ele><time>2026-03-22T10:51:39.185Z</time></trkpt><trkpt lat="45.55523" lon="10.35798"><ele>274.8</ele><time>2026-03-22T10:51:40.185Z</time></trkpt><trkpt lat="45.5552067" lon="10.3578467"><ele>273.2</ele><time>2026-03-22T10:51:41.185Z</time></trkpt><trkpt lat="45.5551783" lon="10.3577083"><ele>271.6</ele><time>2026-03-22T10:51:42.185Z</time></trkpt><trkpt lat="45.5551433" lon="10.357575"><ele>270.0</ele><time>2026-03-22T10:51:43.186Z</time></trkpt><trkpt lat="45.5551033" lon="10.3574483"><ele>270.0</ele><time>2026-03-22T10:51:44.186Z</time></trkpt><trkpt lat="45.5550583" lon="10.35733"><ele>270.0</ele><time>2026-03-22T10:51:45.185Z</time></trkpt><trkpt lat="45.5550067" lon="10.35722"><ele>270.0</ele><time>2026-03-22T10:51:46.186Z</time></trkpt><trkpt lat="45.5549417" lon="10.35713"><ele>270.0</ele><time>2026-03-22T10:51:47.185Z</time></trkpt><trkpt lat="45.5548683" lon="10.3570633"><ele>270.0</ele><time>2026-03-22T10:51:48.187Z</time></trkpt><trkpt lat="45.554785" lon="10.3570317"><ele>267.4</ele><time>2026-03-22T10:51:49.186Z</time></trkpt><trkpt lat="45.5546983" lon="10.3570367"><ele>264.8</ele><time>2026-03-22T10:51:50.187Z</time></trkpt><trkpt lat="45.5545967" lon="10.3570683"><ele>262.2</ele><time>2026-03-22T10:51:51.186Z</time></trkpt><trkpt lat="45.5544917" lon="10.357115"><ele>259.6</ele><time>2026-03-22T10:51:52.187Z</time></trkpt><trkpt lat="45.5543933" lon="10.35715"><ele>257.0</ele><time>2026-03-22T10:51:53.19Z</time></trkpt><trkpt lat="45.5542967" lon="10.3571617"><ele>256.0</ele><time>2026-03-22T10:51:54.187Z</time></trkpt><trkpt lat="45.5541983" lon="10.357155"><ele>255.0</ele><time>2026-03-22T10:51:55.186Z</time></trkpt><trkpt lat="45.554115" lon="10.3571317"><ele>254.0</ele><time>2026-03-22T10:51:56.187Z</time></trkpt><trkpt lat="45.554045" lon="10.3570983"><ele>253.0</ele><time>2026-03-22T10:51:57.187Z</time></trkpt><trkpt lat="45.55395" lon="10.3570283"><ele>252.00000000000003</ele><time>2026-03-22T10:51:59.185Z</time></trkpt><trkpt lat="45.553915" lon="10.3569483"><ele>251.0</ele><time>2026-03-22T10:52:01.185Z</time></trkpt><trkpt lat="45.55391" lon="10.3568433"><ele>251.00000000000003</ele><time>2026-03-22T10:52:03.185Z</time></trkpt><trkpt lat="45.553925" lon="10.3567033"><ele>251.0</ele><time>2026-03-22T10:52:05.186Z</time></trkpt><trkpt lat="45.5539633" lon="10.35659"><ele>251.0</ele><time>2026-03-22T10:52:07.185Z</time></trkpt><trkpt lat="45.5540517" lon="10.35649"><ele>251.0</ele><time>2026-03-22T10:52:09.186Z</time></trkpt><trkpt lat="45.5541167" lon="10.3564433"><ele>251.00000000000003</ele><time>2026-03-22T10:52:10.186Z</time></trkpt><trkpt lat="45.554185" lon="10.3564"><ele>251.0</ele><time>2026-03-22T10:52:11.185Z</time></trkpt><trkpt lat="45.554255" lon="10.3563533"><ele>250.57142857142856</ele><time>2026-03-22T10:52:12.185Z</time></trkpt><trkpt lat="45.55432" lon="10.3563117"><ele>250.14285714285714</ele><time>2026-03-22T10:52:13.185Z</time></trkpt><trkpt lat="45.5543833" lon="10.3562717"><ele>249.71428571428572</ele><time>2026-03-22T10:52:14.185Z</time></trkpt><trkpt lat="45.554445" lon="10.3562317"><ele>249.28571428571428</ele><time>2026-03-22T10:52:15.185Z</time></trkpt><trkpt lat="45.554505" lon="10.3561833"><ele>248.8571428571429</ele><time>2026-03-22T10:52:16.185Z</time></trkpt><trkpt lat="45.554565" lon="10.35614"><ele>248.42857142857144</ele><time>2026-03-22T10:52:17.185Z</time></trkpt><trkpt lat="45.554625" lon="10.3560967"><ele>248.0</ele><time>2026-03-22T10:52:18.185Z</time></trkpt><trkpt lat="45.5546817" lon="10.3560483"><ele>248.0</ele><time>2026-03-22T10:52:19.186Z</time></trkpt><trkpt lat="45.5547567" lon="10.355925"><ele>248.0</ele><time>2026-03-22T10:52:21.186Z</time></trkpt><trkpt lat="45.5547617" lon="10.355785"><ele>248.0</ele><time>2026-03-22T10:52:23.188Z</time></trkpt><trkpt lat="45.5547017" lon="10.355645"><ele>248.0</ele><time>2026-03-22T10:52:25.188Z</time></trkpt><trkpt lat="45.554645" lon="10.355575"><ele>248.0</ele><time>2026-03-22T10:52:26.187Z</time></trkpt><trkpt lat="45.554575" lon="10.355495"><ele>244.2</ele><time>2026-03-22T10:52:27.187Z</time></trkpt><trkpt lat="45.5544983" lon="10.3554083"><ele>240.4</ele><time>2026-03-22T10:52:28.186Z</time></trkpt><trkpt lat="45.5544167" lon="10.355325"><ele>236.59999999999997</ele><time>2026-03-22T10:52:29.186Z</time></trkpt><trkpt lat="45.5543383" lon="10.3552417"><ele>232.79999999999998</ele><time>2026-03-22T10:52:30.185Z</time></trkpt><trkpt lat="45.5542567" lon="10.3551617"><ele>229.0</ele><time>2026-03-22T10:52:31.186Z</time></trkpt><trkpt lat="45.554175" lon="10.3550817"><ele>229.0</ele><time>2026-03-22T10:52:32.187Z</time></trkpt><trkpt lat="45.5540867" lon="10.3550133"><ele>228.99999999999997</ele><time>2026-03-22T10:52:33.187Z</time></trkpt><trkpt lat="45.5539967" lon="10.3549567"><ele>228.99999999999997</ele><time>2026-03-22T10:52:34.186Z</time></trkpt><trkpt lat="45.5538983" lon="10.3549133"><ele>229.0</ele><time>2026-03-22T10:52:35.185Z</time></trkpt><trkpt lat="45.553795" lon="10.3548833"><ele>229.0</ele><time>2026-03-22T10:52:36.186Z</time></trkpt><trkpt lat="45.55369" lon="10.35486"><ele>228.2</ele><time>2026-03-22T10:52:37.185Z</time></trkpt><trkpt lat="45.553585" lon="10.3548433"><ele>227.39999999999998</ele><time>2026-03-22T10:52:38.186Z</time></trkpt><trkpt lat="45.5534867" lon="10.3548183"><ele>226.6</ele><time>2026-03-22T10:52:39.185Z</time></trkpt><trkpt lat="45.5533917" lon="10.3547983"><ele>225.8</ele><time>2026-03-22T10:52:40.185Z</time></trkpt><trkpt lat="45.5532933" lon="10.35478"><ele>225.0</ele><time>2026-03-22T10:52:41.186Z</time></trkpt><trkpt lat="45.5531983" lon="10.3547683"><ele>225.0</ele><time>2026-03-22T10:52:42.187Z</time></trkpt><trkpt lat="45.55311" lon="10.3547617"><ele>225.0</ele><time>2026-03-22T10:52:43.186Z</time></trkpt><trkpt lat="45.55303" lon="10.35477"><ele>225.0</ele><time>2026-03-22T10:52:44.186Z</time></trkpt><trkpt lat="45.55296" lon="10.3547833"><ele>225.0</ele><time>2026-03-22T10:52:45.186Z</time></trkpt><trkpt lat="45.55286" lon="10.3548233"><ele>225.0</ele><time>2026-03-22T10:52:47.186Z</time></trkpt><trkpt lat="45.5527967" lon="10.35485"><ele>225.0</ele><time>2026-03-22T10:52:50.186Z</time></trkpt><trkpt lat="45.552735" lon="10.3548267"><ele>223.6</ele><time>2026-03-22T10:52:54.188Z</time></trkpt><trkpt lat="45.5527417" lon="10.35465"><ele>222.2</ele><time>2026-03-22T10:52:58.186Z</time></trkpt><trkpt lat="45.5527633" lon="10.3545533"><ele>220.8</ele><time>2026-03-22T10:52:59.185Z</time></trkpt><trkpt lat="45.552775" lon="10.35442"><ele>219.4</ele><time>2026-03-22T10:53:00.187Z</time></trkpt><trkpt lat="45.5527783" lon="10.3542867"><ele>218.0</ele><time>2026-03-22T10:53:01.186Z</time></trkpt><trkpt lat="45.5527733" lon="10.3541483"><ele>218.00000000000003</ele><time>2026-03-22T10:53:02.186Z</time></trkpt><trkpt lat="45.552765" lon="10.3540167"><ele>218.0</ele><time>2026-03-22T10:53:03.186Z</time></trkpt><trkpt lat="45.5527567" lon="10.3538983"><ele>218.0</ele><time>2026-03-22T10:53:04.186Z</time></trkpt><trkpt lat="45.552755" lon="10.3537833"><ele>218.0</ele><time>2026-03-22T10:53:05.185Z</time></trkpt><trkpt lat="45.5527567" lon="10.3536633"><ele>218.00000000000003</ele><time>2026-03-22T10:53:06.186Z</time></trkpt><trkpt lat="45.552755" lon="10.35354"><ele>218.0</ele><time>2026-03-22T10:53:07.186Z</time></trkpt><trkpt lat="45.5527417" lon="10.353415"><ele>218.83333333333334</ele><time>2026-03-22T10:53:08.185Z</time></trkpt><trkpt lat="45.5527167" lon="10.3533117"><ele>219.66666666666669</ele><time>2026-03-22T10:53:09.184Z</time></trkpt><trkpt lat="45.5526817" lon="10.3532183"><ele>220.5</ele><time>2026-03-22T10:53:10.186Z</time></trkpt><trkpt lat="45.55264" lon="10.3531283"><ele>221.33333333333331</ele><time>2026-03-22T10:53:11.187Z</time></trkpt><trkpt lat="45.5525867" lon="10.3530417"><ele>222.16666666666666</ele><time>2026-03-22T10:53:12.186Z</time></trkpt><trkpt lat="45.5525317" lon="10.3529567"><ele>223.0</ele><time>2026-03-22T10:53:13.186Z</time></trkpt><trkpt lat="45.55248" lon="10.3528717"><ele>223.57142857142856</ele><time>2026-03-22T10:53:14.186Z</time></trkpt><trkpt lat="45.5524267" lon="10.3528017"><ele>224.14285714285714</ele><time>2026-03-22T10:53:15.185Z</time></trkpt><trkpt lat="45.55237" lon="10.3527317"><ele>224.71428571428572</ele><time>2026-03-22T10:53:16.186Z</time></trkpt><trkpt lat="45.5523217" lon="10.3526583"><ele>225.28571428571428</ele><time>2026-03-22T10:53:17.186Z</time></trkpt><trkpt lat="45.55228" lon="10.3525767"><ele>225.8571428571429</ele><time>2026-03-22T10:53:18.186Z</time></trkpt><trkpt lat="45.55224" lon="10.3524967"><ele>226.42857142857144</ele><time>2026-03-22T10:53:19.186Z</time></trkpt><trkpt lat="45.5522" lon="10.35241"><ele>227.0</ele><time>2026-03-22T10:53:20.187Z</time></trkpt><trkpt lat="45.55216" lon="10.3523317"><ele>227.00000000000003</ele><time>2026-03-22T10:53:21.186Z</time></trkpt><trkpt lat="45.5521217" lon="10.35226"><ele>227.0</ele><time>2026-03-22T10:53:22.186Z</time></trkpt><trkpt lat="45.5520767" lon="10.3521883"><ele>227.0</ele><time>2026-03-22T10:53:23.186Z</time></trkpt><trkpt lat="45.55202" lon="10.35213"><ele>227.0</ele><time>2026-03-22T10:53:24.191Z</time></trkpt><trkpt lat="45.5518917" lon="10.3520883"><ele>227.00000000000003</ele><time>2026-03-22T10:53:26.186Z</time></trkpt><trkpt lat="45.5518083" lon="10.35209"><ele>227.0</ele><time>2026-03-22T10:53:27.186Z</time></trkpt><trkpt lat="45.551725" lon="10.3520933"><ele>227.50000000000003</ele><time>2026-03-22T10:53:28.185Z</time></trkpt><trkpt lat="45.5516433" lon="10.3520917"><ele>228.0</ele><time>2026-03-22T10:53:29.185Z</time></trkpt><trkpt lat="45.5515683" lon="10.352085"><ele>228.5</ele><time>2026-03-22T10:53:30.185Z</time></trkpt><trkpt lat="45.551495" lon="10.3520783"><ele>229.0</ele><time>2026-03-22T10:53:31.185Z</time></trkpt><trkpt lat="45.5514217" lon="10.35206"><ele>229.50000000000003</ele><time>2026-03-22T10:53:32.185Z</time></trkpt><trkpt lat="45.55135" lon="10.35203"><ele>230.0</ele><time>2026-03-22T10:53:33.186Z</time></trkpt><trkpt lat="45.5512783" lon="10.3519967"><ele>230.00000000000003</ele><time>2026-03-22T10:53:34.186Z</time></trkpt><trkpt lat="45.5512117" lon="10.3519617"><ele>230.0</ele><time>2026-03-22T10:53:35.187Z</time></trkpt><trkpt lat="45.5511433" lon="10.351925"><ele>230.0</ele><time>2026-03-22T10:53:36.185Z</time></trkpt><trkpt lat="45.5510717" lon="10.3518867"><ele>230.0</ele><time>2026-03-22T10:53:37.187Z</time></trkpt><trkpt lat="45.551005" lon="10.351845"><ele>230.00000000000003</ele><time>2026-03-22T10:53:38.186Z</time></trkpt><trkpt lat="45.5509483" lon="10.351805"><ele>230.0</ele><time>2026-03-22T10:53:39.185Z</time></trkpt><trkpt lat="45.5508533" lon="10.3516933"><ele>232.6</ele><time>2026-03-22T10:53:41.187Z</time></trkpt><trkpt lat="45.5508117" lon="10.3516217"><ele>235.2</ele><time>2026-03-22T10:53:42.186Z</time></trkpt><trkpt lat="45.5507583" lon="10.3514633"><ele>237.8</ele><time>2026-03-22T10:53:44.187Z</time></trkpt><trkpt lat="45.5507283" lon="10.351285"><ele>240.4</ele><time>2026-03-22T10:53:46.187Z</time></trkpt><trkpt lat="45.5507283" lon="10.3511883"><ele>243.0</ele><time>2026-03-22T10:53:47.187Z</time></trkpt><trkpt lat="45.5507267" lon="10.3510917"><ele>243.42857142857142</ele><time>2026-03-22T10:53:48.187Z</time></trkpt><trkpt lat="45.5507233" lon="10.3510017"><ele>243.8571428571429</ele><time>2026-03-22T10:53:49.186Z</time></trkpt><trkpt lat="45.5507283" lon="10.3509083"><ele>244.2857142857143</ele><time>2026-03-22T10:53:50.186Z</time></trkpt><trkpt lat="45.5507333" lon="10.3508117"><ele>244.71428571428572</ele><time>2026-03-22T10:53:51.186Z</time></trkpt><trkpt lat="45.5507433" lon="10.3507117"><ele>245.14285714285717</ele><time>2026-03-22T10:53:52.186Z</time></trkpt><trkpt lat="45.5507517" lon="10.3506183"><ele>245.5714285714286</ele><time>2026-03-22T10:53:53.189Z</time></trkpt><trkpt lat="45.5507483" lon="10.3504667"><ele>246.00000000000003</ele><time>2026-03-22T10:53:55.186Z</time></trkpt><trkpt lat="45.5507233" lon="10.3503733"><ele>246.66666666666666</ele><time>2026-03-22T10:53:57.186Z</time></trkpt><trkpt lat="45.5506917" lon="10.3502917"><ele>247.33333333333331</ele><time>2026-03-22T10:54:00.185Z</time></trkpt><trkpt lat="45.5506383" lon="10.3501683"><ele>248.0</ele><time>2026-03-22T10:54:09.185Z</time></trkpt><trkpt lat="45.5505967" lon="10.3500083"><ele>248.66666666666666</ele><time>2026-03-22T10:54:11.185Z</time></trkpt><trkpt lat="45.5505717" lon="10.349925"><ele>249.33333333333331</ele><time>2026-03-22T10:54:12.186Z</time></trkpt><trkpt lat="45.5505467" lon="10.3498367"><ele>250.0</ele><time>2026-03-22T10:54:13.186Z</time></trkpt><trkpt lat="45.5505167" lon="10.3497433"><ele>251.33333333333331</ele><time>2026-03-22T10:54:14.187Z</time></trkpt><trkpt lat="45.5504867" lon="10.3496467"><ele>252.66666666666666</ele><time>2026-03-22T10:54:15.185Z</time></trkpt><trkpt lat="45.5504533" lon="10.349545"><ele>254.0</ele><time>2026-03-22T10:54:16.186Z</time></trkpt><trkpt lat="45.5504267" lon="10.3494633"><ele>255.33333333333331</ele><time>2026-03-22T10:54:17.186Z</time></trkpt><trkpt lat="45.55039" lon="10.34931"><ele>256.6666666666667</ele><time>2026-03-22T10:54:19.185Z</time></trkpt><trkpt lat="45.550375" lon="10.3491533"><ele>258.0</ele><time>2026-03-22T10:54:21.186Z</time></trkpt><trkpt lat="45.5503717" lon="10.34898"><ele>260.0</ele><time>2026-03-22T10:54:23.188Z</time></trkpt><trkpt lat="45.5503433" lon="10.3488267"><ele>262.0</ele><time>2026-03-22T10:54:25.185Z</time></trkpt><trkpt lat="45.5503033" lon="10.3486917"><ele>264.0</ele><time>2026-03-22T10:54:27.186Z</time></trkpt><trkpt lat="45.55029" lon="10.3485567"><ele>266.0</ele><time>2026-03-22T10:54:29.186Z</time></trkpt><trkpt lat="45.5502567" lon="10.3484183"><ele>268.0</ele><time>2026-03-22T10:54:31.185Z</time></trkpt><trkpt lat="45.5502367" lon="10.3482717"><ele>268.0</ele><time>2026-03-22T10:54:33.186Z</time></trkpt><trkpt lat="45.5502567" lon="10.3481133"><ele>268.0</ele><time>2026-03-22T10:54:35.187Z</time></trkpt><trkpt lat="45.55028" lon="10.3480217"><ele>268.0</ele><time>2026-03-22T10:54:36.186Z</time></trkpt><trkpt lat="45.550305" lon="10.34793"><ele>268.0</ele><time>2026-03-22T10:54:37.186Z</time></trkpt><trkpt lat="45.5503317" lon="10.3478383"><ele>268.0</ele><time>2026-03-22T10:54:38.187Z</time></trkpt><trkpt lat="45.5503567" lon="10.347745"><ele>268.0</ele><time>2026-03-22T10:54:39.186Z</time></trkpt><trkpt lat="45.5503767" lon="10.3476417"><ele>268.2</ele><time>2026-03-22T10:54:40.186Z</time></trkpt><trkpt lat="45.5503917" lon="10.3475483"><ele>268.4</ele><time>2026-03-22T10:54:41.186Z</time></trkpt><trkpt lat="45.5504067" lon="10.347375"><ele>268.59999999999997</ele><time>2026-03-22T10:54:43.186Z</time></trkpt><trkpt lat="45.550425" lon="10.347195"><ele>268.8</ele><time>2026-03-22T10:54:45.186Z</time></trkpt><trkpt lat="45.5504333" lon="10.34703"><ele>269.0</ele><time>2026-03-22T10:54:47.186Z</time></trkpt><trkpt lat="45.55044" lon="10.34694"><ele>269.0</ele><time>2026-03-22T10:54:48.186Z</time></trkpt><trkpt lat="45.5504433" lon="10.3467783"><ele>269.0</ele><time>2026-03-22T10:54:50.187Z</time></trkpt><trkpt lat="45.5504233" lon="10.3466217"><ele>269.0</ele><time>2026-03-22T10:54:52.186Z</time></trkpt><trkpt lat="45.5504017" lon="10.34646"><ele>269.0</ele><time>2026-03-22T10:54:54.186Z</time></trkpt><trkpt lat="45.5503883" lon="10.3463667"><ele>269.0</ele><time>2026-03-22T10:54:55.187Z</time></trkpt><trkpt lat="45.5503733" lon="10.3462683"><ele>271.5</ele><time>2026-03-22T10:54:56.186Z</time></trkpt><trkpt lat="45.550365" lon="10.3461633"><ele>274.0</ele><time>2026-03-22T10:54:57.187Z</time></trkpt><trkpt lat="45.5503533" lon="10.3460433"><ele>276.5</ele><time>2026-03-22T10:54:58.187Z</time></trkpt><trkpt lat="45.5503433" lon="10.3459167"><ele>279.0</ele><time>2026-03-22T10:54:59.186Z</time></trkpt><trkpt lat="45.5503317" lon="10.345785"><ele>281.5</ele><time>2026-03-22T10:55:00.187Z</time></trkpt><trkpt lat="45.5503167" lon="10.3456517"><ele>284.0</ele><time>2026-03-22T10:55:01.186Z</time></trkpt><trkpt lat="45.550295" lon="10.34551"><ele>284.0</ele><time>2026-03-22T10:55:02.186Z</time></trkpt><trkpt lat="45.5502833" lon="10.3453767"><ele>284.0</ele><time>2026-03-22T10:55:03.186Z</time></trkpt><trkpt lat="45.5502783" lon="10.3452433"><ele>284.0</ele><time>2026-03-22T10:55:04.187Z</time></trkpt><trkpt lat="45.5502733" lon="10.34512"><ele>284.0</ele><time>2026-03-22T10:55:05.186Z</time></trkpt><trkpt lat="45.5502717" lon="10.344995"><ele>284.0</ele><time>2026-03-22T10:55:06.186Z</time></trkpt><trkpt lat="45.550275" lon="10.34488"><ele>284.0</ele><time>2026-03-22T10:55:07.186Z</time></trkpt><trkpt lat="45.55028" lon="10.344775"><ele>284.8</ele><time>2026-03-22T10:55:08.186Z</time></trkpt><trkpt lat="45.5502733" lon="10.344685"><ele>285.59999999999997</ele><time>2026-03-22T10:55:09.186Z</time></trkpt><trkpt lat="45.5502833" lon="10.344545"><ele>286.4</ele><time>2026-03-22T10:55:11.185Z</time></trkpt><trkpt lat="45.5502717" lon="10.3444317"><ele>287.2</ele><time>2026-03-22T10:55:13.185Z</time></trkpt><trkpt lat="45.5502183" lon="10.3443533"><ele>288.0</ele><time>2026-03-22T10:55:15.185Z</time></trkpt><trkpt lat="45.5500933" lon="10.3442967"><ele>288.0</ele><time>2026-03-22T10:55:17.185Z</time></trkpt><trkpt lat="45.5500167" lon="10.3442817"><ele>288.0</ele><time>2026-03-22T10:55:18.186Z</time></trkpt><trkpt lat="45.5499017" lon="10.3442367"><ele>288.0</ele><time>2026-03-22T10:55:20.185Z</time></trkpt><trkpt lat="45.54984" lon="10.3442067"><ele>288.0</ele><time>2026-03-22T10:55:21.185Z</time></trkpt><trkpt lat="45.549775" lon="10.3441717"><ele>288.0</ele><time>2026-03-22T10:55:22.189Z</time></trkpt><trkpt lat="45.549705" lon="10.3441233"><ele>288.0</ele><time>2026-03-22T10:55:23.185Z</time></trkpt><trkpt lat="45.5496283" lon="10.3440767"><ele>288.0</ele><time>2026-03-22T10:55:24.185Z</time></trkpt><trkpt lat="45.5495483" lon="10.3440383"><ele>288.0</ele><time>2026-03-22T10:55:25.185Z</time></trkpt><trkpt lat="45.54947" lon="10.3440067"><ele>288.0</ele><time>2026-03-22T10:55:26.185Z</time></trkpt><trkpt lat="45.5493967" lon="10.343975"><ele>288.0</ele><time>2026-03-22T10:55:27.185Z</time></trkpt><trkpt lat="45.5493233" lon="10.3439433"><ele>288.0</ele><time>2026-03-22T10:55:28.187Z</time></trkpt><trkpt lat="45.5492433" lon="10.3439133"><ele>288.0</ele><time>2026-03-22T10:55:29.185Z</time></trkpt><trkpt lat="45.5491633" lon="10.3438883"><ele>289.5</ele><time>2026-03-22T10:55:30.186Z</time></trkpt><trkpt lat="45.5490883" lon="10.3438667"><ele>291.0</ele><time>2026-03-22T10:55:31.185Z</time></trkpt><trkpt lat="45.5490183" lon="10.3438467"><ele>292.5</ele><time>2026-03-22T10:55:32.185Z</time></trkpt><trkpt lat="45.548955" lon="10.3438233"><ele>294.0</ele><time>2026-03-22T10:55:33.185Z</time></trkpt><trkpt lat="45.5488417" lon="10.343735"><ele>295.5</ele><time>2026-03-22T10:55:35.186Z</time></trkpt><trkpt lat="45.548785" lon="10.3436667"><ele>297.0</ele><time>2026-03-22T10:55:36.186Z</time></trkpt><trkpt lat="45.5487283" lon="10.343585"><ele>295.3333333333333</ele><time>2026-03-22T10:55:37.186Z</time></trkpt><trkpt lat="45.5486667" lon="10.3435"><ele>293.6666666666667</ele><time>2026-03-22T10:55:38.185Z</time></trkpt><trkpt lat="45.5486" lon="10.3434267"><ele>292.0</ele><time>2026-03-22T10:55:39.185Z</time></trkpt><trkpt lat="45.548525" lon="10.3433633"><ele>290.33333333333337</ele><time>2026-03-22T10:55:40.185Z</time></trkpt><trkpt lat="45.5484367" lon="10.3433333"><ele>288.6666666666667</ele><time>2026-03-22T10:55:41.185Z</time></trkpt><trkpt lat="45.54835" lon="10.3433133"><ele>287.0</ele><time>2026-03-22T10:55:42.185Z</time></trkpt><trkpt lat="45.5482633" lon="10.343295"><ele>287.0</ele><time>2026-03-22T10:55:43.185Z</time></trkpt><trkpt lat="45.54817" lon="10.3432617"><ele>287.0</ele><time>2026-03-22T10:55:44.185Z</time></trkpt><trkpt lat="45.5480667" lon="10.3432117"><ele>287.0</ele><time>2026-03-22T10:55:45.186Z</time></trkpt><trkpt lat="45.547965" lon="10.3431517"><ele>287.0</ele><time>2026-03-22T10:55:46.186Z</time></trkpt><trkpt lat="45.5478667" lon="10.343095"><ele>287.0</ele><time>2026-03-22T10:55:47.19Z</time></trkpt><trkpt lat="45.5477883" lon="10.3430333"><ele>285.6666666666667</ele><time>2026-03-22T10:55:48.187Z</time></trkpt><trkpt lat="45.547715" lon="10.3429717"><ele>284.33333333333337</ele><time>2026-03-22T10:55:49.185Z</time></trkpt><trkpt lat="45.54765" lon="10.3428967"><ele>283.0</ele><time>2026-03-22T10:55:50.185Z</time></trkpt><trkpt lat="45.5475883" lon="10.3428133"><ele>281.6666666666667</ele><time>2026-03-22T10:55:51.186Z</time></trkpt><trkpt lat="45.5475283" lon="10.3427067"><ele>280.3333333333333</ele><time>2026-03-22T10:55:52.185Z</time></trkpt><trkpt lat="45.5474817" lon="10.34259"><ele>279.0</ele><time>2026-03-22T10:55:53.185Z</time></trkpt><trkpt lat="45.5474417" lon="10.3424633"><ele>279.0</ele><time>2026-03-22T10:55:54.185Z</time></trkpt><trkpt lat="45.5474083" lon="10.3423283"><ele>279.0</ele><time>2026-03-22T10:55:55.185Z</time></trkpt><trkpt lat="45.5473783" lon="10.34218"><ele>279.0</ele><time>2026-03-22T10:55:56.185Z</time></trkpt><trkpt lat="45.5473567" lon="10.34201"><ele>279.0</ele><time>2026-03-22T10:55:57.186Z</time></trkpt><trkpt lat="45.547345" lon="10.34182"><ele>280.25</ele><time>2026-03-22T10:55:58.185Z</time></trkpt><trkpt lat="45.54733" lon="10.34164"><ele>281.5</ele><time>2026-03-22T10:55:59.185Z</time></trkpt><trkpt lat="45.5473167" lon="10.34147"><ele>282.75</ele><time>2026-03-22T10:56:00.187Z</time></trkpt><trkpt lat="45.5473" lon="10.3413067"><ele>284.0</ele><time>2026-03-22T10:56:01.185Z</time></trkpt><trkpt lat="45.547285" lon="10.3411517"><ele>284.2</ele><time>2026-03-22T10:56:02.186Z</time></trkpt><trkpt lat="45.5472633" lon="10.3410067"><ele>284.4</ele><time>2026-03-22T10:56:03.186Z</time></trkpt><trkpt lat="45.54724" lon="10.3408633"><ele>284.6</ele><time>2026-03-22T10:56:04.185Z</time></trkpt><trkpt lat="45.54721" lon="10.3407383"><ele>284.8</ele><time>2026-03-22T10:56:05.185Z</time></trkpt><trkpt lat="45.5471767" lon="10.3406283"><ele>285.0</ele><time>2026-03-22T10:56:06.185Z</time></trkpt><trkpt lat="45.5471333" lon="10.34053"><ele>285.6</ele><time>2026-03-22T10:56:07.186Z</time></trkpt><trkpt lat="45.547075" lon="10.3404267"><ele>286.2</ele><time>2026-03-22T10:56:08.188Z</time></trkpt><trkpt lat="45.5470033" lon="10.3403117"><ele>286.8</ele><time>2026-03-22T10:56:09.186Z</time></trkpt><trkpt lat="45.546935" lon="10.3401817"><ele>287.4</ele><time>2026-03-22T10:56:10.185Z</time></trkpt><trkpt lat="45.5468767" lon="10.3400533"><ele>288.0</ele><time>2026-03-22T10:56:11.185Z</time></trkpt><trkpt lat="45.5468183" lon="10.3399367"><ele>285.6</ele><time>2026-03-22T10:56:12.186Z</time></trkpt><trkpt lat="45.5467667" lon="10.3398233"><ele>283.20000000000005</ele><time>2026-03-22T10:56:13.186Z</time></trkpt><trkpt lat="45.5467083" lon="10.3397283"><ele>280.8</ele><time>2026-03-22T10:56:14.186Z</time></trkpt><trkpt lat="45.5466417" lon="10.33964"><ele>278.40000000000003</ele><time>2026-03-22T10:56:15.186Z</time></trkpt><trkpt lat="45.5465733" lon="10.3395467"><ele>276.0</ele><time>2026-03-22T10:56:16.186Z</time></trkpt><trkpt lat="45.5465067" lon="10.3394567"><ele>276.0</ele><time>2026-03-22T10:56:17.19Z</time></trkpt><trkpt lat="45.5464483" lon="10.3393733"><ele>276.0</ele><time>2026-03-22T10:56:18.185Z</time></trkpt><trkpt lat="45.5463967" lon="10.339305"><ele>276.0</ele><time>2026-03-22T10:56:19.186Z</time></trkpt><trkpt lat="45.5463167" lon="10.3391867"><ele>276.0</ele><time>2026-03-22T10:56:21.185Z</time></trkpt><trkpt lat="45.5462667" lon="10.3391133"><ele>276.0</ele><time>2026-03-22T10:56:24.185Z</time></trkpt></trkseg></trk></gpx>